GFSGL_850_thetae_000.txt.gz
Theta_e
314 314 313 314 315 315 315 315 315 314 314 314 314 314 314 313 313 313 315 319 323 325 326 327 327 327 327 326 326 324 323 322 323 322 322 323 323 323 322 321 320 320 320
312 311 311 311 312 312 311 310 308 307 307 307 307 309 311 312 314 314 314 314 315 316 319 323 323 324 325 326 326 326 325 323 322 323 323 322 322 322 322 321 321 320 319
310 312 312 312 312 311 310 308 307 307 306 306 305 305 306 309 312 312 314 315 316 316 318 318 318 320 323 324 324 325 325 323 323 322 321 323 323 322 322 321 321 319 317
312 310 308 308 308 307 306 306 305 305 305 305 305 304 305 306 309 312 315 315 315 315 315 315 315 315 317 321 324 325 324 323 323 322 322 322 322 322 321 321 320 319 317
308 308 307 308 307 306 305 304 304 304 304 304 304 304 306 307 308 311 311 311 313 313 313 313 314 314 314 315 320 323 323 324 322 323 322 321 322 321 320 320 320 318 318
306 305 305 305 304 303 302 302 302 303 303 302 303 305 305 306 307 305 309 311 311 311 312 312 313 313 313 313 316 317 321 321 323 321 322 321 320 320 318 319 319 313 312
303 302 302 301 299 298 299 299 300 300 300 301 302 304 304 303 304 307 309 309 309 308 308 309 310 313 314 314 314 314 317 319 321 323 321 321 321 320 318 318 318 316 316
298 298 298 297 297 297 297 297 297 297 298 298 299 301 302 303 305 305 305 304 303 303 305 307 309 310 312 314 314 314 316 317 318 319 319 320 319 319 320 318 318 315 313
294 294 292 292 292 292 293 293 293 294 296 295 296 297 300 301 302 300 299 297 296 298 304 305 306 306 308 309 311 313 312 316 318 316 319 316 320 319 320 317 317 313 309
290 289 289 289 289 289 290 290 291 292 292 294 294 295 297 299 297 296 293 296 296 296 294 295 300 304 307 307 307 310 311 312 315 318 318 317 317 316 314 317 318 313 305
288 288 288 288 288 288 288 289 290 289 291 291 293 294 295 295 294 293 292 292 297 295 292 293 296 301 304 307 307 309 311 312 313 316 317 316 315 312 313 307 307 309 307
287 287 287 287 287 287 287 288 288 288 289 291 292 292 292 293 290 290 290 292 294 290 290 292 297 301 304 305 307 309 311 312 313 313 314 315 308 307 305 302 303 301 300
286 286 286 286 286 287 287 286 287 288 288 289 290 290 289 288 288 289 291 292 292 290 290 292 297 300 304 305 307 308 310 310 312 312 311 304 304 302 300 300 299 296 292
286 286 286 286 286 286 286 286 286 287 288 288 288 288 289 289 289 290 292 293 291 289 290 293 299 300 301 301 302 304 307 308 309 308 304 302 302 299 301 296 294 295 294
286 286 286 285 286 286 285 285 286 287 287 287 288 288 289 289 290 291 292 291 291 290 293 295 297 298 298 300 300 301 302 303 301 300 300 299 299 297 298 295 295 294 296
285 285 285 285 285 285 285 285 285 286 286 287 287 288 288 289 288 290 289 290 289 292 293 295 294 295 296 297 297 298 299 298 298 297 297 296 297 294 294 296 295 294 289
285 285 285 285 284 285 285 285 285 285 286 287 287 288 288 288 289 288 289 289 290 291 291 291 293 293 295 295 295 296 296 296 296 296 294 294 294 293 292 295 293 289 287
284 284 284 284 284 285 285 285 285 285 286 286 286 287 287 288 287 288 288 288 289 289 290 290 291 292 294 294 294 294 295 295 295 294 293 293 294 294 292 293 292 288 286
284 284 284 284 285 285 285 285 285 285 286 285 286 285 285 286 286 287 286 286 287 288 288 290 290 291 293 294 294 293 293 293 293 293 292 293 295 293 293 291 287 286 285
283 283 284 284 284 284 284 284 284 284 285 285 285 285 284 285 286 285 285 285 286 286 287 289 289 291 292 293 293 292 291 291 291 291 292 294 294 294 292 287 286 286 286
283 283 283 283 283 283 283 283 284 284 284 284 284 284 285 285 284 284 284 284 285 285 286 288 288 290 291 292 292 291 290 290 289 290 291 292 293 294 287 286 285 286 285
283 283 283 283 283 282 283 283 284 284 284 284 284 284 284 284 283 283 283 284 284 285 286 287 288 289 291 291 291 290 289 289 289 290 291 292 293 288 286 286 286 285 284
283 283 282 282 282 282 282 283 283 283 283 283 283 283 284 283 283 283 283 283 283 284 285 285 287 289 291 291 291 290 289 289 289 290 292 293 292 286 286 286 285 284 284
282 282 282 282 282 282 282 282 282 282 282 283 283 283 283 283 282 282 282 282 283 283 284 284 287 288 290 290 290 289 288 288 288 290 292 293 287 286 286 285 284 284 284
282 282 282 282 282 282 282 282 282 281 281 281 282 282 282 282 282 281 282 282 282 283 283 284 287 288 289 289 290 288 288 289 289 291 292 290 287 286 285 284 284 285 288
282 282 281 281 281 281 281 281 280 280 280 280 280 281 281 281 281 281 281 281 282 282 283 285 288 288 289 289 289 288 288 289 290 291 292 287 286 285 284 284 285 288 290

GFSGL_850_thetae_003.txt.gz
Theta_e
308 308 310 310 311 311 311 311 310 308 307 306 305 305 305 304 304 306 309 311 312 313 314 315 316 316 318 320 320 322 325 325 324 324 323 322 322 322 321 321 321 321 321
308 310 310 310 309 309 309 308 307 306 306 305 304 305 305 305 305 305 307 308 314 314 315 316 317 317 317 317 318 319 322 323 323 323 323 322 322 322 321 321 321 321 322
309 310 310 309 309 308 308 307 306 304 304 303 304 305 304 304 306 306 306 310 311 310 310 312 313 314 314 314 315 315 315 316 321 322 322 323 322 321 321 321 321 321 321
309 308 309 309 307 306 305 304 302 301 301 301 302 302 303 305 304 306 308 307 306 309 310 310 310 311 312 312 314 315 316 316 317 319 321 322 322 322 321 320 321 321 321
307 307 306 305 303 301 300 298 298 298 298 299 299 300 301 301 305 303 303 305 307 308 308 307 306 306 308 309 311 314 316 316 316 318 318 319 322 320 317 320 321 320 320
304 302 300 299 297 295 293 292 293 294 295 295 298 299 300 301 301 301 304 304 305 304 303 298 299 303 306 309 310 312 314 315 316 316 316 317 318 318 318 319 317 314 313
298 297 295 292 290 290 289 289 289 290 290 292 295 295 297 296 298 301 302 301 301 298 297 296 298 302 299 303 306 308 309 311 313 314 315 315 317 317 319 318 315 316 311
292 290 289 289 289 288 288 288 288 288 289 291 291 292 294 292 297 300 298 298 295 293 292 293 292 292 295 298 303 305 306 307 309 312 313 312 315 318 317 319 318 312 313
289 289 288 287 287 287 287 287 287 288 288 288 289 290 291 293 296 296 297 295 291 291 295 297 292 291 292 295 300 302 303 304 308 309 311 312 311 313 317 317 315 313 308
288 287 287 287 287 287 287 287 287 287 287 287 288 288 290 293 293 293 293 289 292 292 296 294 292 290 291 296 299 300 301 303 305 307 310 311 312 312 314 316 315 313 305
287 287 287 287 287 287 287 287 286 286 287 287 287 289 290 290 289 287 287 291 291 294 295 294 292 290 291 298 299 301 302 302 303 305 308 310 311 311 312 312 312 311 307
286 287 287 287 286 286 286 286 286 286 286 286 287 288 288 288 287 288 290 291 291 293 294 293 291 290 293 297 298 300 300 301 303 305 307 309 309 308 305 306 305 304 302
286 286 286 286 286 286 285 285 285 285 286 286 287 287 288 288 287 288 290 290 292 292 291 291 291 293 295 296 295 296 297 299 300 301 302 303 302 301 301 300 299 298 298
286 286 286 285 285 285 285 285 285 285 286 286 287 288 288 288 288 289 290 290 290 290 290 290 293 294 294 295 293 294 295 296 297 298 299 299 299 298 297 297 298 297 297
285 285 285 285 285 285 285 285 285 285 286 287 287 287 288 288 289 289 289 289 290 290 290 291 291 291 291 293 291 293 294 294 295 296 296 296 297 296 295 295 295 296 296
285 285 285 284 284 284 284 284 285 285 285 286 286 287 288 288 288 288 288 288 289 288 289 289 289 289 289 291 292 291 293 293 293 294 294 294 295 294 293 294 295 294 294
284 284 284 284 284 284 284 285 285 284 284 285 286 286 286 287 286 287 287 287 286 287 286 287 287 287 288 290 290 290 291 292 292 292 292 292 292 292 292 293 293 292 290
284 284 284 283 283 284 284 285 284 284 284 284 284 285 285 285 285 286 286 285 284 284 285 285 285 286 288 288 289 290 291 291 291 291 291 290 290 290 291 291 291 292 287
284 284 283 283 283 284 284 284 284 283 284 284 284 284 283 284 285 285 284 283 283 284 284 284 285 286 287 288 288 289 290 290 289 289 289 288 288 289 290 292 292 287 285
283 283 283 283 283 283 283 283 283 283 283 284 284 283 283 284 285 284 283 283 283 283 283 283 284 285 286 287 287 288 289 289 288 288 287 287 288 290 291 292 287 285 285
282 282 282 283 283 283 283 282 282 283 283 283 283 282 284 284 283 283 283 283 282 282 282 283 284 284 285 287 287 288 289 288 288 287 287 288 289 291 291 286 285 285 284
282 282 282 282 282 282 282 283 283 282 282 282 282 282 283 283 283 282 282 282 282 281 281 282 283 283 286 287 286 287 288 288 287 287 287 289 290 290 286 285 285 284 283
282 282 282 282 282 282 282 282 282 282 282 282 282 282 281 281 282 282 281 281 281 281 281 282 282 284 286 286 286 287 288 287 287 287 289 290 290 286 285 285 284 283 283
282 282 282 282 282 282 282 281 281 282 281 281 280 280 280 281 281 281 280 281 281 281 281 282 282 285 286 286 286 288 288 287 287 288 289 290 287 285 285 284 283 283 285
282 282 282 281 281 281 281 281 281 281 280 280 280 280 280 280 280 280 280 280 280 280 281 282 283 285 286 286 287 288 287 288 289 288 289 289 285 285 284 283 284 285 289
281 281 281 281 281 280 280 280 280 279 280 280 280 279 279 279 280 279 280 280 280 280 281 282 283 285 286 286 287 287 288 288 289 289 289 285 285 284 283 285 287 289 290

GFSGL_850_thetae_006.txt.gz
Theta_e
306 307 308 308 309 309 308 308 308 307 306 305 303 302 302 303 303 303 305 305 306 308 311 309 309 310 312 313 314 314 314 316 318 317 319 319 320 321 322 322 322 322 321
306 307 307 306 306 307 307 306 305 303 302 300 300 300 300 300 301 303 303 305 306 305 305 306 309 310 310 310 310 311 312 313 314 316 316 318 318 318 321 321 320 320 321
306 306 306 306 305 304 303 301 299 297 296 295 296 296 297 298 299 300 304 305 301 303 305 308 307 306 306 305 305 308 309 310 311 315 316 316 317 317 317 318 320 321 321
306 305 304 303 300 298 296 293 292 292 291 291 291 291 293 296 296 298 298 299 301 303 303 303 302 300 298 298 304 305 307 310 311 313 314 315 315 316 317 318 319 318 318
303 301 299 297 294 292 291 291 291 290 290 290 290 290 290 292 291 294 294 296 298 301 299 297 297 296 295 301 296 296 300 305 305 308 310 312 315 314 315 315 316 317 316
299 296 293 291 291 291 290 290 290 289 289 289 289 289 289 289 291 291 292 296 299 297 296 295 294 293 294 293 291 293 295 302 304 305 306 308 310 311 312 314 314 316 314
293 290 290 290 290 289 289 289 289 288 288 288 288 288 288 288 289 291 294 295 293 292 292 292 291 292 298 294 291 292 293 297 299 301 302 304 306 308 311 313 313 313 314
290 290 290 289 289 288 288 288 288 288 287 287 287 287 287 287 289 292 293 291 290 288 289 289 289 296 295 293 291 292 293 295 298 299 301 302 303 305 306 307 309 310 312
290 289 289 288 288 288 288 287 287 287 286 286 286 286 287 288 290 289 289 287 287 288 289 290 293 294 294 294 293 293 294 297 298 300 300 301 302 304 306 305 306 308 309
289 288 288 287 287 287 287 286 286 286 286 286 286 286 286 288 287 288 289 289 290 290 291 291 292 293 293 292 292 293 296 297 297 298 299 301 302 303 305 306 307 306 308
287 287 287 287 286 286 286 286 285 285 285 285 285 286 286 287 287 288 289 289 290 291 290 290 290 290 291 291 293 295 295 294 295 295 297 299 300 302 305 305 306 305 306
287 287 287 286 286 285 285 285 285 285 285 285 285 286 286 287 287 288 289 290 290 289 290 289 289 289 290 292 293 293 293 292 294 293 294 296 298 300 301 301 301 302 302
287 286 286 286 285 285 284 284 284 284 284 284 285 286 286 286 286 287 288 289 288 288 288 289 288 289 291 290 290 291 291 292 291 292 292 293 295 296 296 296 297 297 297
286 286 285 285 285 284 284 284 284 284 284 285 286 286 286 286 287 287 288 287 287 287 288 287 287 288 287 288 288 289 290 290 290 291 291 292 293 294 294 293 294 294 295
285 285 285 284 284 284 284 283 284 284 284 285 285 285 285 286 286 287 287 287 287 286 286 286 285 285 285 286 288 288 288 289 289 289 291 291 291 292 292 292 292 293 294
285 285 284 284 284 283 283 283 283 284 284 285 285 285 285 285 286 286 286 286 286 285 284 284 284 284 285 285 286 287 287 288 289 289 290 290 290 290 290 290 290 291 292
284 284 284 283 283 283 283 283 283 283 283 283 284 284 284 285 285 285 286 286 284 283 282 283 283 283 284 284 285 286 287 287 288 289 289 289 288 289 288 289 289 290 290
284 283 283 283 282 282 283 283 283 283 283 282 282 283 283 284 284 285 285 284 282 282 282 282 282 282 283 284 284 285 286 287 287 288 288 287 287 287 288 288 289 290 289
283 283 282 282 282 283 283 282 282 282 282 282 282 282 282 282 283 284 283 282 282 282 282 282 282 282 282 283 284 286 286 286 287 287 287 287 287 287 287 288 289 289 286
282 282 282 282 282 282 282 282 282 282 282 282 282 282 282 282 283 282 281 282 282 281 281 281 281 281 282 283 285 286 285 286 287 287 287 286 287 287 288 289 288 286 285
282 281 282 282 282 282 282 282 282 282 282 282 281 281 282 282 281 280 281 282 281 280 280 281 281 281 282 283 285 285 285 286 287 287 286 286 287 288 289 287 285 285 284
281 281 281 282 282 282 282 282 282 281 281 281 281 281 282 280 280 280 281 280 280 280 280 280 280 281 282 284 285 285 285 286 287 287 286 287 288 288 286 285 285 283 283
281 281 282 282 282 281 281 281 281 281 281 281 281 280 280 280 279 279 280 280 280 280 280 280 280 281 283 285 285 285 285 286 286 286 287 288 289 285 285 284 283 282 284
282 282 281 281 281 281 281 281 281 280 281 280 280 279 279 279 279 279 279 279 280 280 280 280 280 282 284 285 285 285 286 286 287 287 288 289 285 285 284 283 282 284 287
281 281 281 281 280 280 280 280 280 279 279 279 279 279 279 279 279 279 279 279 279 280 280 280 281 282 284 285 285 286 286 287 287 288 289 286 285 284 283 283 287 289 289
281 280 280 279 279 279 279 278 279 279 279 279 279 279 278 278 279 279 278 279 279 280 279 280 282 284 284 285 285 286 286 287 288 289 286 285 284 283 285 288 290 290 290

GFSGL_850_thetae_009.txt.gz
Theta_e
306 306 307 307 306 306 305 304 302 300 298 295 294 293 293 293 293 295 297 298 304 304 301 301 303 306 307 306 305 305 305 304 309 309 310 311 312 313 315 316 316 316 316
306 306 306 306 305 303 301 298 295 293 292 292 292 292 291 291 291 292 292 296 298 295 296 300 302 302 298 297 297 299 298 302 305 307 306 309 311 311 312 313 315 316 316
307 307 306 304 301 298 294 293 292 292 292 292 291 291 290 290 290 290 290 292 292 292 295 300 300 296 294 293 293 301 301 293 294 299 305 307 307 308 310 311 313 315 314
307 306 302 298 294 292 291 291 291 291 291 291 291 290 290 290 290 289 289 289 291 293 296 298 295 294 293 291 296 301 298 292 295 298 299 303 304 305 306 309 311 314 313
305 300 296 292 291 291 291 291 291 290 290 290 290 290 290 289 289 288 288 290 294 294 293 292 290 290 291 291 297 297 296 294 296 295 297 299 300 301 303 305 306 309 310
299 294 291 290 290 290 290 290 290 290 289 289 289 288 288 288 288 288 289 292 292 290 290 290 289 289 289 291 293 293 294 295 294 295 295 296 297 299 300 301 302 304 306
292 290 290 289 290 289 289 289 289 288 288 288 287 287 287 287 287 287 289 290 289 288 288 288 288 289 290 292 292 293 294 293 293 293 295 296 297 298 299 299 300 302 304
290 289 289 289 289 288 288 288 288 287 287 287 286 286 286 286 286 287 288 288 288 288 288 289 290 290 290 291 292 292 292 291 290 293 295 296 297 297 299 300 300 301 302
289 289 289 288 288 288 288 287 287 286 286 286 285 285 285 285 285 286 288 288 288 288 289 290 290 290 290 290 290 290 290 290 292 294 294 294 295 295 296 299 301 302 302
289 288 288 287 287 287 286 286 286 285 285 285 285 285 285 285 285 287 288 288 288 289 289 289 288 289 289 290 290 290 292 293 294 293 293 292 292 293 295 297 298 298 299
288 288 287 287 286 286 286 285 285 285 284 284 284 284 285 285 285 286 287 288 288 289 288 287 287 288 289 288 290 289 290 291 291 291 290 290 291 291 293 294 295 295 296
287 287 287 286 286 285 285 285 284 284 284 284 284 284 285 285 285 285 287 287 288 287 287 287 287 287 287 287 287 287 288 289 289 289 289 289 290 292 292 292 293 294 294
287 287 286 286 285 285 285 284 284 283 283 283 284 284 285 284 284 285 286 287 286 286 286 286 286 285 286 285 285 286 287 287 288 288 289 289 289 289 291 292 291 291 292
286 286 285 285 285 285 284 283 283 283 283 284 284 284 284 284 284 284 286 286 286 285 287 285 284 283 284 283 283 284 285 286 287 288 288 288 288 289 290 290 290 290 290
286 286 285 285 284 284 283 283 282 282 283 284 284 284 284 284 284 286 286 285 285 287 285 283 282 283 282 282 282 283 284 284 286 287 287 288 287 288 289 289 289 289 289
285 285 284 284 283 283 283 282 282 282 283 284 284 284 284 284 284 285 285 285 285 285 283 282 281 282 281 281 282 282 283 284 285 286 287 287 287 287 288 288 288 288 289
285 284 283 283 283 282 282 282 282 282 282 282 283 283 283 283 284 284 284 284 284 283 282 281 281 281 281 281 281 282 283 284 284 285 287 287 286 287 287 287 287 288 288
284 283 283 282 282 282 282 282 282 282 282 282 281 282 282 283 283 283 283 283 281 282 281 281 280 280 280 280 281 282 283 283 284 285 286 286 286 286 286 286 287 287 288
283 282 282 282 281 282 282 281 281 281 281 281 281 281 281 281 282 282 281 280 281 282 281 280 280 280 280 281 280 282 283 283 284 285 286 286 286 286 286 286 287 287 286
282 282 281 281 281 281 281 281 281 281 281 281 281 281 281 281 282 281 280 279 280 280 280 280 280 280 280 280 281 282 283 284 284 285 286 286 286 286 286 287 287 285 284
281 281 281 281 281 281 281 281 281 282 282 281 281 280 281 282 281 279 279 279 279 279 279 280 280 280 280 281 282 283 283 284 285 285 286 286 286 287 287 285 285 284 282
281 281 281 281 281 281 281 282 281 281 281 280 280 280 281 280 279 279 279 279 279 279 279 279 279 280 280 282 283 283 283 284 285 285 286 286 287 285 285 284 282 282 283
281 281 281 281 281 281 281 281 281 280 280 280 280 280 279 279 279 279 279 279 279 279 279 279 279 280 281 283 283 284 284 285 285 286 286 287 284 284 283 282 282 285 287
281 281 281 280 280 280 280 279 279 279 279 279 279 279 279 278 278 278 278 278 278 278 279 279 280 281 283 284 284 285 285 285 286 287 287 284 284 283 282 283 286 289 289
281 280 280 279 279 279 279 279 278 278 278 278 278 278 278 278 278 278 278 278 278 278 279 279 280 282 284 284 284 285 285 286 287 288 284 284 283 283 288 289 290 289 289
280 280 279 279 279 279 279 278 278 278 278 278 278 278 278 278 278 278 278 278 278 278 279 280 281 283 284 284 285 285 285 287 287 284 284 283 285 289 290 290 290 289 288

GFSGL_850_thetae_012.txt.gz
Theta_e
306 307 308 308 307 303 300 297 294 293 292 292 292 292 292 292 292 291 291 290 289 290 290 291 294 299 301 298 295 295 293 296 302 301 298 295 295 297 303 305 307 308 310
307 307 307 305 303 299 295 293 292 292 292 292 292 292 292 291 291 290 290 289 289 289 290 292 295 295 294 294 294 293 292 300 300 298 296 294 293 293 294 297 303 303 305
307 307 306 302 297 294 292 292 292 291 291 291 291 291 291 290 290 290 289 288 288 289 292 292 292 291 291 290 290 290 294 297 296 295 293 293 293 293 295 296 296 299 303
307 305 300 296 293 291 291 291 291 291 290 291 291 290 290 290 289 289 288 288 288 290 290 290 289 288 288 289 290 291 295 295 294 294 295 295 294 294 295 295 296 297 299
304 298 295 292 291 290 290 290 290 290 290 290 290 290 289 288 288 287 287 287 288 288 288 287 287 287 288 290 291 291 292 293 293 294 293 293 293 293 294 295 297 297 299
301 297 293 291 290 289 290 290 290 290 289 289 289 288 288 287 287 286 287 288 288 288 287 287 287 288 289 290 290 291 291 291 291 291 292 292 292 292 294 296 297 297 297
300 296 291 289 289 289 289 289 289 289 289 288 288 287 287 286 285 285 287 288 287 287 287 287 288 289 289 288 289 289 290 290 290 290 290 290 291 292 295 294 294 296 297
295 293 289 289 289 289 288 288 289 288 287 287 286 286 285 285 285 285 287 287 287 287 287 287 288 288 287 288 289 289 289 288 288 291 292 292 293 294 294 293 293 294 295
292 289 289 288 288 288 288 288 287 286 286 285 285 284 284 284 284 285 287 286 286 287 287 287 288 287 287 289 288 288 287 288 287 288 290 290 291 291 291 292 292 293 295
289 288 288 287 287 288 287 287 286 285 285 285 284 284 284 284 284 285 286 286 286 286 287 287 286 287 287 288 287 287 287 286 286 288 288 288 289 289 290 290 291 291 292
288 288 288 287 287 287 286 285 285 284 284 284 284 284 283 284 284 285 286 286 286 287 286 286 285 286 287 285 286 286 285 286 287 286 287 287 288 288 289 289 289 289 290
288 287 287 287 287 286 285 285 284 284 284 283 283 283 283 284 284 284 285 286 286 286 285 285 286 286 285 284 284 284 285 285 284 285 285 286 287 288 288 288 288 289 289
288 287 287 286 286 285 285 284 284 284 283 282 283 283 284 284 283 283 284 285 285 285 285 286 285 284 282 282 283 283 283 282 283 284 285 286 286 287 287 287 288 288 289
287 286 286 286 286 285 285 284 283 282 282 283 283 284 283 283 283 283 285 284 285 284 285 285 283 282 281 281 281 281 281 282 283 284 283 284 286 286 287 286 287 288 287
286 286 286 286 285 285 284 283 282 282 282 283 283 283 283 283 283 284 284 284 284 285 284 283 281 281 280 280 281 281 281 282 282 282 282 284 285 286 286 286 287 287 286
285 286 285 285 284 283 283 282 282 282 282 283 283 283 283 283 283 284 284 284 284 283 281 281 282 280 280 280 280 280 281 281 282 282 282 283 284 286 285 286 286 286 286
285 285 284 284 283 282 282 281 281 281 281 281 282 282 282 283 283 283 283 283 282 280 280 281 280 280 279 279 279 279 280 281 281 282 282 283 285 285 285 286 286 286 286
285 284 283 282 282 281 281 281 281 281 281 281 281 281 282 282 282 282 283 281 279 279 280 280 279 279 279 279 279 280 281 281 281 282 283 284 285 285 285 286 286 286 286
284 283 282 281 281 281 281 281 281 281 281 281 281 281 281 281 281 282 281 279 279 279 279 279 279 279 278 278 280 281 280 281 281 283 284 284 285 285 286 286 286 286 286
283 282 281 281 281 281 281 281 281 281 281 281 281 280 280 281 282 280 279 279 279 279 278 278 278 278 279 279 281 281 280 281 282 283 284 285 286 286 286 286 286 285 284
281 281 281 281 281 281 281 281 281 281 280 280 280 280 281 281 280 279 279 279 278 278 278 278 278 279 279 280 281 281 281 282 283 284 284 285 286 285 285 284 283 282 281
281 281 281 281 281 281 280 281 280 280 280 279 279 279 280 279 279 278 278 278 278 278 278 278 278 279 280 281 281 281 282 284 284 284 285 286 285 284 283 281 282 284 287
281 281 281 281 280 280 280 280 279 279 279 278 278 278 278 278 278 278 278 278 278 278 278 278 279 279 281 282 282 283 284 285 285 285 286 284 283 282 281 282 284 287 287
281 281 280 280 280 279 279 279 279 279 278 278 278 278 278 278 278 278 278 278 278 278 278 278 279 280 283 283 283 284 285 285 285 286 284 283 281 283 286 287 288 288 288
280 280 280 279 279 279 279 279 279 278 278 278 277 277 277 277 277 277 277 277 277 278 278 279 280 282 283 284 285 285 286 286 286 283 282 282 287 288 288 288 288 288 288
280 279 279 279 279 279 279 279 278 278 277 277 277 277 277 277 277 277 277 277 278 278 278 279 281 283 284 285 285 285 286 285 283 282 285 288 288 288 287 288 288 289 290

GFSGL_850_thetae_015.txt.gz
Theta_e
307 307 308 307 306 304 301 298 294 292 291 291 291 291 291 292 292 291 291 290 290 289 289 289 291 292 290 289 290 291 291 291 292 292 296 298 297 295 294 295 294 293 295
307 308 307 305 303 299 296 293 292 291 290 290 291 291 291 291 291 290 290 289 288 288 289 291 290 288 288 288 288 290 290 291 291 294 296 294 293 294 295 294 293 295 295
308 307 305 303 300 296 293 291 290 290 290 290 290 290 290 290 290 289 288 287 287 287 289 289 288 288 288 288 289 290 291 291 291 292 293 293 293 293 293 293 293 292 293
306 305 303 301 296 292 290 290 290 290 290 290 290 290 289 289 288 287 286 286 287 287 288 287 287 288 288 289 289 290 290 290 290 291 291 291 291 291 291 291 291 292 293
305 302 300 296 292 290 290 289 289 290 290 289 289 289 289 288 287 286 286 286 286 287 287 287 287 287 288 289 289 289 289 289 290 290 290 290 290 290 290 290 291 291 293
301 298 294 295 290 289 289 289 289 289 290 289 289 288 287 286 286 285 285 287 287 287 286 286 287 287 288 289 288 288 289 289 289 289 289 289 289 289 290 291 292 292 293
297 293 291 291 289 289 289 289 289 289 290 289 287 287 286 285 285 284 286 287 287 286 286 286 286 287 288 287 287 288 288 288 287 288 288 288 288 287 289 290 292 292 291
295 292 289 289 289 289 289 289 289 289 288 287 286 285 285 285 284 284 286 286 286 286 286 286 287 287 286 287 287 288 286 285 286 286 286 286 287 288 289 289 290 290 290
292 289 288 288 288 288 289 289 288 287 287 286 285 284 284 284 283 284 286 285 285 286 286 286 287 285 286 287 288 286 285 285 285 285 286 287 287 287 288 289 289 289 290
289 288 288 287 288 288 288 288 287 286 286 285 284 284 283 283 283 284 285 285 285 285 286 286 285 285 286 286 286 285 284 284 285 285 284 284 285 286 287 287 288 289 289
288 288 287 287 287 288 287 287 286 285 285 284 284 283 283 283 283 284 285 285 285 285 286 285 284 285 287 286 284 283 283 284 284 283 283 284 284 285 286 286 287 287 288
287 287 287 287 287 287 287 286 285 284 284 283 282 283 283 283 283 283 284 285 285 285 285 284 284 286 285 284 282 283 283 283 282 282 282 283 284 284 284 285 286 287 287
287 287 287 287 288 287 286 285 284 283 282 282 282 283 283 283 283 283 283 284 285 284 284 285 284 283 283 282 281 282 282 281 280 281 282 282 283 283 284 284 286 286 286
287 287 287 288 287 286 285 284 283 282 282 282 283 283 283 282 283 282 284 284 284 284 284 283 282 281 282 281 280 280 280 280 281 281 281 282 282 282 283 284 285 286 286
287 288 288 287 286 284 283 282 281 282 282 283 283 283 283 283 283 284 284 284 284 284 282 281 280 281 280 280 280 280 280 280 280 280 281 281 282 282 283 284 285 286 286
288 288 286 285 284 283 282 282 282 282 282 282 282 282 282 283 283 283 283 283 283 282 281 280 279 280 279 279 279 279 280 280 280 280 281 281 282 282 284 285 286 286 285
287 286 284 283 283 282 281 282 282 281 281 281 281 282 282 282 282 282 283 283 281 280 280 279 279 279 279 279 279 279 279 280 280 280 281 281 283 283 284 285 286 285 285
285 284 283 283 282 281 281 281 281 281 281 281 281 281 282 282 281 282 282 281 279 279 279 279 278 278 278 278 278 279 279 279 280 280 281 283 283 284 285 285 285 285 285
284 284 283 282 281 281 281 281 281 280 281 280 280 280 280 280 281 281 280 279 279 278 278 278 278 278 278 278 279 279 279 279 280 281 282 283 283 285 285 285 286 285 284
284 282 281 281 281 281 281 281 280 280 280 280 280 280 279 280 280 280 279 278 278 278 278 278 278 278 278 279 280 279 279 280 281 282 283 284 284 284 284 284 283 282 282
282 281 281 281 281 280 280 280 280 280 280 279 279 279 280 280 279 278 278 278 278 278 277 277 277 278 279 280 280 279 280 281 283 283 284 284 284 283 282 281 281 284 286
281 281 281 281 280 280 280 280 280 279 279 279 278 278 278 278 278 278 278 277 277 277 277 277 278 278 280 281 280 280 281 283 284 284 284 284 282 281 281 282 286 286 287
281 281 280 280 280 279 280 279 279 279 278 278 278 278 277 277 277 277 277 277 277 277 278 278 278 279 282 281 282 282 283 284 285 284 283 282 283 286 286 286 287 287 288
281 280 280 279 279 279 279 279 279 279 278 277 278 277 277 277 277 277 277 277 277 278 278 278 279 282 282 283 284 285 285 285 284 282 283 287 287 288 288 288 288 288 288
280 279 279 279 279 279 279 279 279 278 278 278 277 277 277 277 277 277 276 277 277 278 278 279 282 282 283 284 285 285 284 283 282 283 287 287 287 287 288 288 288 289 289
279 279 279 279 279 279 279 279 278 278 278 277 277 277 277 276 277 276 277 277 278 278 279 281 283 283 284 285 285 284 282 282 285 288 288 288 287 288 288 289 289 289 289

GFSGL_850_thetae_018.txt.gz
Theta_e
307 308 308 307 305 303 301 298 294 293 291 291 291 291 291 291 291 290 290 289 290 290 290 291 291 292 291 290 290 290 290 291 292 291 292 292 292 293 294 294 294 295 295
308 307 306 305 303 301 297 295 292 291 290 290 290 290 291 290 290 289 288 289 289 290 290 290 290 290 289 289 289 290 290 291 291 292 291 291 292 292 292 293 293 293 293
307 306 303 302 300 298 294 291 290 290 290 290 290 290 290 290 289 288 287 288 289 289 289 289 289 289 289 289 289 289 290 290 290 290 290 290 291 291 291 291 292 292 291
305 303 301 299 297 294 290 290 289 289 290 290 290 290 289 289 288 287 287 288 288 289 289 289 288 288 288 288 288 289 290 289 289 289 290 290 290 290 290 290 290 290 291
303 300 298 297 295 291 289 289 289 290 290 290 289 289 288 287 286 286 286 287 288 288 288 288 288 288 288 288 289 289 289 288 288 289 289 288 288 288 289 289 290 289 289
301 299 297 295 292 289 289 289 289 290 289 289 288 287 287 286 286 285 285 287 287 288 287 287 287 287 287 288 288 288 288 289 289 289 288 287 287 288 288 288 288 288 289
300 298 295 292 289 288 288 289 289 289 289 288 287 286 286 285 285 284 286 286 287 287 287 287 287 287 287 287 287 287 288 288 288 287 286 286 286 286 287 287 288 288 289
299 296 292 289 288 288 288 289 289 289 288 286 286 285 285 284 284 285 285 286 286 286 286 286 286 287 287 287 286 287 288 287 286 285 285 285 286 287 286 287 287 287 288
298 292 289 288 288 288 289 289 289 288 286 286 285 284 284 284 284 284 285 286 286 286 286 286 286 286 286 286 287 287 286 285 284 284 285 286 285 285 286 286 287 287 288
293 289 288 288 288 288 288 288 287 286 285 284 284 284 283 284 284 285 285 285 285 285 286 286 286 286 286 287 287 285 285 284 283 284 284 284 284 284 285 285 286 286 287
290 288 288 288 287 287 287 287 286 285 284 284 284 284 284 284 284 285 285 285 285 285 285 285 285 285 286 285 284 284 284 284 283 283 283 282 283 283 284 284 284 284 285
288 288 288 287 288 287 286 286 285 284 284 283 283 284 284 284 284 284 285 285 285 285 285 284 285 285 284 283 283 283 283 283 282 282 282 282 283 283 283 283 283 284 284
288 288 287 288 288 286 285 284 284 283 283 283 284 284 284 284 284 284 284 284 285 285 284 284 285 283 282 282 283 282 282 281 281 281 282 282 282 282 282 283 284 284 285
288 287 288 288 286 285 284 284 283 283 283 283 284 284 284 284 284 284 283 284 284 283 284 284 282 282 281 282 281 281 281 281 281 281 281 281 281 282 282 283 284 285 286
287 288 287 286 285 284 284 283 282 282 282 283 283 283 283 283 283 283 284 284 283 284 284 282 281 281 280 280 280 280 280 281 281 280 280 281 281 282 283 283 284 285 286
288 287 286 285 284 284 283 283 283 283 283 282 282 282 283 283 283 283 283 283 283 283 281 281 280 280 280 280 280 280 280 280 280 280 280 281 281 282 283 284 286 286 285
287 286 285 284 283 282 282 283 283 283 282 282 282 282 282 282 282 282 282 283 282 281 280 280 280 279 279 279 279 280 279 279 279 280 280 281 282 283 284 285 285 285 285
287 286 284 283 282 282 282 282 282 282 282 282 282 282 282 282 281 282 282 281 280 280 279 279 279 279 279 279 279 279 279 279 279 280 281 281 283 283 284 284 285 285 284
286 285 283 282 282 282 282 282 282 282 282 282 282 281 281 281 281 281 281 280 279 279 279 278 278 278 278 279 279 278 278 279 280 280 281 283 283 283 283 282 281 282 282
285 284 283 281 282 282 281 281 281 282 282 281 281 281 280 280 280 280 279 279 279 278 278 278 278 278 278 279 278 278 279 281 281 282 283 283 283 283 282 281 283 285 285
284 283 281 281 281 281 281 281 281 281 281 281 280 280 280 280 279 279 278 278 278 278 278 278 278 278 279 279 278 279 280 282 283 283 283 282 282 282 282 283 285 285 285
283 281 281 281 281 281 281 281 281 280 280 280 280 279 279 279 278 278 278 278 278 278 277 278 278 279 280 279 279 281 282 284 284 283 282 282 284 285 285 286 286 287 286
281 281 281 281 281 280 280 280 280 280 279 279 279 279 278 278 278 278 277 277 277 277 277 278 279 281 281 281 282 283 283 284 283 282 282 285 286 287 287 287 287 287 287
281 281 281 280 280 280 279 279 279 279 279 278 278 277 277 277 277 277 276 277 277 277 278 279 281 281 282 283 283 283 282 282 282 283 286 287 287 287 288 288 288 288 288
280 280 279 279 279 279 279 278 278 278 277 277 277 277 277 276 276 276 276 277 277 278 279 281 282 282 283 283 283 282 282 283 286 286 287 287 288 288 288 288 288 288 288
279 279 279 279 279 278 278 278 278 277 277 276 276 276 276 276 276 277 277 278 278 279 279 282 282 283 284 283 281 281 283 286 287 288 287 288 288 288 288 288 288 288 288

GFSGL_850_thetae_021.txt.gz
Theta_e
307 308 308 307 306 304 302 300 297 293 291 291 291 291 292 292 292 290 290 289 289 290 290 290 291 290 291 290 290 290 290 290 290 291 291 292 291 291 291 291 291 292 292
307 307 307 305 304 301 299 296 292 291 291 291 291 292 292 291 290 289 289 289 288 289 289 290 290 290 290 290 289 289 289 289 289 290 290 290 290 290 291 291 290 290 290
307 306 304 303 300 299 297 293 291 290 290 291 291 291 291 290 288 288 288 288 288 288 289 289 289 289 289 289 289 289 288 289 290 289 289 289 289 290 290 289 288 288 290
306 304 303 301 299 297 294 291 290 290 290 291 291 290 289 288 288 287 287 287 287 288 288 288 289 288 288 288 288 288 289 289 288 289 289 289 289 290 289 288 288 288 289
304 303 302 300 297 293 290 290 290 290 290 290 290 289 288 287 287 287 286 287 287 287 287 288 288 288 288 288 288 288 288 288 288 288 289 289 289 288 288 287 287 287 287
304 302 300 297 294 290 289 289 290 290 290 289 289 288 287 287 287 287 287 286 286 286 287 287 287 287 287 287 288 288 288 288 288 288 288 289 287 287 286 286 286 287 287
302 300 297 294 291 289 289 289 289 289 289 288 288 287 287 286 286 286 286 286 286 287 287 287 287 287 287 286 287 287 287 287 288 287 287 286 285 285 285 286 287 286 286
300 297 294 292 289 289 289 289 289 288 288 287 287 286 286 285 285 285 286 286 286 286 286 286 286 286 286 287 287 287 286 286 285 285 285 285 285 285 286 286 285 285 286
297 294 292 289 289 289 288 289 289 288 287 287 286 285 285 285 285 285 286 286 285 285 286 286 286 286 286 287 287 286 285 284 284 285 285 285 285 285 285 285 285 285 285
295 294 290 289 288 288 289 289 288 287 286 286 285 285 285 285 285 286 286 286 285 285 285 285 285 286 286 286 286 285 284 283 284 284 283 283 283 283 284 284 284 284 284
295 292 289 288 288 289 289 288 287 286 285 285 285 284 285 285 285 286 286 286 285 285 285 285 285 285 286 285 284 284 283 285 284 283 282 282 282 283 283 283 283 283 283
293 289 288 288 289 289 288 287 286 285 285 284 284 284 285 285 285 285 285 285 285 285 285 284 284 285 284 284 283 283 283 283 282 282 282 282 282 282 282 282 282 283 283
289 288 288 289 289 288 287 286 285 284 284 284 284 284 284 284 284 284 284 284 285 284 284 284 285 283 283 282 282 282 282 281 281 282 282 281 281 281 281 282 283 283 284
288 288 289 289 288 287 286 285 284 284 284 284 284 284 284 283 283 283 283 284 284 283 284 284 282 282 282 281 281 281 281 281 281 281 281 280 281 281 282 283 283 285 285
288 289 289 288 286 285 285 284 284 284 284 284 283 283 283 283 283 284 284 283 283 283 284 282 281 280 280 280 280 280 280 280 280 280 280 280 281 281 282 284 284 286 286
288 288 287 286 285 285 284 284 284 284 284 284 283 283 283 283 283 283 283 283 283 283 282 281 280 280 280 280 280 280 280 280 280 279 280 280 281 281 283 284 285 286 285
288 287 286 285 284 284 284 283 283 283 283 283 283 283 283 283 283 282 282 282 282 281 280 280 280 279 279 279 279 279 279 279 279 279 280 280 281 282 283 283 283 284 284
287 286 285 284 284 283 283 283 283 282 282 282 282 283 282 282 282 282 282 281 280 279 279 279 279 279 279 279 279 279 279 279 280 280 281 282 282 283 283 283 282 283 283
287 286 284 284 283 283 283 282 282 282 282 282 282 282 281 281 281 281 280 279 279 279 279 279 279 279 279 279 279 279 279 279 280 281 282 282 282 283 283 283 283 284 284
286 285 284 283 282 282 282 282 282 282 282 282 281 281 280 281 280 279 279 279 279 279 278 278 278 279 279 279 279 279 279 281 282 283 282 282 282 282 283 283 284 284 284
285 284 283 282 282 282 282 281 281 281 281 281 280 280 281 280 279 279 278 278 278 278 278 278 278 279 280 279 279 280 281 282 282 282 282 282 283 284 284 284 285 285 285
284 283 282 282 282 282 281 281 281 281 280 280 280 279 280 279 278 278 278 278 277 277 278 278 279 280 280 280 280 281 281 282 282 282 283 284 285 286 285 285 286 286 286
283 282 282 282 281 281 280 280 280 280 280 279 279 279 278 278 278 278 277 277 277 278 278 279 280 281 281 281 282 281 281 282 283 283 284 286 286 286 285 286 286 287 287
282 282 282 281 280 280 280 279 279 279 279 279 278 278 278 277 277 277 277 277 277 278 279 280 282 282 282 282 282 281 282 283 283 284 286 287 287 287 286 287 287 287 287
281 281 280 279 279 279 279 279 279 279 278 277 277 277 277 276 276 277 277 277 278 279 279 281 282 282 283 281 281 283 284 284 285 286 287 288 288 287 287 287 287 288 288
280 279 279 279 279 279 279 279 278 278 277 277 277 276 276 276 276 277 278 278 278 279 280 282 282 283 282 282 284 285 285 286 287 287 288 288 287 286 287 287 287 287 287

GFSGL_850_thetae_024.txt.gz
Theta_e
308 308 308 308 307 306 305 303 301 297 293 292 292 291 292 292 292 292 291 290 289 288 288 287 288 289 289 290 289 289 289 289 289 289 288 288 289 288 288 289 289 289 290
308 308 308 307 305 304 303 301 297 294 292 291 291 292 292 292 292 290 289 288 287 288 287 286 287 288 288 288 289 288 288 288 288 288 288 289 288 287 288 288 289 289 290
307 307 307 305 304 302 300 297 294 292 291 291 291 292 292 291 290 289 287 287 287 287 286 286 286 287 288 288 288 288 288 288 288 289 288 287 288 288 288 288 289 288 287
306 306 305 304 303 301 298 294 291 290 291 291 291 291 291 289 288 287 287 287 287 287 286 285 286 287 288 287 288 288 288 288 288 288 288 288 287 287 288 288 286 286 285
305 305 304 303 301 298 294 291 290 290 290 291 291 290 289 288 287 287 287 287 287 286 285 286 287 287 287 287 288 288 288 287 288 288 288 287 287 286 286 286 285 285 285
304 304 303 301 298 295 291 290 290 290 291 291 290 288 287 287 286 287 287 287 286 286 285 286 286 286 286 287 287 287 287 288 287 287 287 286 285 285 285 285 285 285 285
303 302 301 299 296 291 290 290 290 291 290 289 288 287 286 286 286 287 287 286 286 286 286 285 285 285 285 285 286 287 287 286 287 286 285 284 284 285 285 285 285 285 285
302 300 299 296 292 290 290 290 290 290 289 288 287 286 285 285 285 286 286 286 286 286 285 285 285 285 285 286 286 287 286 285 285 284 284 284 285 285 285 284 284 284 284
300 298 295 292 290 289 290 290 290 289 288 287 286 285 285 285 285 286 286 286 286 286 286 285 285 285 285 286 286 286 285 284 283 283 284 284 284 283 284 283 283 283 283
298 296 293 289 289 289 290 290 289 288 287 286 285 284 284 284 284 286 286 286 286 285 285 285 284 285 285 286 286 285 284 283 283 284 283 282 282 282 282 282 282 282 283
296 293 290 289 289 290 290 289 288 287 286 285 285 284 284 284 285 285 285 285 285 285 285 284 284 284 285 285 285 283 283 284 283 282 281 281 282 282 281 281 281 281 282
294 290 289 289 290 290 288 288 287 286 285 284 284 284 284 283 284 284 285 285 285 285 284 283 283 285 284 284 283 282 283 283 281 281 281 281 281 280 281 281 282 283 284
289 289 289 290 290 289 288 287 286 285 284 284 284 284 284 283 283 283 284 284 284 284 283 283 284 283 282 281 281 281 281 280 280 280 281 280 280 280 281 282 283 284 285
289 289 289 290 289 289 288 286 285 284 284 284 284 284 284 283 283 283 284 284 283 283 283 284 282 281 280 280 280 280 280 280 280 280 280 280 280 281 281 283 283 283 284
289 289 289 290 289 288 287 285 284 284 284 284 284 284 284 284 284 284 284 284 283 283 283 282 280 279 279 279 279 279 280 279 280 279 279 280 280 281 283 283 283 283 283
288 288 289 289 288 287 285 284 283 283 283 284 284 284 284 283 284 284 283 283 283 282 281 279 279 279 279 279 279 279 279 279 279 279 280 281 281 282 282 283 283 283 283
288 289 289 288 287 285 284 283 283 283 282 282 283 283 283 283 283 282 283 282 281 280 279 279 279 279 278 279 279 279 279 279 280 280 281 282 282 282 282 282 283 283 283
288 288 288 287 285 284 283 282 282 282 282 282 281 282 282 282 282 282 282 281 279 279 279 278 278 278 278 279 279 279 279 280 280 281 282 282 282 282 282 283 283 283 284
288 288 287 285 284 283 282 282 282 282 281 281 281 281 281 281 281 281 280 278 278 278 278 278 278 278 279 279 278 279 279 280 281 282 282 282 283 282 283 284 284 285 285
288 286 284 283 283 282 282 282 281 281 281 281 281 280 280 281 280 279 278 278 278 278 277 277 278 278 279 279 279 279 280 281 282 283 283 283 283 283 284 284 284 285 286
286 284 283 283 282 282 281 281 281 281 280 280 280 280 280 280 279 278 277 278 277 277 277 278 278 279 280 279 279 280 281 281 282 283 283 284 284 285 285 285 285 285 286
284 284 282 282 282 281 281 281 280 280 280 279 279 279 279 278 277 277 277 277 277 277 278 278 279 280 280 280 280 280 281 282 283 284 284 285 285 286 286 285 286 286 287
283 282 282 282 281 280 280 280 279 279 279 279 279 278 278 277 277 277 277 277 277 278 278 279 280 281 281 281 281 282 282 283 284 284 285 286 286 286 286 286 287 287 287
281 281 281 280 280 279 279 279 279 279 279 278 278 278 277 277 277 277 277 277 278 279 279 280 282 282 282 282 283 284 284 285 285 286 287 287 287 287 287 286 287 287 288
281 281 280 280 280 279 279 279 279 279 279 278 277 277 276 277 277 277 278 278 279 279 280 282 282 283 282 284 284 285 286 286 287 287 287 288 287 286 287 287 286 288 288
280 280 280 280 279 279 279 278 278 278 278 277 276 277 277 277 277 278 278 279 279 279 281 282 283 283 284 285 285 287 287 287 287 288 288 288 287 287 287 287 287 288 288

GFSGL_850_thetae_027.txt.gz
Theta_e
308 308 308 309 308 307 307 306 304 300 296 293 292 292 292 292 292 291 290 289 288 288 287 287 287 286 285 286 286 287 288 288 288 287 287 287 287 287 287 287 288 287 287
307 308 308 307 306 306 306 303 299 296 293 291 291 291 292 292 290 289 288 288 287 287 287 287 286 285 286 287 287 287 287 287 287 287 288 288 287 287 287 287 287 287 287
306 307 306 306 305 305 303 299 296 292 291 291 291 291 291 290 289 288 287 287 287 287 287 287 286 285 286 286 287 287 287 287 288 288 287 287 287 287 287 287 287 285 286
306 305 305 305 305 303 300 296 293 291 291 291 291 291 289 289 288 287 287 287 287 287 287 286 285 285 286 286 287 287 287 287 287 287 287 288 287 287 286 285 284 284 284
304 304 304 304 303 301 297 293 291 290 291 291 290 289 288 288 287 286 287 287 287 287 286 286 285 285 286 286 287 286 286 286 287 288 287 287 286 284 284 284 284 284 284
303 304 304 302 301 298 293 291 290 291 291 290 289 288 288 286 285 286 287 287 287 286 286 286 285 285 285 286 285 286 287 287 286 287 287 286 284 284 284 283 284 285 285
303 303 302 300 298 293 290 290 291 291 290 289 288 287 286 285 285 286 286 287 287 286 286 285 285 285 285 285 285 286 286 286 286 285 285 284 284 283 284 285 284 283 283
302 301 300 298 294 290 290 290 291 290 289 288 287 286 285 285 284 285 286 286 286 286 285 285 285 285 284 285 285 285 286 285 284 284 283 284 284 285 284 283 283 283 283
301 299 298 295 290 290 290 291 290 289 288 287 286 286 284 284 284 285 286 286 285 285 285 284 285 284 284 285 285 286 284 283 282 283 284 284 283 282 282 283 282 282 282
299 298 295 290 289 290 291 290 289 288 287 286 286 284 284 284 283 284 285 285 285 284 284 284 283 283 284 285 285 284 282 282 283 283 282 281 281 281 281 281 281 281 281
297 295 290 289 290 291 290 290 289 287 287 285 285 284 284 284 283 284 284 284 284 285 284 283 283 283 285 284 284 282 282 283 282 281 280 280 281 281 280 281 281 281 281
295 290 289 290 290 290 290 289 288 286 285 285 284 284 284 284 283 283 284 284 285 284 284 283 283 284 283 282 281 282 282 282 280 280 280 280 280 280 281 282 282 283 283
291 289 289 290 290 290 289 288 286 285 284 284 284 284 284 283 283 283 284 285 284 284 283 283 282 282 281 280 280 281 281 279 280 280 280 280 280 281 281 282 283 283 283
289 289 289 290 291 290 288 286 286 284 283 284 284 284 283 283 283 283 284 284 283 283 283 282 281 280 279 279 280 280 279 279 280 280 280 280 281 281 281 282 282 283 283
288 289 289 290 290 289 287 286 284 283 283 283 283 283 283 283 283 284 284 283 283 283 282 281 279 279 279 279 279 279 279 279 279 279 280 281 281 281 282 282 282 283 283
289 289 289 289 289 287 286 286 284 283 282 282 282 283 283 283 283 283 283 283 282 281 280 279 278 278 278 279 279 279 279 279 279 280 281 281 281 282 282 282 283 283 283
288 288 289 289 288 286 285 283 282 282 282 281 281 282 282 282 282 282 282 282 280 280 278 278 278 278 278 279 279 278 278 279 280 281 281 281 282 282 282 283 284 284 284
288 287 288 288 286 285 283 282 282 281 281 281 280 281 281 281 281 282 281 280 279 278 278 278 278 278 278 279 278 278 279 280 281 281 282 283 283 283 283 283 284 284 285
287 288 288 286 285 283 282 282 281 281 281 280 280 280 280 280 281 280 279 278 277 277 278 278 278 278 279 279 279 279 280 280 280 282 283 284 284 283 283 284 285 285 285
288 288 286 285 283 282 282 281 281 280 280 280 280 279 279 280 280 279 278 277 277 278 278 278 278 279 280 279 280 280 280 282 283 283 284 285 285 284 284 285 285 285 286
288 286 285 283 282 282 281 280 280 280 280 279 279 279 280 280 279 278 277 277 278 278 278 278 279 280 280 281 281 281 282 283 284 284 285 285 285 285 286 286 286 286 286
286 284 282 282 281 281 280 280 280 280 279 279 279 279 279 279 277 277 277 278 278 278 278 279 280 281 281 281 282 282 283 284 285 285 286 286 286 286 286 286 287 287 287
284 282 282 281 280 280 280 280 280 279 279 279 279 279 278 277 277 277 278 278 278 279 279 280 281 282 282 283 283 284 284 285 286 286 286 287 286 286 287 286 287 288 288
282 281 281 280 280 280 280 280 279 279 279 279 279 278 277 277 278 278 278 278 279 279 280 281 282 283 283 284 285 285 286 287 287 287 287 287 287 286 287 287 287 288 288
281 281 280 280 280 280 279 279 279 279 279 278 278 277 278 278 278 278 279 279 279 279 281 282 282 283 284 285 286 287 287 287 288 288 288 287 287 287 287 287 287 288 288
280 280 280 280 280 280 279 279 279 279 278 278 278 278 278 278 278 279 279 279 279 280 281 282 283 284 285 286 287 287 288 288 288 288 287 287 287 287 287 288 288 288 288

GFSGL_850_thetae_030.txt.gz
Theta_e
309 309 309 308 308 307 307 306 304 301 297 294 292 292 292 292 291 290 289 288 288 287 287 287 287 286 286 285 285 286 286 286 287 287 286 287 287 287 286 287 287 287 287
307 308 307 307 306 306 306 304 301 297 293 292 291 291 292 291 290 289 288 287 287 287 287 287 287 286 285 285 285 286 286 286 286 287 287 286 286 286 287 287 287 286 285
306 307 306 306 305 306 304 301 298 293 291 291 291 292 290 289 288 288 287 286 286 287 287 287 286 286 285 285 285 286 286 286 286 286 286 286 286 287 286 286 286 284 283
305 305 305 305 305 304 302 298 293 291 291 292 291 290 289 288 287 287 286 286 287 287 286 286 286 286 285 286 286 286 286 286 286 286 286 287 286 286 286 284 283 283 283
304 304 304 304 303 302 298 293 291 291 292 291 290 289 288 287 287 286 286 287 286 286 286 286 286 285 286 286 286 286 285 285 286 286 286 286 286 284 284 283 283 283 284
303 303 304 303 301 298 294 291 291 291 291 290 289 288 287 286 286 285 287 286 286 286 286 286 285 284 284 285 285 285 286 286 285 286 287 284 284 283 283 283 283 284 283
302 303 302 300 298 294 291 290 291 291 290 289 288 287 286 286 285 285 286 286 286 285 285 284 284 284 284 283 284 285 284 285 285 284 283 283 283 283 284 284 283 282 282
302 302 300 298 296 291 290 291 291 290 289 288 287 286 285 285 284 284 284 285 284 284 284 284 284 284 283 284 285 285 285 284 283 282 282 283 284 283 283 282 282 282 282
301 300 299 297 291 290 291 291 290 290 288 287 286 285 285 284 284 283 285 284 284 284 284 285 284 283 283 285 286 284 283 282 282 283 283 283 282 282 282 282 282 281 281
301 299 297 292 290 291 291 291 290 288 287 286 286 285 284 284 283 283 285 284 284 284 285 284 283 283 284 285 284 283 282 281 283 283 282 281 281 282 281 281 281 280 280
298 297 292 289 291 291 291 290 289 287 287 286 285 284 284 283 283 283 284 285 284 285 284 284 283 283 284 283 283 282 281 283 282 281 280 281 281 281 282 281 281 281 280
297 293 289 290 291 291 290 289 288 287 286 285 284 284 283 283 283 283 284 285 285 284 284 283 283 283 282 281 281 281 282 282 280 280 280 280 281 281 282 282 282 282 282
294 289 290 290 290 290 289 288 287 286 285 284 283 283 282 282 282 283 284 284 283 284 283 283 282 281 280 280 280 281 280 280 279 280 280 280 281 282 282 282 282 283 283
289 289 290 289 289 289 289 287 286 285 283 283 282 282 282 282 282 283 283 283 283 283 282 282 281 280 279 280 281 280 280 279 280 279 280 281 281 282 282 282 282 283 283
289 289 289 289 289 290 288 287 285 283 282 282 282 282 282 282 282 283 283 283 283 282 282 280 279 279 279 280 280 280 279 279 279 280 281 281 282 282 283 283 283 283 283
288 288 288 289 289 288 287 286 284 283 282 282 281 281 282 282 282 282 283 283 282 281 280 279 279 278 278 279 279 279 279 280 280 281 281 282 282 282 282 283 284 283 284
288 288 288 289 289 287 285 283 283 282 282 281 281 281 281 281 281 282 282 281 280 279 279 278 278 278 278 279 279 279 280 280 281 281 282 282 282 283 283 284 284 284 285
287 287 288 289 287 285 283 282 282 281 281 281 281 280 280 280 281 281 280 279 280 279 278 278 278 278 279 279 280 280 280 281 282 282 283 284 284 283 284 284 284 285 285
287 288 289 287 285 283 282 282 281 281 281 280 280 280 280 280 280 280 279 279 278 278 278 278 278 279 280 280 281 281 281 282 282 283 284 284 285 285 285 285 285 286 286
287 288 286 285 283 282 282 281 281 280 280 280 280 280 279 280 280 280 279 278 278 278 278 278 279 280 281 281 281 282 282 283 284 284 285 285 286 285 285 286 286 287 286
288 286 284 282 282 281 281 281 280 280 280 280 280 280 279 279 279 279 278 278 278 278 278 279 280 281 281 282 282 283 283 284 285 285 286 286 286 286 286 286 286 287 287
285 284 282 282 281 281 281 280 280 280 280 279 280 280 279 279 279 278 278 278 279 279 279 280 281 282 282 282 283 283 284 286 286 287 287 287 286 286 286 287 287 287 287
283 282 282 281 281 280 280 280 280 279 279 279 279 279 279 279 278 278 278 279 279 279 279 281 282 282 283 284 284 285 286 287 287 287 287 287 286 286 287 287 287 288 287
282 281 281 281 280 280 280 280 279 280 279 279 279 279 278 278 278 279 279 279 279 279 281 282 282 283 284 285 286 287 287 288 287 287 287 287 287 287 287 287 288 288 288
281 281 280 280 280 280 280 280 280 280 280 279 279 279 278 279 279 279 279 279 279 280 282 282 283 284 285 286 287 287 288 287 287 287 287 287 287 287 287 288 288 288 288
281 280 280 280 280 280 280 280 280 279 279 279 279 279 279 279 279 279 279 280 280 281 282 283 284 285 286 287 287 288 287 287 287 287 288 288 287 288 287 287 288 288 288

GFSGL_850_thetae_033.txt.gz
Theta_e
309 308 308 308 308 307 307 307 306 303 299 295 293 292 292 292 292 290 290 289 288 287 287 287 287 286 286 286 286 285 285 285 285 285 285 285 285 285 285 286 286 286 286
308 307 307 307 307 307 307 306 303 300 295 293 292 292 292 292 290 289 289 288 287 287 287 286 286 286 286 286 285 285 285 285 285 285 286 285 285 285 286 286 286 286 286
307 307 307 306 306 306 305 303 300 295 292 291 291 292 291 290 289 289 288 287 287 286 286 286 286 286 286 285 285 285 285 286 286 285 285 285 285 286 285 286 284 284 283
305 306 306 305 305 305 303 300 296 292 291 291 292 291 290 289 289 288 287 287 286 286 286 286 286 285 285 285 285 285 285 285 285 285 285 285 285 285 284 283 283 283 283
304 305 305 304 304 303 301 297 293 291 291 292 291 290 289 289 288 286 286 286 286 286 286 285 284 284 284 285 285 285 284 285 285 285 285 285 283 283 282 282 283 283 283
304 304 303 304 302 300 297 294 291 291 292 291 290 289 289 288 287 286 285 286 285 285 284 284 283 283 284 284 284 284 285 285 286 286 284 283 282 282 282 283 284 283 282
302 302 303 302 300 298 295 291 291 292 292 291 289 288 288 287 286 285 284 286 284 284 284 284 284 284 284 283 284 284 286 285 284 283 282 282 282 283 284 283 282 282 282
301 302 301 300 299 296 291 291 292 292 291 290 289 288 287 286 285 284 284 284 284 284 284 284 285 284 283 284 285 286 284 283 282 282 282 283 284 283 282 282 282 282 282
301 301 300 299 297 291 290 292 292 291 290 289 288 287 285 285 284 283 283 284 284 284 284 285 284 283 283 285 285 284 283 282 282 283 283 282 281 282 282 282 282 281 281
300 300 299 297 292 290 291 291 291 291 289 288 287 285 284 283 283 283 284 284 284 284 285 284 283 283 284 284 284 283 282 282 283 283 282 282 282 282 282 282 281 280 280
300 298 297 292 290 291 291 291 291 290 288 287 285 284 284 283 283 282 284 284 284 285 284 283 282 283 284 283 283 282 281 283 282 281 281 281 281 282 283 282 282 281 281
298 297 293 289 290 291 291 290 289 288 287 285 284 284 284 283 282 282 283 284 285 284 284 283 283 283 282 281 281 281 282 281 281 280 280 280 282 283 283 283 283 283 283
296 293 289 290 290 290 290 290 289 287 285 284 283 283 282 282 282 282 283 284 283 284 283 283 282 281 280 280 281 280 280 280 279 279 280 281 282 283 283 283 284 284 284
294 289 289 289 289 290 290 289 287 285 284 283 282 282 282 282 282 282 283 283 283 283 282 282 280 280 280 280 281 281 280 279 279 280 280 282 283 283 284 283 283 284 284
289 289 289 289 289 289 289 287 286 284 283 282 282 281 281 281 282 283 283 283 283 282 282 280 280 280 280 281 281 281 280 280 280 281 281 282 283 283 284 284 284 284 283
288 289 288 288 289 289 288 287 284 283 282 282 281 281 281 281 282 282 282 283 282 280 280 279 279 279 279 280 280 280 281 281 281 282 282 283 283 283 284 285 285 284 284
288 288 288 288 288 287 286 284 283 284 283 282 281 281 281 280 281 281 282 281 280 279 279 279 279 279 279 280 280 280 281 282 282 282 282 283 283 284 284 285 285 285 285
287 287 287 288 287 285 284 283 282 281 281 281 281 281 280 280 280 281 280 280 280 280 279 279 279 279 280 280 280 281 282 283 283 283 283 284 285 284 285 285 285 286 285
287 287 288 287 285 283 283 282 281 281 281 281 281 280 280 280 280 280 279 279 279 279 279 279 279 280 280 281 281 282 282 283 283 284 285 285 286 285 285 285 286 286 286
286 287 287 285 283 283 282 281 281 281 280 280 280 280 280 279 280 280 279 279 279 279 279 279 280 280 281 281 282 283 284 285 285 285 286 286 286 286 285 285 286 286 286
287 287 285 283 282 282 281 281 280 280 280 280 280 280 279 279 279 279 279 279 279 279 279 279 280 281 282 282 283 284 285 286 286 286 286 286 286 286 286 286 286 287 287
287 285 283 282 282 281 281 280 280 280 280 280 280 280 280 279 279 279 278 279 279 279 279 280 281 282 283 283 284 285 286 286 286 286 286 286 286 286 286 286 287 287 287
284 283 282 281 281 280 280 280 280 280 280 280 280 280 279 279 279 279 279 279 279 279 280 281 282 283 284 285 286 286 286 287 286 286 286 286 286 286 286 287 287 288 288
282 282 281 281 280 280 280 280 280 280 280 279 279 279 279 279 279 279 279 279 279 280 281 282 283 284 285 286 287 287 287 287 286 286 286 287 287 287 287 287 287 288 288
281 281 281 280 280 280 280 280 280 280 279 279 279 278 278 279 279 279 279 279 280 281 282 283 284 285 286 287 287 287 287 287 286 286 287 288 287 287 287 287 287 288 287
281 280 280 280 280 280 280 280 280 279 279 278 278 278 278 279 279 279 279 280 280 282 283 284 285 285 286 287 287 287 287 287 286 286 287 288 288 287 287 287 287 287 286

GFSGL_850_thetae_036.txt.gz
Theta_e
313 310 308 308 307 307 307 307 307 306 303 301 298 294 292 292 292 291 290 290 289 288 288 287 287 286 286 286 286 285 285 285 285 285 285 284 284 284 284 285 285 285 285
311 308 307 307 307 306 307 307 306 304 302 298 294 292 292 292 291 290 290 289 288 288 287 286 286 286 286 285 285 285 285 285 285 285 284 284 284 285 285 285 285 284 283
308 307 306 306 306 306 306 306 304 302 298 294 292 292 292 292 291 290 289 288 287 287 286 286 285 285 284 284 284 284 285 285 285 284 284 284 284 285 285 284 283 282 282
306 305 306 305 306 306 305 304 302 299 295 292 292 292 292 291 290 289 288 287 287 286 285 285 284 284 283 284 285 285 285 284 284 284 284 285 285 284 283 282 282 282 283
305 305 305 305 305 304 303 302 298 295 292 292 293 292 291 290 289 288 287 286 286 285 285 284 284 283 284 285 285 285 284 284 285 286 284 284 283 282 282 282 282 283 283
304 304 304 304 304 303 301 298 294 292 292 293 292 291 290 289 288 287 285 285 285 285 284 284 284 284 284 284 284 284 285 286 285 284 283 282 282 282 283 283 283 282 282
303 303 303 303 302 301 298 294 292 292 293 293 291 290 289 288 287 286 285 284 284 284 284 284 284 284 283 283 283 284 285 285 283 283 282 282 282 283 283 282 282 282 282
302 302 302 302 300 298 295 292 292 292 292 292 291 290 288 287 286 285 284 284 284 284 284 284 284 283 283 284 284 285 284 283 282 282 282 283 283 283 282 282 282 282 282
301 301 301 300 298 295 292 291 292 292 292 291 290 289 287 286 285 284 283 284 284 284 284 284 283 283 283 284 285 284 283 282 282 283 282 282 282 282 282 282 282 281 281
300 300 299 297 295 292 291 292 292 292 291 290 289 287 285 284 284 283 283 284 284 284 284 284 283 283 284 284 284 283 282 281 283 283 282 282 283 283 283 282 281 280 280
299 298 297 295 293 291 291 291 291 291 290 289 287 286 285 284 283 282 282 284 284 284 284 283 283 283 284 283 283 281 281 283 282 281 282 282 283 283 283 283 283 282 281
297 296 295 293 290 291 291 291 291 290 289 287 286 285 284 283 282 282 282 284 284 284 283 283 282 283 282 281 281 281 282 281 281 281 281 282 282 283 284 284 284 284 284
297 296 293 290 290 290 290 290 290 289 287 285 284 283 283 282 282 282 282 283 283 283 283 283 282 281 280 280 281 280 281 281 281 280 281 282 283 284 284 285 285 285 285
296 293 289 289 289 289 290 290 289 288 285 284 283 282 282 282 281 282 283 282 283 283 282 282 281 280 280 280 281 282 282 281 280 280 281 283 283 284 284 284 285 285 285
293 289 289 289 289 289 289 289 288 285 283 282 282 281 281 281 281 283 283 283 283 282 282 280 280 280 280 281 281 282 282 282 281 282 282 283 284 284 285 285 285 285 285
289 289 289 288 288 289 289 288 285 283 283 282 281 281 281 281 281 282 282 282 282 280 280 280 280 279 280 281 281 281 282 282 282 283 283 283 284 284 284 285 285 285 285
288 288 288 288 288 289 287 285 284 284 282 282 281 281 281 281 281 281 282 280 280 280 280 280 279 279 280 281 281 281 282 283 283 284 284 284 284 284 284 285 285 285 286
288 288 288 288 288 287 284 283 282 281 281 282 281 281 281 281 281 281 280 280 280 280 279 279 279 280 281 281 281 282 283 284 284 284 284 284 284 283 284 285 285 285 285
287 287 287 288 286 284 283 282 281 281 281 280 281 281 281 281 280 280 279 279 279 279 279 279 279 280 281 281 282 283 283 284 284 284 285 284 284 284 285 285 285 286 286
287 287 288 286 284 282 282 281 281 281 280 280 280 280 280 280 280 279 280 279 279 279 279 279 280 281 282 282 283 283 284 285 285 285 285 285 285 285 285 286 286 286 286
287 287 285 283 282 282 281 281 280 280 280 280 280 280 279 278 279 279 279 279 279 279 279 280 281 282 282 283 284 285 285 286 286 286 286 286 286 285 285 286 286 287 287
287 284 283 282 282 281 281 280 280 280 280 280 280 280 279 279 279 279 279 279 279 279 279 281 282 283 283 284 285 285 286 286 286 286 286 286 286 286 286 286 287 287 287
284 283 282 281 281 280 280 280 280 280 280 280 279 279 279 279 279 279 279 279 279 280 281 282 283 284 285 286 286 286 286 287 286 286 286 287 286 286 286 286 287 288 287
282 282 281 281 280 280 280 280 280 280 280 279 279 278 278 278 279 279 279 279 280 280 282 283 284 284 285 286 286 287 287 287 287 286 287 287 287 286 286 287 287 287 287
282 281 281 280 280 280 280 280 280 280 279 279 278 278 278 279 279 279 280 280 280 282 283 284 285 285 286 286 287 287 287 286 287 286 287 287 288 286 287 287 287 286 286
281 281 280 280 280 280 280 280 280 279 279 279 279 278 279 279 279 280 280 280 281 283 284 285 285 286 286 287 287 287 287 286 286 286 287 287 287 287 287 287 287 286 286

GFSGL_850_thetae_039.txt.gz
Theta_e
324 322 318 311 307 307 307 308 308 308 307 305 301 297 294 293 293 292 291 291 290 289 288 288 287 286 286 285 285 285 284 284 285 284 285 285 285 285 285 285 285 285 285
320 315 310 307 306 307 307 307 307 306 305 301 298 294 293 293 292 291 291 290 289 288 288 287 286 285 285 284 284 284 284 284 285 284 284 284 285 285 285 285 284 284 283
312 308 306 306 306 306 307 307 305 304 301 298 295 293 293 293 291 291 290 289 288 288 287 286 285 284 284 284 284 284 284 285 284 284 284 285 285 285 285 283 283 283 283
307 306 306 305 305 306 306 305 303 301 298 295 293 293 293 292 291 290 289 288 287 286 285 285 284 284 284 284 285 285 285 285 284 285 285 285 284 284 283 282 283 283 283
306 305 305 305 305 305 304 302 300 298 295 293 293 293 292 291 291 289 288 287 286 285 285 284 284 284 284 285 285 285 284 285 285 285 286 284 283 283 282 282 283 283 283
305 304 304 304 304 303 302 300 297 294 293 293 293 292 292 291 290 288 286 285 285 284 284 284 284 284 284 284 284 284 285 285 286 285 284 283 282 283 282 283 283 283 283
304 304 303 303 303 301 299 297 294 293 293 293 292 292 291 290 288 287 285 284 284 284 284 284 284 284 283 283 283 284 285 285 284 283 283 282 282 283 284 283 282 282 282
302 302 302 302 301 299 297 295 293 292 292 292 292 291 290 288 286 285 284 284 284 283 284 284 284 283 283 284 284 285 284 283 283 282 282 283 283 283 282 282 282 282 282
302 301 301 300 299 297 295 293 292 292 292 292 291 290 288 286 285 284 283 283 283 284 284 284 283 283 283 284 285 284 283 283 282 283 283 282 282 282 282 281 282 281 281
300 300 299 298 297 295 293 292 292 292 292 291 290 288 286 285 284 283 283 283 284 284 284 284 283 283 284 285 284 283 282 281 283 283 282 282 283 284 283 282 282 281 280
299 299 298 297 295 295 291 291 291 291 291 290 289 286 285 284 283 283 282 284 284 284 284 283 283 283 284 283 283 282 281 283 282 282 282 283 283 283 284 284 283 282 282
298 298 297 297 294 291 291 291 290 290 290 288 286 286 285 284 283 282 282 284 284 283 283 283 282 283 282 281 281 281 282 281 281 282 282 283 283 284 284 285 285 285 285
298 297 296 293 290 290 290 290 290 289 288 286 284 284 284 283 282 282 282 283 283 283 283 283 282 281 281 281 281 281 282 282 282 281 281 283 283 284 285 285 285 285 286
297 296 293 290 290 289 289 289 289 287 285 284 283 283 282 282 281 282 282 282 283 283 282 282 281 280 280 281 282 282 282 282 280 281 282 283 284 284 285 284 285 285 285
295 292 289 289 289 289 289 289 288 285 284 282 282 281 281 281 281 282 282 282 283 282 282 280 280 280 280 281 282 282 282 282 282 283 283 283 284 284 285 284 284 284 285
292 289 289 288 288 288 289 288 285 284 283 282 282 281 281 281 281 282 282 282 282 280 280 280 280 280 280 281 281 282 283 283 283 284 284 283 283 283 283 284 284 285 285
288 288 288 287 288 289 288 286 285 285 283 282 281 281 281 281 281 281 282 281 280 280 280 280 280 279 280 281 281 282 283 283 284 284 284 284 283 283 283 284 284 285 285
288 287 287 288 289 287 285 283 283 282 282 282 282 281 281 281 281 280 280 280 280 280 280 280 279 280 281 281 282 282 283 284 285 284 284 284 284 284 284 284 285 285 285
287 287 288 289 287 284 283 282 282 281 281 281 281 281 281 281 281 280 279 279 279 280 280 280 280 281 282 282 282 283 284 285 284 284 285 285 285 284 285 285 285 286 286
287 288 289 286 284 283 282 282 281 281 281 281 281 280 280 280 279 279 279 279 279 279 279 280 281 282 282 283 283 284 285 285 286 285 285 285 286 285 285 285 285 286 286
288 288 285 283 283 282 281 281 280 280 280 280 280 280 279 278 279 279 279 279 279 279 279 280 282 282 283 284 284 285 285 286 286 286 286 286 286 286 285 286 286 286 287
287 284 283 283 282 281 281 280 280 280 280 280 280 279 279 279 279 279 279 279 280 280 280 281 282 283 284 285 285 286 286 286 286 286 286 286 287 286 286 286 287 287 286
284 283 283 282 281 281 280 280 280 280 280 280 279 279 279 279 279 279 279 280 280 280 282 283 283 284 285 285 286 286 286 286 286 287 287 286 287 287 286 286 287 286 286
283 282 282 281 280 280 280 280 280 280 280 279 279 279 279 279 279 279 280 280 280 282 283 284 284 285 286 286 286 286 286 286 286 287 287 286 287 287 287 287 286 286 286
282 282 281 280 280 280 280 280 280 280 279 279 279 279 279 279 279 280 280 280 281 283 284 285 285 286 286 286 287 287 286 286 286 287 286 286 287 287 287 287 286 286 286
281 281 280 280 280 280 280 280 280 279 279 279 279 278 279 279 280 280 280 281 283 284 284 285 286 286 286 287 287 286 287 287 287 286 286 287 287 286 286 287 286 286 286

GFSGL_850_thetae_042.txt.gz
Theta_e
322 325 326 321 316 315 308 306 307 307 307 306 304 300 297 295 294 294 293 292 291 290 289 289 288 287 287 287 287 287 287 287 286 287 287 287 287 287 287 287 287 286 286
323 323 320 318 314 308 305 306 307 306 305 303 301 297 295 294 294 293 292 292 291 289 289 288 287 287 286 286 286 286 286 286 286 286 286 286 286 287 287 286 286 285 285
321 320 318 311 305 305 306 306 306 305 303 301 298 295 294 293 293 293 292 291 289 288 288 287 286 286 286 286 286 286 286 286 286 286 286 286 286 287 287 286 285 285 285
319 315 309 305 305 305 305 305 304 303 301 298 295 294 293 293 293 292 291 289 288 288 287 286 285 285 286 286 286 286 286 286 286 286 286 286 287 286 285 285 285 285 285
312 307 305 304 304 305 305 303 302 300 298 295 294 293 293 293 292 291 289 288 287 287 286 286 286 285 284 285 286 286 286 285 285 285 286 287 286 285 285 284 284 284 285
305 305 305 304 304 304 303 301 299 297 295 294 293 293 293 292 291 289 288 286 287 286 286 286 285 285 285 285 285 285 285 285 286 287 285 285 285 284 284 284 284 285 284
304 304 304 304 303 302 300 299 297 295 293 293 293 293 292 291 290 288 286 285 286 285 285 285 285 285 285 285 285 285 285 285 286 285 285 284 284 284 283 284 284 283 283
303 303 303 302 302 300 298 296 295 293 293 293 292 292 291 290 288 286 285 285 285 286 285 285 285 285 285 285 285 285 285 285 285 284 283 283 283 284 284 283 283 283 283
302 302 302 301 300 298 296 294 293 292 292 292 292 291 290 287 286 285 284 284 285 285 285 285 285 285 285 285 285 285 285 284 284 283 283 284 284 283 283 283 283 282 283
302 301 300 299 298 296 294 293 292 292 291 291 291 289 287 286 285 285 284 284 285 285 285 285 285 285 285 285 285 284 283 283 282 283 284 283 282 282 282 282 282 282 282
300 300 299 297 296 295 292 291 291 291 291 290 290 287 286 285 284 284 283 283 285 285 285 284 285 284 284 284 283 283 282 283 283 283 282 282 283 282 282 282 282 282 282
299 299 297 296 293 292 291 291 290 290 290 290 288 286 285 284 283 283 282 283 284 284 284 284 284 284 283 282 282 281 282 282 282 281 281 282 282 284 284 285 285 285 284
298 297 295 294 292 290 290 290 290 290 289 287 285 285 284 283 283 282 283 284 284 284 283 283 284 283 281 281 281 281 282 281 281 280 280 282 283 284 284 284 285 285 285
297 295 294 292 290 289 289 289 290 289 286 285 284 284 283 283 283 283 283 283 283 283 283 283 282 281 280 280 281 281 281 280 280 280 280 282 283 282 284 283 283 284 284
295 294 291 289 289 289 289 289 289 286 284 283 283 282 282 282 282 282 283 283 283 283 282 281 281 280 280 280 280 280 280 280 280 281 282 283 283 283 284 284 283 283 283
294 290 289 288 288 288 289 288 286 284 283 283 282 281 281 281 281 282 282 282 282 281 280 280 280 280 280 279 279 281 282 283 283 283 284 283 283 283 283 284 284 284 284
289 288 288 288 288 289 288 285 284 284 284 283 282 282 281 281 281 281 281 281 280 280 279 279 279 279 279 279 281 282 283 284 284 284 283 284 283 283 284 284 284 284 285
288 288 288 288 289 286 284 284 284 283 283 282 282 281 281 281 281 281 280 280 280 279 278 278 278 279 280 281 282 283 284 285 285 284 284 284 285 284 284 284 285 285 284
288 288 288 288 286 284 284 284 283 282 281 281 281 281 281 281 281 280 280 279 279 278 278 278 279 281 282 282 283 284 284 285 285 285 285 285 285 285 285 285 285 286 284
287 289 288 285 284 284 283 282 282 281 281 281 280 280 280 280 280 280 280 279 278 279 279 280 281 282 283 283 283 284 285 285 286 286 286 286 286 286 286 286 286 286 286
289 287 285 284 283 283 282 281 281 281 281 281 280 280 280 279 279 279 279 278 279 280 280 281 282 283 283 284 284 285 285 286 286 286 286 286 286 286 287 286 286 286 285
286 284 284 283 283 282 281 281 281 281 280 280 280 280 280 279 279 279 279 279 280 280 281 282 283 284 284 285 285 285 286 286 286 286 286 287 286 287 287 286 286 286 285
284 284 283 283 282 281 281 281 280 280 280 280 280 279 279 279 279 279 280 280 280 281 282 283 284 285 285 286 286 286 286 286 286 287 287 287 286 287 287 286 286 286 286
284 283 282 282 281 281 281 280 280 280 280 280 279 279 279 279 279 280 280 280 281 283 283 284 285 285 286 286 286 286 287 287 287 287 287 287 287 287 287 286 287 286 286
283 282 281 281 280 280 280 280 280 280 280 279 279 279 278 279 279 280 280 281 282 283 284 285 285 286 286 286 286 287 287 287 287 287 287 287 286 286 286 286 286 286 286
282 281 280 280 280 280 280 280 280 280 279 279 279 278 278 279 280 280 281 282 282 283 284 285 286 286 286 286 286 287 287 287 287 287 287 286 286 286 286 286 286 286 286

GFSGL_850_thetae_045.txt.gz
Theta_e
317 315 316 321 325 325 319 311 310 308 306 306 306 305 303 301 298 296 295 295 294 292 291 291 290 289 289 288 288 287 287 287 287 287 288 288 287 287 287 287 287 287 287
311 313 318 323 320 316 309 311 307 305 305 304 304 302 300 298 296 295 294 294 293 291 291 290 289 288 288 287 287 287 287 287 287 287 287 287 287 287 287 287 287 287 286
311 316 319 316 313 310 312 308 305 305 304 303 302 300 298 296 295 294 294 293 291 291 290 289 288 288 287 287 287 287 287 287 287 287 287 287 286 287 287 288 286 286 286
310 313 313 310 311 310 304 304 305 303 303 302 300 297 295 295 294 294 293 291 291 290 289 288 288 287 287 287 286 286 286 286 286 286 286 286 287 287 286 286 286 285 285
312 311 310 308 305 303 304 303 303 302 301 300 297 295 294 294 294 292 291 290 289 288 288 288 287 287 286 286 286 286 286 286 285 285 286 287 287 286 285 285 285 285 284
311 310 305 303 302 303 304 303 302 300 299 298 295 294 294 293 292 292 291 289 287 287 287 287 287 286 286 286 286 286 286 286 286 286 286 286 286 285 284 284 284 284 285
308 305 303 302 303 303 302 301 299 299 297 295 294 293 293 292 292 290 288 287 286 287 286 287 286 286 286 286 285 286 286 285 286 286 286 285 285 284 283 284 285 284 284
304 303 301 302 303 301 301 299 298 297 295 293 293 293 292 292 291 288 287 286 286 286 286 286 286 286 286 286 285 285 285 285 285 285 285 284 284 284 285 285 284 283 283
301 301 301 302 301 300 299 297 298 296 293 293 292 292 292 289 288 286 286 285 285 285 286 286 286 286 285 286 286 285 285 284 284 284 284 284 285 285 284 284 283 283 283
301 300 300 300 300 298 297 302 295 292 292 292 292 291 290 288 286 286 285 284 284 285 285 285 285 285 286 286 285 285 284 283 283 283 283 283 283 283 284 283 283 283 283
300 300 300 299 297 299 300 293 292 291 291 291 291 289 287 286 286 285 284 283 284 285 285 285 284 285 285 285 285 284 283 283 283 283 282 282 283 283 282 283 282 282 282
300 300 299 300 302 296 293 291 291 290 290 290 289 287 286 285 284 284 283 284 285 285 284 284 284 285 285 284 283 282 283 283 282 282 281 282 281 281 283 284 284 284 283
300 300 299 297 294 292 291 290 290 290 290 288 286 286 285 285 284 284 284 284 284 284 284 284 284 284 283 282 281 282 282 281 281 281 281 282 282 283 284 284 284 284 283
299 297 296 294 292 290 290 289 290 290 287 285 285 284 284 283 283 283 282 283 283 283 283 283 283 282 281 281 281 281 281 281 281 282 282 283 283 283 284 284 283 284 282
297 296 294 291 290 289 289 289 289 287 285 285 284 283 282 282 282 282 282 282 283 283 283 282 281 281 281 281 281 281 282 282 282 283 282 283 283 283 284 284 284 283 281
296 293 290 289 289 288 289 289 288 286 285 284 283 282 282 281 281 281 282 282 282 282 281 280 280 280 280 280 281 282 283 283 283 283 283 283 283 283 284 284 284 283 282
293 290 289 288 288 289 289 286 285 285 284 283 282 282 282 282 281 281 282 281 281 280 280 280 280 280 280 280 281 282 283 284 284 284 284 284 284 284 284 285 285 284 284
289 288 288 288 290 288 286 285 284 283 282 282 281 281 281 282 281 281 281 280 280 280 279 279 279 279 281 282 282 282 283 284 285 285 285 285 285 285 285 285 285 284 284
288 288 289 290 287 285 285 284 283 282 282 281 281 282 281 281 281 280 280 279 279 279 279 279 280 281 282 282 283 283 284 285 285 285 285 285 286 285 286 286 286 285 284
288 289 289 286 285 284 283 283 282 281 281 281 281 281 280 280 280 280 280 280 279 279 279 280 282 282 283 283 284 284 285 285 286 286 286 286 286 286 286 286 286 286 286
290 288 286 285 284 283 283 282 281 281 281 281 281 280 280 280 279 279 280 279 279 280 280 282 283 283 284 284 284 285 285 286 286 286 286 287 286 286 287 286 286 286 286
287 285 284 284 283 282 282 281 281 281 281 280 280 280 280 280 279 279 280 280 280 281 282 282 283 284 284 285 285 285 286 286 286 287 287 287 287 287 287 286 286 286 286
285 284 284 283 282 282 281 281 281 280 280 280 280 280 279 279 279 279 280 280 281 282 282 283 284 285 285 285 285 286 286 287 287 287 287 287 286 286 286 286 286 286 285
284 284 283 282 282 281 281 281 280 280 280 280 280 279 279 279 279 280 280 281 281 282 283 284 285 285 285 286 286 286 287 287 286 286 286 286 286 286 286 286 286 286 286
283 283 282 281 281 281 281 280 280 280 280 280 279 279 279 278 279 280 280 281 282 283 284 284 285 285 286 286 286 287 287 287 287 286 286 286 286 286 286 286 286 286 286
282 282 281 281 280 280 280 280 280 280 279 279 279 279 279 278 279 280 281 281 282 283 284 285 285 286 286 286 286 287 287 287 287 287 287 287 287 286 286 286 286 286 286

GFSGL_850_thetae_048.txt.gz
Theta_e
324 324 325 326 323 322 325 322 320 313 310 308 308 307 305 304 303 300 297 296 295 295 294 293 293 291 290 289 289 288 287 287 287 287 287 287 287 287 286 287 286 287 287
323 323 324 321 320 322 322 317 310 308 306 307 305 305 302 302 300 298 296 295 295 294 293 292 291 290 289 288 288 287 287 287 286 287 287 287 286 286 285 286 287 286 285
320 321 317 316 318 316 312 309 308 307 306 304 304 303 302 300 297 296 295 294 294 293 292 291 290 289 288 288 287 287 286 286 286 286 286 285 285 285 286 286 285 285 285
316 313 312 311 311 310 306 306 307 306 305 304 301 301 300 298 296 295 294 294 293 292 290 289 288 288 288 287 287 287 287 286 286 286 286 286 285 286 285 285 285 285 284
310 308 305 305 306 305 305 305 306 303 302 300 301 300 297 296 295 294 293 293 291 289 288 288 288 287 287 287 287 287 287 287 286 286 286 285 286 285 285 285 285 284 284
304 301 301 303 305 305 305 303 302 301 301 301 300 297 295 294 294 293 293 291 289 288 288 287 287 286 286 287 287 287 287 286 286 285 286 286 286 285 285 284 284 284 284
299 299 302 303 302 302 302 302 300 300 301 300 297 294 294 294 293 292 291 289 288 287 286 286 286 286 286 286 286 286 286 286 286 285 285 284 284 284 284 284 285 285 284
297 298 299 300 301 300 300 300 300 300 300 296 294 294 293 293 292 290 288 288 287 286 285 285 286 286 286 286 286 286 286 285 285 284 284 284 284 284 285 285 285 284 284
296 298 300 302 300 298 299 300 300 300 297 295 293 292 292 291 290 289 287 287 286 284 284 284 285 285 285 286 286 286 285 285 284 283 283 284 284 284 284 284 283 283 283
300 300 301 301 301 301 299 302 301 297 293 292 292 292 291 289 288 287 287 286 284 284 284 284 284 285 285 286 286 286 285 284 283 283 283 283 284 283 284 283 283 282 282
304 305 302 299 296 299 304 300 295 292 292 291 292 291 288 287 287 286 285 284 284 285 285 284 284 284 285 285 285 284 284 284 284 283 283 283 284 284 284 284 283 281 281
301 297 296 297 303 303 295 292 291 291 291 291 290 288 287 286 285 284 285 285 285 285 284 284 283 284 285 284 284 283 283 284 283 282 282 283 283 284 284 284 284 284 284
298 302 302 302 296 293 291 291 291 290 291 289 287 286 286 285 283 283 283 283 282 283 283 283 284 283 282 282 281 282 282 282 282 282 282 284 284 284 284 285 285 285 285
300 299 297 295 292 291 290 290 290 291 289 286 286 285 284 283 282 282 282 282 282 283 283 283 282 281 281 281 281 282 282 283 282 283 283 284 284 284 285 284 284 285 284
298 296 295 292 290 290 289 290 290 288 286 286 285 284 283 282 282 282 282 282 283 283 283 282 281 281 281 281 282 283 283 283 284 284 284 284 284 284 285 285 285 284 283
297 295 292 290 290 289 290 291 288 286 286 285 284 283 282 282 282 282 282 283 282 282 281 280 280 280 280 281 282 283 283 284 284 284 284 284 284 284 284 285 285 285 284
296 292 290 289 289 290 290 287 286 285 284 283 282 282 281 282 281 281 282 282 281 280 280 280 280 280 281 282 282 283 283 284 284 284 284 284 284 284 285 285 285 284 285
291 290 289 289 290 289 286 285 285 284 284 282 282 281 281 281 281 281 281 280 281 280 280 280 280 281 282 282 283 283 284 285 285 285 285 285 285 285 285 285 285 284 284
289 289 289 290 288 286 285 285 284 283 282 282 281 282 281 281 281 280 280 280 280 280 280 280 282 282 283 283 283 284 284 285 285 285 286 286 286 285 285 286 285 285 284
289 290 290 287 286 285 284 283 282 282 282 281 281 281 281 281 280 280 280 280 280 280 280 282 282 283 283 284 284 284 285 285 286 286 286 286 286 286 286 285 286 286 286
290 289 286 285 285 284 283 282 282 281 281 281 281 280 280 280 279 279 279 280 280 281 282 282 283 284 284 284 284 285 285 286 286 286 286 286 286 286 286 286 286 286 286
287 286 285 285 284 283 282 281 281 281 281 281 280 280 280 279 279 279 280 280 281 281 282 283 283 284 284 285 285 285 286 286 287 287 286 286 286 286 286 286 286 286 285
286 285 285 284 283 282 281 281 281 281 280 280 280 280 279 279 279 279 280 280 281 282 283 283 284 285 285 285 285 286 286 287 287 287 286 286 286 286 286 286 286 285 285
285 284 284 283 282 281 281 281 280 280 280 279 279 279 279 279 279 279 280 281 282 282 283 284 284 285 285 286 286 286 287 287 287 287 287 286 287 286 286 286 285 285 285
284 284 283 282 281 281 281 280 280 280 279 279 279 279 279 279 279 279 280 281 282 283 284 284 285 285 286 286 286 287 287 287 288 287 288 287 287 286 286 286 286 286 287
284 283 282 281 281 281 280 280 280 280 279 279 279 279 279 278 279 280 281 282 282 283 284 285 285 286 286 286 286 287 288 288 288 288 288 288 287 286 286 286 286 287 287

GFSGL_850_thetae_051.txt.gz
Theta_e
325 326 326 327 329 328 324 322 322 322 319 316 313 311 306 304 302 304 302 298 297 296 295 294 293 293 292 291 290 289 288 287 287 287 286 286 286 285 285 285 285 285 285
323 325 325 326 326 324 324 321 322 318 314 312 306 305 304 306 303 305 305 298 296 295 294 293 292 291 290 289 288 288 287 287 286 286 286 286 285 286 285 285 285 285 285
322 323 324 324 323 322 321 320 315 313 309 306 305 304 301 301 301 298 296 295 294 294 293 292 291 290 289 288 288 287 287 287 287 286 286 286 286 285 285 285 285 284 284
322 321 321 320 318 318 317 312 311 307 304 302 301 301 301 299 297 296 295 294 293 293 291 290 289 288 288 287 287 287 287 287 287 286 286 286 285 285 285 285 284 284 284
320 319 318 314 311 311 308 306 306 305 302 303 304 307 307 298 294 294 294 293 293 291 290 288 288 287 287 286 287 287 287 287 286 286 286 285 285 285 284 284 284 284 284
315 314 312 308 307 305 302 302 301 302 303 304 302 302 297 293 294 294 293 292 291 289 289 288 287 286 286 286 286 286 287 287 287 286 286 285 285 284 283 284 283 284 285
307 306 302 301 299 298 300 301 300 301 302 299 297 295 294 294 293 293 292 290 289 288 287 286 285 285 285 285 285 286 286 286 286 286 285 284 284 283 283 284 285 285 284
298 297 296 296 299 300 299 300 301 301 303 297 294 296 293 293 293 292 290 288 287 286 285 285 284 284 284 285 286 286 286 286 285 285 284 284 284 284 285 284 284 283 283
293 294 298 299 296 298 298 299 297 297 297 296 294 293 292 292 291 289 289 287 286 285 285 284 284 284 284 286 286 286 286 285 284 284 283 284 284 283 283 283 283 283 283
296 298 296 299 298 297 297 300 300 295 295 294 292 292 292 289 288 287 286 286 285 284 284 284 283 284 285 285 286 286 285 284 283 284 284 284 284 284 284 284 283 282 282
298 300 300 301 301 300 300 296 296 294 292 291 291 291 288 288 287 286 284 285 285 285 284 283 283 283 285 285 285 284 284 284 284 284 283 284 285 285 285 285 284 283 282
300 299 300 300 299 296 296 293 291 291 291 291 290 288 287 286 285 284 283 283 283 283 283 283 283 284 284 283 283 282 283 283 283 283 284 284 284 285 285 285 285 284 284
298 294 296 298 297 292 291 291 291 291 291 289 287 286 285 284 283 283 282 283 283 283 283 283 283 282 281 281 281 282 282 283 283 283 284 284 284 285 285 285 285 285 285
300 300 298 293 292 290 290 290 291 290 287 286 286 285 284 283 283 283 283 283 283 283 283 283 282 281 281 281 282 283 283 283 283 283 284 284 285 285 285 285 285 285 285
298 294 293 292 290 290 290 290 289 287 286 286 285 284 284 283 283 282 282 283 283 283 282 282 281 281 282 283 283 283 284 284 284 284 285 285 285 285 285 285 285 284 283
295 293 291 289 289 289 290 288 286 286 286 285 284 283 283 282 282 282 282 283 282 281 281 280 281 281 282 283 283 284 284 284 284 285 285 285 285 285 284 285 284 284 284
294 291 289 289 289 290 288 287 286 285 284 283 282 282 282 282 281 281 281 281 281 280 280 280 281 282 283 283 283 284 284 285 285 285 285 285 285 284 284 284 284 284 284
290 289 289 290 290 288 287 286 285 285 284 283 282 282 281 281 281 280 280 280 281 281 280 281 282 283 283 283 284 284 284 285 285 286 285 285 285 284 284 284 284 285 284
289 289 290 290 288 287 286 285 284 283 282 282 282 281 281 281 281 280 280 280 280 280 281 282 282 283 283 284 284 284 285 285 286 286 286 286 285 285 285 285 285 285 285
290 291 289 287 286 286 285 284 283 282 282 281 281 281 280 280 280 280 280 280 280 281 282 282 283 283 284 284 284 285 285 286 286 286 286 286 286 285 285 285 285 285 285
291 289 287 286 286 285 284 282 282 281 281 281 280 280 280 280 279 279 279 280 280 281 282 283 283 284 284 285 285 285 285 286 286 287 287 287 286 286 286 285 285 285 285
288 287 286 285 285 283 283 282 281 281 281 280 280 280 280 279 279 279 279 280 281 282 282 283 284 284 284 285 285 285 286 286 287 287 287 287 286 286 286 285 285 285 285
287 286 285 285 284 282 282 281 281 280 280 280 280 280 279 279 279 279 280 280 281 282 283 283 284 285 285 285 285 286 286 287 287 287 286 286 286 286 286 286 286 286 286
286 285 285 284 283 282 281 281 280 280 280 280 280 279 279 279 279 279 280 281 282 283 283 284 285 285 285 285 286 286 287 287 288 287 286 286 287 286 286 286 286 286 287
285 285 284 282 282 282 281 281 281 280 280 279 279 279 279 279 279 280 281 282 282 283 284 285 285 285 285 286 286 286 287 287 288 288 287 286 286 286 286 286 286 287 287
285 284 283 282 281 281 281 281 280 280 280 279 279 279 279 279 280 281 282 282 283 284 285 285 285 285 285 286 286 287 287 287 287 287 287 287 286 286 286 286 286 286 287

GFSGL_850_thetae_054.txt.gz
Theta_e
314 314 313 315 323 326 325 325 326 325 325 323 322 319 312 309 306 304 303 300 298 297 299 299 296 294 293 292 291 290 289 288 288 287 287 287 286 286 286 286 285 285 285
314 314 314 324 327 327 324 325 325 325 322 320 318 311 307 305 306 302 299 300 304 298 295 294 294 293 292 291 290 289 288 287 287 287 287 286 286 286 285 285 284 284 284
316 317 321 325 326 325 324 323 322 320 319 312 309 306 305 302 300 302 301 296 294 296 297 293 292 291 290 289 288 288 287 287 287 287 286 286 286 285 285 284 284 283 284
319 320 322 322 323 323 321 320 318 315 310 306 304 301 301 298 297 299 300 301 301 296 292 291 289 289 288 288 287 287 287 287 287 286 286 286 286 285 284 284 283 283 284
318 319 320 319 319 316 317 313 310 305 304 303 302 297 295 299 305 306 307 300 294 292 290 288 288 288 287 286 286 287 287 286 286 287 287 286 286 285 284 283 283 284 284
308 308 310 310 309 307 307 304 303 300 299 298 301 301 302 302 302 297 294 293 291 289 288 288 287 287 286 285 285 285 287 287 287 286 286 286 285 284 283 283 284 284 284
302 301 301 302 305 302 301 299 299 299 301 301 299 300 296 296 297 293 291 290 288 288 288 287 286 285 285 284 284 285 286 286 286 286 285 285 284 283 284 284 284 284 283
299 298 297 301 299 298 299 299 300 300 298 296 298 300 300 294 291 291 290 288 288 287 286 285 285 284 284 284 285 286 286 285 285 285 284 284 284 284 285 284 283 283 283
296 295 296 297 297 298 300 300 298 297 298 299 298 293 290 291 291 289 289 288 287 286 285 285 284 283 283 285 286 286 286 285 284 284 284 284 284 284 283 283 284 283 283
294 295 297 300 300 301 301 298 300 299 299 296 290 290 291 290 288 287 286 286 286 286 285 284 283 283 284 285 286 285 284 284 283 284 284 284 284 284 284 284 284 283 283
299 300 300 299 300 299 299 299 300 296 290 289 290 290 289 287 287 286 285 284 284 283 283 283 283 283 284 285 284 283 283 284 284 283 283 284 285 285 285 285 285 284 283
299 299 300 299 299 299 299 295 290 289 289 290 289 288 287 286 285 284 284 283 283 283 283 283 284 284 283 282 282 281 282 282 283 283 284 284 285 285 285 285 285 284 284
299 299 299 300 298 292 290 290 290 290 290 289 287 287 286 285 284 283 283 283 283 283 283 283 283 282 281 281 281 282 283 283 284 284 284 285 285 285 285 285 285 285 285
300 300 299 292 290 290 289 289 290 289 287 286 286 286 285 284 283 283 283 283 283 283 283 282 281 281 281 281 283 284 284 284 284 284 284 285 285 285 285 285 285 284 284
299 293 290 289 289 289 289 289 288 287 287 287 286 284 283 283 283 283 283 283 283 282 282 281 281 281 282 284 284 284 284 284 284 285 285 285 285 285 285 285 284 284 284
293 292 290 289 289 289 290 289 288 287 286 285 284 283 282 282 282 282 282 282 281 280 281 280 281 282 283 284 284 284 284 285 285 285 285 285 285 285 285 285 284 284 284
294 291 290 289 290 290 288 286 285 285 284 283 282 282 281 281 281 281 281 281 280 280 280 281 282 283 283 284 284 284 285 285 285 286 286 286 286 285 285 285 285 284 285
291 289 289 290 289 287 286 286 285 284 283 283 282 282 281 281 281 281 280 280 280 280 281 282 282 283 283 284 284 284 285 285 286 286 286 286 286 285 285 285 285 285 285
289 289 290 288 286 286 285 285 284 283 283 282 282 281 281 281 280 280 279 279 280 280 281 282 283 283 284 284 284 285 285 285 286 286 286 286 286 286 286 285 285 285 285
289 290 288 286 286 285 285 284 283 282 282 281 281 281 281 281 280 280 279 279 280 281 282 282 283 283 284 284 284 285 285 286 286 286 287 286 286 286 285 285 285 285 285
290 288 286 286 286 285 284 283 282 282 281 281 281 280 280 280 279 279 279 280 280 281 282 283 283 284 284 284 285 285 285 286 286 287 287 286 286 285 285 286 286 285 285
288 287 286 286 285 284 283 282 282 281 281 281 280 280 280 279 279 279 279 280 281 282 282 283 284 284 284 284 284 285 286 286 287 287 287 286 286 286 285 285 286 286 286
287 286 286 285 284 283 282 282 281 281 281 280 280 280 280 279 279 279 280 281 282 283 283 284 284 285 285 285 285 286 286 286 287 287 287 287 286 286 286 285 285 285 286
286 286 286 284 283 282 282 282 281 281 280 280 280 279 279 279 279 280 280 282 283 283 284 285 285 285 285 285 286 286 287 287 287 287 287 287 287 286 286 286 285 285 286
286 286 285 283 283 282 282 282 281 281 280 280 280 280 279 279 280 280 282 283 283 284 285 285 285 285 285 286 286 286 287 287 287 287 286 287 287 287 287 287 286 286 287
286 285 283 283 282 282 282 281 281 281 281 280 280 280 280 280 280 281 283 283 284 285 285 285 286 286 286 286 286 286 287 286 287 287 286 286 286 286 286 286 287 286 286

GFSGL_850_thetae_057.txt.gz
Theta_e
311 311 311 311 313 313 313 316 324 324 325 324 325 323 322 320 315 312 308 305 303 300 300 303 298 301 295 294 293 292 291 290 288 288 288 288 287 287 287 286 286 286 285
310 310 313 314 314 314 315 321 324 325 324 323 322 321 318 312 309 306 303 302 303 305 304 300 299 296 295 294 291 290 289 288 288 287 287 287 286 286 286 286 285 285 284
311 313 316 316 316 317 320 321 322 321 321 321 320 315 307 305 301 300 302 302 303 301 299 303 302 295 293 291 290 289 288 287 287 287 287 286 286 286 286 285 284 284 284
315 317 318 318 319 320 319 319 318 319 320 317 311 307 303 300 300 300 301 298 297 300 299 300 297 294 290 289 288 287 287 287 287 286 286 287 286 286 285 285 284 283 284
313 315 315 316 315 315 314 315 314 313 312 308 304 299 299 299 298 297 298 302 301 296 292 292 290 289 289 288 287 286 287 287 286 286 287 286 286 285 285 284 283 284 284
310 309 309 309 308 310 310 309 308 307 302 299 299 300 299 300 301 301 300 297 293 290 289 290 289 288 287 286 285 285 285 286 287 286 286 286 285 285 284 283 284 284 284
307 305 302 301 303 301 301 300 299 298 298 299 301 299 301 301 301 300 297 293 291 290 289 289 287 286 285 285 284 284 285 285 286 286 285 285 284 284 284 284 285 284 283
302 301 300 299 299 299 298 298 298 299 299 300 300 300 300 299 295 292 291 289 289 288 287 286 285 285 284 283 284 285 285 285 285 285 284 284 284 284 285 284 284 283 283
303 303 302 300 299 298 299 300 300 300 300 301 300 300 296 290 290 290 289 288 287 286 286 285 284 283 283 284 285 285 285 285 284 283 283 284 284 284 283 283 284 283 284
298 298 298 297 299 299 300 300 300 299 300 301 297 289 289 289 288 288 286 286 286 285 284 283 283 283 283 285 286 285 284 283 283 283 284 284 284 284 284 284 284 283 283
295 296 297 298 298 300 300 299 299 299 295 290 289 289 289 287 286 286 285 284 284 284 283 283 284 283 284 284 283 283 282 283 283 283 284 284 285 285 285 285 285 284 284
297 298 298 298 298 299 299 297 291 290 290 289 289 288 287 286 285 284 283 283 283 283 283 283 283 283 282 282 281 281 282 283 284 284 284 285 285 285 286 286 285 285 285
298 299 298 298 297 292 290 290 290 290 289 288 287 286 285 285 284 284 284 283 283 283 283 283 282 281 281 281 282 283 284 284 284 284 285 285 285 285 286 285 285 285 285
299 298 297 292 290 290 289 289 289 288 287 286 286 286 285 285 284 283 283 283 283 283 282 282 281 281 281 282 284 284 284 284 284 284 285 285 286 286 286 285 285 285 284
297 293 291 290 289 289 289 289 289 288 287 287 286 284 284 283 283 282 282 282 282 282 282 281 281 281 283 284 284 284 284 285 285 285 285 286 286 286 286 285 285 285 284
293 291 290 289 289 289 290 288 287 287 286 285 284 284 283 282 282 281 282 281 281 281 281 281 281 283 283 284 284 284 285 285 285 285 286 286 286 286 286 286 285 285 285
293 290 289 289 289 289 288 287 286 286 285 283 282 282 281 281 281 281 281 281 280 280 280 281 282 283 283 284 284 284 285 285 285 286 286 286 286 285 285 286 285 285 285
291 289 289 289 290 288 287 286 285 284 283 282 282 282 281 281 281 281 281 281 280 280 280 282 283 283 283 284 284 285 285 285 286 286 286 286 286 285 285 285 285 285 285
290 289 290 290 288 287 286 285 284 283 283 282 282 281 281 281 280 280 280 280 280 280 281 282 283 283 284 284 284 285 285 285 286 286 286 286 286 285 285 285 285 285 285
289 290 290 288 287 286 285 285 283 282 282 282 281 281 281 281 280 280 280 279 280 280 282 283 283 284 284 284 285 285 285 286 286 286 286 286 286 286 286 286 285 285 285
289 290 288 287 286 285 284 283 283 282 282 281 281 280 280 280 280 280 279 279 280 281 282 283 284 284 284 285 285 285 286 286 286 286 286 286 286 286 286 286 286 285 285
289 288 287 286 285 284 283 283 282 282 281 281 280 280 280 280 279 279 279 280 281 282 283 283 284 285 285 285 285 285 286 286 286 286 286 286 286 286 286 286 286 286 286
288 287 286 285 285 283 283 282 282 282 281 281 281 280 280 280 280 280 280 281 282 283 283 284 285 285 285 285 285 286 286 286 286 286 287 286 286 286 286 286 286 286 286
287 286 286 285 284 283 282 282 282 281 281 281 280 280 280 280 280 280 281 282 283 283 284 284 285 285 285 286 286 286 286 286 286 286 287 286 286 286 286 286 286 286 286
286 286 285 284 283 283 282 282 282 281 281 281 280 280 280 280 281 281 282 283 283 284 285 285 285 286 286 286 286 286 286 286 286 286 286 286 286 286 287 286 286 286 286
286 286 285 283 283 282 282 282 282 281 281 281 281 281 281 281 281 281 283 284 284 285 285 286 286 286 286 286 286 286 286 286 286 286 286 286 286 287 287 287 287 287 286

GFSGL_850_thetae_060.txt.gz
Theta_e
311 310 310 310 310 310 311 312 313 313 317 324 325 325 325 323 322 320 317 311 304 302 301 301 298 298 298 300 299 295 294 293 291 290 289 289 288 288 287 287 286 286 286
310 310 310 310 311 314 314 314 316 317 319 325 324 321 320 320 319 313 308 302 301 302 300 298 300 303 301 297 296 294 291 290 289 288 288 287 287 287 286 286 286 286 285
310 310 311 312 316 316 316 316 317 317 320 320 319 319 318 316 311 305 303 302 299 298 299 302 301 301 299 296 294 292 289 288 288 287 287 287 286 286 286 286 285 285 284
311 311 312 314 314 314 316 316 315 315 317 316 316 314 310 306 303 301 298 298 300 301 300 300 302 301 296 293 288 288 287 287 287 286 286 286 286 286 285 285 284 284 284
311 311 313 313 312 312 313 312 311 309 311 311 311 306 302 300 300 301 301 298 298 300 300 300 299 291 288 288 287 286 286 285 285 285 286 286 286 285 285 284 283 284 285
310 310 310 310 309 308 309 309 307 303 301 302 302 303 302 299 298 297 297 300 300 301 296 289 288 287 287 286 285 285 285 285 285 286 286 286 285 285 284 283 284 284 284
303 304 304 305 306 305 302 300 301 301 302 300 298 298 299 299 299 300 300 301 299 290 289 288 287 286 286 286 285 285 284 285 285 285 285 285 284 283 283 284 284 284 283
299 299 301 301 302 301 298 297 296 295 297 298 299 299 299 300 300 300 294 290 289 288 288 287 286 286 285 284 284 285 285 285 285 285 284 283 283 284 284 284 283 283 283
298 298 298 300 301 300 298 297 298 299 299 299 300 300 299 298 294 290 288 288 287 287 286 286 284 284 284 284 285 285 285 285 283 283 283 283 284 284 284 284 284 284 284
298 299 299 298 299 298 298 298 298 298 299 299 299 294 290 290 288 288 289 287 286 286 285 284 283 283 284 285 285 284 283 282 282 284 285 285 285 285 285 285 284 284 284
295 296 296 298 298 298 299 298 298 298 298 294 290 289 288 287 287 287 286 285 284 284 283 283 284 283 284 283 283 282 281 283 283 284 284 285 285 285 286 286 285 285 284
297 297 298 298 298 298 298 297 293 290 289 289 288 288 287 286 285 284 284 283 283 283 283 283 283 282 282 281 281 282 282 283 284 284 284 285 285 286 286 286 286 285 285
298 298 298 298 296 291 290 290 290 289 289 288 287 287 286 285 284 284 284 283 283 283 283 282 282 282 281 281 283 284 284 284 284 285 285 285 286 286 286 286 286 286 286
298 298 294 290 289 289 289 290 289 288 287 286 286 285 285 284 284 284 283 283 283 282 282 281 281 281 281 283 284 284 284 284 284 285 285 285 286 286 286 286 286 286 286
296 291 290 289 289 289 289 289 287 287 286 286 285 285 284 283 283 282 282 282 282 281 281 281 281 281 283 284 284 284 285 285 285 285 285 286 286 286 286 286 286 285 285
292 290 289 289 289 289 289 288 287 287 286 285 285 284 283 282 282 281 281 281 281 280 280 281 281 283 284 284 284 285 285 285 285 285 286 286 286 286 286 286 285 285 285
291 290 289 289 290 289 287 286 286 286 285 284 283 282 282 281 281 281 281 281 280 280 280 281 282 283 284 284 284 284 285 285 285 286 286 286 286 286 285 286 286 285 285
290 289 289 289 289 287 287 286 285 284 284 283 282 282 281 281 281 281 280 280 280 280 280 281 283 283 284 284 284 285 285 285 285 286 286 285 285 284 286 286 286 286 286
289 289 289 290 288 287 286 286 285 284 283 282 282 281 281 281 280 280 280 280 280 280 281 282 283 283 284 284 285 285 285 285 286 286 286 286 285 284 285 286 286 286 286
289 289 290 288 287 286 286 285 284 283 282 282 282 281 280 281 280 280 280 280 280 281 282 283 284 284 284 285 285 285 285 286 286 286 286 285 285 285 285 285 285 285 286
289 290 289 287 287 286 285 284 283 283 282 282 281 281 280 280 280 280 279 280 280 282 283 284 284 285 285 285 285 285 286 286 286 286 286 285 285 285 285 285 286 286 286
290 290 288 287 286 285 284 283 283 282 282 282 281 281 280 280 280 280 280 280 281 283 283 284 285 285 285 285 285 286 286 286 286 286 286 285 286 286 285 286 286 286 286
290 288 287 286 285 284 283 283 283 282 282 282 281 281 280 280 280 280 281 281 282 283 283 284 285 285 285 286 286 286 286 286 286 286 286 286 286 286 286 286 287 287 287
289 287 286 286 285 284 283 283 283 282 282 281 281 281 281 281 281 281 281 282 283 284 284 284 285 285 286 286 286 286 286 286 286 286 286 287 286 286 286 287 287 286 286
288 286 286 285 284 283 283 283 282 282 282 281 281 281 281 281 281 281 281 283 284 284 284 285 285 286 286 286 286 286 285 285 286 286 286 286 286 286 286 287 287 286 286
287 286 286 285 284 283 282 282 282 282 281 281 281 281 281 281 281 281 282 283 284 285 285 285 286 286 286 286 286 285 286 285 286 286 286 286 286 286 287 287 287 286 286

GFSGL_850_thetae_063.txt.gz
Theta_e
311 311 311 310 310 310 311 311 311 311 311 313 315 317 324 323 324 324 324 323 320 316 309 304 300 299 299 297 298 300 303 301 301 299 295 290 290 289 288 288 287 287 287
311 310 310 310 310 310 310 310 311 312 313 316 319 319 322 322 321 321 320 317 312 305 300 298 298 299 299 301 301 301 303 297 293 290 289 289 288 287 287 286 287 286 286
312 311 311 311 310 310 312 314 314 315 317 316 317 317 318 318 319 316 312 309 302 298 298 299 300 300 301 301 300 298 295 289 288 287 287 287 287 286 286 286 286 286 285
310 311 311 311 311 311 312 313 313 314 314 315 315 316 314 312 309 308 303 300 298 300 301 301 302 301 300 299 296 291 289 288 287 286 286 285 286 286 286 285 285 284 284
308 310 310 310 310 310 310 310 310 310 310 309 310 310 307 304 301 300 299 300 300 300 301 300 300 300 295 289 288 287 286 286 285 285 286 286 286 286 285 284 284 284 284
305 307 308 308 308 307 307 306 304 304 304 302 302 299 297 299 298 298 299 301 301 300 300 299 295 288 287 286 285 285 284 284 286 286 286 285 285 285 284 284 284 284 284
304 304 302 302 304 305 304 302 303 301 300 299 296 297 298 300 300 300 300 300 300 299 291 288 287 286 286 285 285 284 284 284 285 285 285 285 284 283 284 284 284 284 284
302 300 299 299 300 300 299 299 300 298 298 298 298 298 298 298 298 299 300 297 289 287 287 286 286 285 285 285 284 285 285 285 285 284 283 283 283 284 284 284 284 284 284
301 299 298 298 298 298 299 298 296 297 297 297 297 297 298 298 295 292 289 288 287 287 286 285 285 285 284 285 286 285 285 284 283 282 283 284 284 285 285 284 285 284 285
300 299 298 298 297 297 296 296 297 297 297 297 297 297 294 290 290 289 287 286 286 285 284 284 284 284 284 285 285 284 283 282 283 285 286 286 285 285 285 285 285 285 285
298 298 298 297 297 297 297 297 298 298 298 293 289 289 289 288 287 286 285 285 284 284 284 284 283 283 283 282 282 282 282 284 285 285 285 286 286 286 286 286 286 286 285
298 297 297 297 298 297 298 296 290 290 289 289 288 288 287 286 285 284 283 284 283 283 283 283 282 282 282 282 282 283 284 285 285 285 285 285 286 286 286 286 286 286 285
297 298 298 298 294 290 290 290 290 289 288 288 287 286 285 284 284 284 284 283 283 283 282 282 282 282 282 282 284 284 285 285 285 285 285 285 286 286 286 287 287 286 287
299 298 293 290 290 290 290 289 288 287 287 286 286 285 285 284 283 283 283 283 282 282 282 281 281 281 282 284 284 284 284 285 285 285 285 286 286 286 287 287 286 286 286
294 290 290 289 289 290 290 289 287 287 286 286 285 284 283 283 283 282 282 282 281 281 281 281 281 282 284 284 284 285 285 285 285 285 286 286 286 286 287 287 286 286 286
291 290 289 289 290 290 288 287 287 287 286 285 284 283 283 282 282 281 281 281 281 281 281 281 281 283 284 284 285 285 285 285 285 285 286 286 286 286 286 286 285 286 286
290 290 289 289 290 288 287 286 286 285 284 283 283 282 282 282 281 281 281 281 280 280 280 281 282 284 284 284 285 285 285 285 285 285 286 286 285 285 284 285 285 285 285
290 289 289 290 289 287 286 286 286 285 284 283 283 282 282 281 281 281 281 280 280 280 281 282 283 284 284 285 285 285 285 286 285 286 286 286 285 283 284 285 285 285 285
289 289 289 289 287 287 286 286 285 284 283 283 282 282 281 281 281 280 280 280 280 280 281 283 283 284 285 285 285 286 286 286 286 286 286 285 285 284 285 285 285 286 285
289 289 290 288 287 287 286 285 284 284 283 283 282 282 281 281 280 280 280 280 280 281 283 284 284 285 285 285 286 286 286 286 286 286 286 286 285 285 285 285 285 285 286
289 289 290 288 287 286 286 284 284 284 283 283 282 281 281 280 280 280 280 280 281 282 283 284 284 285 285 285 286 286 286 286 286 286 286 286 285 285 286 285 286 286 286
289 290 289 287 287 286 285 284 284 283 283 283 282 281 281 280 280 280 280 281 281 283 284 284 285 285 285 285 286 286 286 286 286 286 286 286 285 286 285 285 286 286 286
289 290 288 287 287 286 284 284 283 283 283 282 282 281 281 281 281 281 281 281 282 283 283 284 285 285 285 285 285 285 285 285 285 285 285 286 286 285 285 286 286 286 286
290 290 288 287 286 286 284 284 283 283 283 282 282 281 281 281 281 281 281 282 282 283 284 284 284 285 285 286 285 285 285 285 285 285 285 285 285 286 286 286 286 286 286
290 289 287 287 286 285 284 283 283 283 282 282 282 282 281 281 281 281 281 281 282 283 284 284 285 285 285 285 285 285 285 285 285 285 285 285 286 286 285 286 286 286 286
290 288 287 286 286 284 283 283 283 283 282 282 282 281 281 281 281 281 281 282 282 283 284 285 285 285 285 284 284 284 285 285 285 285 285 286 286 285 286 286 286 286 285

GFSGL_850_thetae_066.txt.gz
Theta_e
312 311 311 311 311 310 310 310 310 311 311 311 311 312 314 319 322 323 323 324 323 322 320 316 316 313 305 303 298 298 300 300 301 301 300 300 299 291 289 288 288 287 287
311 311 311 311 311 310 310 310 310 310 310 311 312 314 316 317 320 319 319 320 319 318 317 313 311 301 298 298 300 301 302 302 300 300 300 294 290 288 288 287 287 287 286
311 311 311 311 311 311 311 310 311 311 312 313 315 315 316 316 317 317 316 316 313 309 305 302 298 297 299 302 302 302 300 300 298 292 288 288 287 287 286 287 286 287 286
310 310 311 311 310 311 310 311 311 313 313 313 312 313 314 314 314 314 311 310 305 300 297 297 299 301 302 301 300 300 297 290 288 287 287 288 287 287 287 287 287 286 286
308 309 309 309 309 310 310 310 310 310 311 310 310 310 309 308 306 304 300 300 299 298 300 301 301 301 299 300 294 289 287 286 286 286 288 288 288 288 287 287 286 286 286
305 306 307 307 306 308 308 306 305 305 304 304 303 299 297 296 296 297 297 299 300 300 301 301 300 299 289 287 287 286 286 285 287 287 287 288 288 287 286 286 286 285 285
303 304 304 305 304 303 303 303 303 302 301 300 297 297 296 298 297 298 298 299 300 299 300 297 290 287 286 286 286 285 284 284 285 286 287 287 286 285 285 285 285 285 285
303 302 302 303 303 302 301 301 300 298 298 297 297 297 297 296 298 298 298 299 295 291 289 288 287 286 285 285 285 285 286 286 285 284 284 285 285 285 285 285 285 285 285
303 302 301 301 300 299 299 298 298 297 297 297 297 297 297 297 297 294 290 289 288 287 286 286 286 285 284 285 286 286 285 284 283 283 283 285 285 285 285 285 285 285 285
302 301 300 299 298 297 297 297 297 297 296 296 296 297 292 289 287 287 287 286 285 285 285 285 284 284 284 285 284 284 283 283 284 285 285 286 286 286 286 286 286 286 285
300 299 298 298 298 297 297 297 297 297 297 294 290 289 288 288 287 285 285 285 285 285 284 284 283 283 283 282 282 282 283 284 285 286 286 286 286 286 286 286 286 286 286
299 299 298 297 297 297 297 293 291 290 289 288 287 287 286 285 284 284 284 284 284 283 283 283 283 282 282 282 282 283 284 285 286 286 286 286 286 286 287 287 287 287 286
299 298 297 297 295 290 290 290 289 288 287 287 286 285 285 285 284 284 284 283 283 283 282 282 282 282 282 282 284 285 285 285 286 286 286 286 287 287 287 287 287 287 287
297 297 293 290 290 290 290 289 288 287 286 286 286 285 285 284 283 283 283 283 282 282 282 281 281 282 282 284 285 285 285 285 285 286 286 286 287 287 287 287 287 287 287
295 290 290 290 290 290 289 288 287 287 287 286 285 284 283 283 283 282 282 282 282 281 281 281 281 282 284 285 285 285 285 285 285 286 286 286 286 286 286 286 286 286 285
291 290 290 290 290 289 288 288 287 287 286 285 284 284 283 282 282 282 281 281 281 281 281 281 282 283 284 285 285 285 285 285 285 286 286 286 286 286 286 285 285 285 285
290 290 290 290 290 288 288 287 286 286 285 284 283 283 282 282 282 281 281 281 281 281 281 281 283 284 284 284 285 285 286 286 285 286 286 286 286 286 285 285 285 284 284
290 289 290 290 289 288 287 287 286 285 284 284 283 283 282 282 281 281 281 281 281 281 281 282 284 284 285 285 285 286 286 286 285 285 286 286 286 285 284 284 285 285 285
290 289 290 290 288 287 287 286 285 284 284 284 283 283 282 281 281 281 281 281 280 281 281 283 284 284 285 285 286 286 286 286 286 286 286 286 286 285 284 284 284 285 284
290 289 290 290 288 287 287 286 285 284 284 284 283 283 282 282 281 281 280 280 280 281 282 284 284 285 285 285 286 286 286 286 286 286 286 286 286 285 285 284 284 285 285
290 289 290 289 288 287 287 286 284 284 284 283 283 283 282 282 281 281 281 280 281 281 283 284 284 285 285 286 286 286 286 286 286 285 285 285 285 285 285 285 286 285 286
290 289 290 289 287 287 287 285 284 284 284 283 283 282 282 282 281 281 281 281 281 282 283 284 285 285 285 285 286 286 286 286 285 285 285 285 285 285 285 285 285 285 286
289 289 290 289 287 287 286 285 284 284 284 283 283 282 282 282 282 281 281 281 282 282 283 284 284 285 285 285 285 285 285 285 285 285 285 285 285 285 285 285 285 286 286
289 289 290 288 287 287 286 285 284 284 284 283 283 282 282 282 282 281 281 281 281 282 283 284 284 285 285 285 285 285 284 284 285 285 285 285 285 285 285 286 285 286 286
289 289 289 288 287 287 286 285 284 284 284 283 283 282 282 282 282 281 281 281 281 282 282 284 284 285 285 285 285 284 284 284 285 285 286 285 285 285 285 285 286 286 286
289 289 289 288 287 287 286 285 284 284 283 283 283 282 282 282 281 281 281 281 281 282 282 284 285 285 285 285 284 284 284 285 285 285 285 285 285 285 285 286 286 286 286

GFSGL_850_thetae_069.txt.gz
Theta_e
311 311 311 311 311 311 311 311 310 310 311 311 311 311 311 312 313 316 320 319 319 319 318 318 317 317 317 311 308 305 306 303 303 300 301 302 302 301 300 300 294 290 288
311 311 311 311 311 311 311 310 310 310 310 310 311 311 311 312 313 315 316 316 317 317 316 315 314 312 308 307 305 300 300 301 301 302 302 301 300 300 293 290 289 288 288
309 309 310 311 310 310 310 310 310 311 311 311 312 312 312 313 313 313 314 315 315 314 311 309 308 305 304 297 299 300 302 302 301 300 298 295 290 288 288 288 287 287 288
308 309 310 310 310 310 310 310 310 310 310 311 311 311 311 312 312 312 311 310 309 306 304 300 299 299 299 300 301 302 300 299 298 293 289 288 288 288 288 288 288 288 287
307 308 308 309 309 309 309 309 310 310 310 310 309 309 309 307 305 304 304 301 301 300 298 296 298 300 301 301 300 300 296 289 288 287 287 288 289 288 288 288 287 286 286
305 307 307 307 307 308 308 308 308 307 306 305 304 303 301 300 297 297 297 297 297 297 299 299 299 299 299 299 292 289 288 287 286 286 287 287 288 288 288 287 286 285 286
305 305 304 303 304 305 303 303 303 302 301 300 299 299 299 298 297 298 298 298 298 299 298 297 296 291 289 288 287 286 286 285 285 285 286 287 287 287 286 285 285 285 286
302 301 302 302 303 303 301 300 300 300 299 298 298 298 297 297 297 298 297 298 298 297 293 291 288 286 286 286 286 286 286 286 286 286 285 284 284 285 286 286 286 286 286
301 300 300 301 300 300 299 299 299 298 297 297 297 297 297 297 297 298 295 290 288 287 286 285 286 286 285 285 285 286 286 286 285 284 284 285 286 286 286 286 286 285 286
300 300 299 299 299 299 299 297 297 297 297 297 297 293 289 289 288 288 287 286 286 285 285 285 285 284 284 284 284 284 284 283 283 285 286 286 286 286 286 286 286 286 286
299 298 298 298 299 299 298 297 297 296 295 290 289 289 289 288 287 287 286 286 285 285 284 284 284 284 284 284 284 283 283 283 285 286 286 286 286 286 286 286 286 286 286
298 299 298 298 298 298 297 295 291 289 289 288 288 287 287 287 286 286 285 285 284 284 283 283 283 283 283 283 282 283 284 286 286 286 286 286 286 286 286 287 287 286 287
298 298 298 297 294 290 290 290 289 288 288 287 287 286 286 285 285 284 284 283 283 283 283 282 282 282 282 282 283 285 285 286 286 286 286 286 286 287 287 287 287 287 287
297 298 295 290 290 290 290 288 288 288 287 287 286 285 285 284 284 284 284 284 283 283 282 282 282 282 282 283 285 285 286 286 286 286 286 287 287 287 287 287 287 287 286
297 292 290 290 290 290 289 288 288 288 287 286 286 285 284 284 284 283 282 282 282 282 281 281 281 282 283 284 285 285 286 286 286 286 286 286 287 287 287 286 286 285 284
291 290 290 290 290 289 289 288 288 287 287 286 285 285 284 284 283 283 282 282 281 281 281 281 281 282 284 284 285 285 286 286 286 286 286 286 286 286 286 286 285 284 284
291 290 290 290 290 289 288 288 288 287 286 286 285 285 284 283 283 282 282 282 282 281 281 281 282 283 284 285 285 286 286 286 286 286 286 286 286 286 286 285 285 283 283
290 290 290 291 290 289 288 287 287 286 285 285 285 284 284 283 283 282 282 282 281 281 281 281 282 284 284 285 286 286 286 286 286 286 286 286 286 285 285 284 284 284 283
291 290 290 291 290 288 288 287 287 285 285 285 285 285 284 283 282 282 281 281 281 281 281 282 283 284 285 285 285 286 286 286 286 286 286 286 286 285 285 285 285 285 284
291 290 290 291 290 289 288 287 286 285 285 285 285 284 284 283 283 282 282 281 281 281 281 282 284 284 284 285 285 286 286 286 286 286 285 285 285 284 284 285 285 285 285
292 290 290 290 290 288 288 287 286 285 285 285 285 284 283 283 283 282 282 281 281 281 282 282 284 284 284 285 285 285 286 286 285 285 285 285 285 285 284 284 285 285 285
293 291 289 290 290 288 287 287 286 285 285 285 285 284 284 283 283 283 282 282 282 282 282 282 284 284 284 285 285 285 286 286 285 285 284 285 285 285 284 285 285 285 284
294 292 289 290 290 288 287 287 286 285 285 285 284 284 284 283 283 282 282 282 282 282 282 282 283 284 284 284 285 285 285 285 284 284 284 285 285 285 285 285 285 284 285
294 292 289 289 289 288 287 287 286 285 285 284 284 284 284 283 283 282 282 282 282 282 282 282 282 283 284 284 285 285 285 284 284 284 284 285 285 285 285 285 285 285 285
293 292 289 289 289 288 287 287 286 285 284 284 284 284 284 283 283 282 282 282 282 282 282 282 282 283 284 284 285 285 284 284 284 284 285 285 285 285 285 285 285 285 285
293 292 289 289 289 287 287 287 286 285 284 284 284 284 283 283 283 282 282 282 282 282 282 282 282 283 284 285 285 284 284 284 284 285 285 284 285 285 285 285 285 285 285

GFSGL_850_thetae_072.txt.gz
Theta_e
311 311 311 312 311 311 311 311 311 311 311 311 311 311 311 311 311 312 312 315 316 316 316 317 317 317 316 315 312 310 309 308 306 305 305 305 302 300 300 299 299 299 297
310 311 310 310 311 311 311 311 310 310 310 310 310 310 311 311 311 310 311 313 313 313 314 314 314 313 310 308 307 307 305 306 305 302 302 300 300 299 299 298 293 289 288
309 309 310 310 310 310 310 310 310 310 310 310 310 310 310 310 311 311 312 312 311 312 312 311 309 308 306 304 301 300 301 301 302 301 300 299 297 291 289 288 288 288 288
308 309 309 309 309 309 309 309 310 310 310 310 310 309 310 310 310 311 311 310 309 307 305 303 302 301 299 299 300 300 300 301 300 298 294 290 288 288 288 288 288 288 287
307 307 308 308 309 309 309 308 309 309 309 308 308 308 308 307 306 305 306 305 303 302 300 298 298 298 299 299 299 298 295 293 292 288 287 288 288 287 288 288 288 287 287
306 306 306 307 307 308 308 308 307 306 305 305 305 304 303 302 301 301 299 300 298 297 297 298 299 297 297 299 296 290 287 287 287 287 286 286 287 288 288 287 286 285 288
305 304 304 305 306 307 307 303 302 302 301 301 301 300 300 298 298 298 298 298 299 299 298 297 298 299 297 292 286 286 286 285 286 286 286 286 286 286 285 285 286 287 287
304 303 304 304 304 303 301 300 300 299 300 300 300 299 299 298 298 298 297 298 298 298 297 293 289 287 286 285 286 286 287 286 286 286 285 284 284 284 285 286 286 287 288
303 302 303 302 301 300 299 298 299 299 299 299 299 298 298 297 297 295 291 288 287 287 287 286 286 286 286 285 285 286 286 285 285 284 284 285 286 286 286 287 287 286 288
301 301 301 300 299 298 298 298 298 298 299 298 294 290 289 289 288 288 287 287 287 287 286 286 285 284 284 284 284 284 284 284 284 284 286 286 287 287 287 287 287 287 287
300 299 299 298 298 298 297 297 297 295 291 290 290 289 289 288 287 287 286 286 285 284 284 284 284 284 283 283 283 283 283 283 284 286 287 287 287 287 287 287 287 287 286
299 298 298 298 298 297 296 294 290 289 289 288 288 287 287 287 286 286 285 285 284 284 284 283 283 283 282 282 282 283 284 286 286 286 286 286 286 287 287 287 287 287 287
298 298 298 298 296 292 291 290 289 288 288 288 287 287 287 286 285 285 285 284 284 283 283 283 282 282 282 283 283 285 286 286 286 286 286 286 287 287 287 287 287 287 287
298 296 297 292 290 290 290 289 288 288 288 288 287 287 286 285 285 285 284 283 283 283 282 282 282 282 282 283 285 285 286 286 286 286 287 287 287 287 287 287 287 287 286
297 296 291 291 290 290 289 289 289 288 288 287 286 286 285 285 285 284 283 283 282 282 282 282 282 282 283 284 285 285 286 286 286 286 287 287 287 287 287 287 286 286 286
297 291 291 291 291 290 289 289 288 288 288 287 287 286 285 285 284 283 283 282 282 282 282 282 282 282 283 285 285 285 285 286 286 287 287 287 287 287 287 287 286 286 285
292 291 291 291 291 290 290 289 288 288 287 287 286 286 285 285 284 284 283 282 282 282 282 281 281 282 284 285 285 286 286 286 286 287 287 287 287 286 286 286 286 285 285
291 291 291 291 291 290 289 289 289 288 287 287 286 286 285 285 284 284 283 282 282 282 281 281 281 282 284 285 285 286 286 286 287 287 287 287 287 286 285 285 285 285 285
291 291 291 291 291 290 289 289 288 287 286 286 286 286 285 285 284 284 283 283 282 282 281 281 282 283 284 285 285 286 286 286 286 286 286 285 285 284 284 285 284 284 283
291 290 290 290 291 290 289 288 288 287 286 286 286 285 285 285 284 284 284 283 282 282 282 282 282 283 284 285 285 285 286 286 286 286 285 285 284 284 284 284 284 284 284
293 291 290 290 291 290 289 288 288 287 286 286 285 285 285 285 284 284 283 283 283 282 282 282 282 283 284 284 284 285 285 285 285 285 284 284 284 284 284 284 284 285 285
294 292 291 290 290 291 289 288 288 287 286 286 285 285 285 285 284 284 283 283 283 282 282 282 282 282 283 283 284 284 284 285 285 284 284 284 284 284 284 284 285 285 285
296 294 292 291 290 290 290 288 288 287 287 286 285 285 285 285 284 284 283 283 282 282 282 282 282 282 282 282 283 283 284 285 284 284 284 284 284 284 284 284 284 285 285
298 296 294 292 290 289 290 289 288 287 287 286 285 285 285 284 284 284 283 283 282 282 282 282 281 281 282 282 283 284 284 284 284 284 283 284 284 284 284 284 285 284 284
299 297 294 293 291 289 290 289 288 287 287 286 285 284 284 284 284 283 283 283 282 282 282 282 281 281 282 282 283 284 285 284 284 283 284 284 284 284 284 284 285 285 285
299 298 295 293 293 290 289 289 288 287 287 286 285 284 284 284 284 283 283 282 282 282 282 282 282 282 282 283 284 284 285 284 284 284 284 284 284 284 284 285 285 285 285

GFSGL_850_thetae_075.txt.gz
Theta_e
311 312 312 312 312 312 311 311 311 311 312 313 313 312 311 311 310 311 311 311 311 313 314 314 314 315 315 316 316 315 311 309 308 308 306 306 305 305 303 301 301 299 300
310 310 311 311 311 311 311 311 311 311 310 310 310 310 310 310 310 310 310 311 310 311 311 312 312 312 313 312 311 310 308 306 305 305 304 303 302 301 301 300 299 297 291
309 309 309 310 309 309 309 309 309 309 310 310 310 310 309 310 310 310 310 310 311 311 311 311 310 309 307 305 304 302 302 302 302 301 301 300 300 299 295 290 289 288 288
308 308 309 309 309 309 309 309 309 309 309 309 309 309 309 309 308 309 309 310 309 310 309 308 306 304 303 300 300 300 300 300 300 300 298 296 293 289 289 289 288 288 288
307 307 308 308 308 308 308 308 308 309 309 309 308 307 307 308 306 307 306 306 306 305 304 303 302 301 300 299 299 298 298 298 298 293 289 288 288 288 288 288 288 287 286
306 306 306 307 307 307 308 307 307 306 306 306 306 304 303 303 302 300 300 300 300 300 299 299 300 299 299 298 298 298 298 290 287 287 287 286 287 287 288 287 286 285 287
305 305 305 305 306 306 305 304 304 304 304 302 301 300 300 299 298 298 298 299 299 298 298 298 298 297 297 295 289 286 285 286 286 286 286 286 286 286 286 285 285 287 287
304 304 304 305 304 304 303 302 302 302 301 299 299 300 300 298 298 298 297 298 298 298 296 293 290 288 286 286 286 286 287 287 286 286 285 285 284 284 284 286 287 287 288
304 304 304 303 303 302 301 301 301 300 299 298 298 298 298 297 295 292 289 289 288 288 287 287 286 286 286 285 285 285 285 285 285 285 283 284 285 286 286 286 287 287 288
303 302 302 301 301 300 300 300 299 298 298 296 291 290 289 289 288 288 288 288 287 287 286 285 284 284 284 284 283 283 284 284 284 283 285 286 286 286 286 287 287 287 287
302 301 301 300 299 299 299 298 298 294 291 290 290 289 288 288 287 287 286 286 285 285 284 284 284 284 283 283 283 283 283 283 283 285 286 286 286 286 287 287 287 287 287
301 300 300 300 299 299 297 293 290 289 289 289 288 288 288 287 286 286 286 285 285 284 284 283 283 283 283 283 283 283 283 285 286 286 286 286 286 287 287 287 287 287 287
300 299 299 299 298 295 292 290 289 289 288 288 288 287 287 286 286 286 285 284 284 284 283 283 283 282 282 283 283 284 285 285 285 286 286 286 287 287 287 288 288 288 288
299 299 299 298 293 290 289 289 289 289 288 288 287 287 286 286 286 285 284 284 283 283 283 282 282 282 282 283 284 285 285 285 286 286 286 287 287 287 287 288 288 288 288
298 298 297 292 291 291 290 289 289 288 288 287 287 286 286 286 285 285 284 283 283 283 283 282 282 282 282 283 285 285 285 286 286 286 286 286 287 287 287 287 287 287 287
298 298 293 291 291 290 289 289 289 288 288 287 286 286 286 286 285 285 284 283 283 283 283 282 282 282 282 284 285 285 285 286 286 287 287 287 287 287 287 287 286 286 286
299 296 291 291 291 290 290 289 288 288 287 287 286 286 286 286 286 285 284 283 283 283 283 282 282 282 283 284 285 286 286 286 287 287 287 287 286 286 286 286 285 285 285
298 293 290 291 291 290 290 289 289 288 287 287 287 287 286 286 285 285 284 284 283 283 283 282 282 282 283 285 285 286 286 286 286 286 286 286 286 286 285 285 285 284 285
296 291 290 290 290 290 290 289 288 288 288 287 287 287 286 286 285 285 284 284 283 283 283 282 282 282 283 284 285 285 285 286 286 286 286 286 285 284 284 284 284 284 284
296 291 290 290 290 291 290 289 288 288 288 287 286 286 286 286 285 285 284 284 284 283 283 283 282 282 282 283 284 284 285 285 285 285 285 285 285 284 284 284 284 284 284
297 292 290 290 290 290 290 290 289 288 288 287 286 286 286 286 285 285 284 284 283 283 283 283 282 282 282 282 283 283 284 284 285 285 285 285 284 284 284 284 284 284 284
298 294 291 291 290 290 290 290 289 288 288 288 286 286 285 285 285 285 284 284 283 283 283 282 282 282 282 282 282 282 283 284 284 284 285 284 284 284 284 284 284 284 284
299 296 293 292 290 289 289 290 289 288 288 288 287 286 285 285 285 285 285 284 284 283 283 282 282 282 281 281 281 281 282 283 283 284 284 284 284 283 284 284 284 284 284
300 298 295 293 292 290 289 289 290 289 288 288 287 286 285 285 285 285 284 284 284 283 283 282 282 282 281 281 281 281 282 283 283 284 284 284 283 284 284 283 283 283 284
300 299 297 295 293 293 291 289 289 290 288 287 287 286 285 285 284 285 284 284 284 283 283 283 282 282 282 282 282 282 282 283 284 284 284 283 283 283 283 283 283 284 284
299 299 298 298 296 294 292 290 290 290 289 287 287 286 285 284 284 284 284 284 284 283 283 284 284 284 284 284 283 283 284 284 284 284 283 283 283 283 283 283 284 284 284

GFSGL_850_thetae_078.txt.gz
Theta_e
312 312 312 312 312 312 312 312 312 312 312 313 315 316 316 315 314 313 311 311 311 311 311 310 312 312 313 312 313 313 313 312 310 310 308 307 304 304 302 301 301 301 300
310 310 310 311 311 311 311 311 311 311 311 311 311 310 310 310 310 310 310 310 310 310 310 310 310 310 310 311 311 311 309 308 306 305 304 303 303 302 301 300 299 297 297
308 308 309 309 310 309 309 309 309 309 309 309 309 309 309 309 309 309 310 310 310 310 310 310 310 310 310 309 309 308 307 305 304 302 302 301 301 300 299 299 297 290 289
307 308 308 308 309 309 308 309 309 309 309 309 309 309 309 309 309 309 309 309 309 309 309 309 308 308 306 305 303 302 302 301 302 302 301 300 299 297 291 289 289 288 288
307 307 307 308 308 308 308 308 308 308 309 309 309 309 308 308 308 308 307 307 306 306 306 305 304 303 302 301 301 301 301 301 300 299 299 295 289 288 288 288 288 288 287
306 306 306 306 307 307 307 307 308 308 307 307 306 306 305 306 305 304 302 302 303 301 301 301 300 300 300 298 299 299 298 298 295 291 288 287 287 287 287 287 287 286 287
305 305 305 305 306 307 307 306 305 305 304 303 303 303 303 302 300 301 301 300 300 299 300 299 299 297 298 297 294 291 288 287 286 286 286 286 286 286 286 285 285 286 287
304 304 304 304 305 305 304 303 302 302 301 302 302 302 302 301 300 300 298 298 297 296 295 293 290 288 288 288 287 287 287 287 286 286 286 286 285 285 284 285 286 287 287
303 303 304 304 304 303 302 301 301 300 300 301 300 299 297 295 292 289 289 289 288 288 288 287 287 286 286 286 285 285 285 285 285 285 284 284 284 285 286 287 287 287 288
303 303 303 303 301 301 300 300 300 299 300 297 292 290 290 289 289 288 288 287 287 286 286 286 285 285 285 284 284 284 284 284 284 284 283 285 286 286 286 286 287 287 287
302 302 302 301 300 300 299 299 299 298 292 290 290 289 289 288 288 287 286 286 286 285 285 285 284 284 284 283 283 283 283 283 283 284 285 286 286 286 286 287 287 287 287
301 301 301 300 299 299 298 298 293 290 290 289 289 288 288 287 287 286 286 285 285 285 284 284 284 283 283 283 283 282 283 283 285 285 286 286 286 286 286 287 287 287 287
301 300 300 299 299 298 296 292 290 290 289 289 288 288 287 287 287 286 285 285 284 284 284 283 283 283 283 282 283 283 284 285 285 286 286 286 286 287 287 287 287 287 287
300 299 299 299 298 295 291 290 289 289 289 288 288 287 287 287 286 286 285 285 284 284 284 283 283 283 283 283 283 284 285 285 286 286 286 286 287 287 287 287 287 287 287
299 299 299 298 295 291 290 289 289 289 288 288 287 287 287 286 286 286 285 285 284 284 283 283 283 283 283 283 283 285 285 285 286 286 286 287 287 287 287 287 287 287 287
298 298 299 297 291 291 290 290 289 289 288 288 287 287 287 286 286 286 286 285 284 284 284 283 283 282 282 282 284 285 285 285 286 286 287 287 287 287 287 287 286 285 286
298 298 298 293 291 291 291 290 289 289 288 288 287 286 287 286 286 286 285 285 284 284 284 283 283 282 282 282 284 285 285 286 286 286 286 287 287 287 286 286 285 285 285
298 298 297 291 291 291 290 289 289 289 288 287 287 287 287 287 286 286 286 285 285 285 284 283 282 282 282 283 284 285 285 286 286 286 286 286 286 286 286 285 285 284 285
298 298 296 291 290 290 290 290 289 289 288 288 287 287 286 286 286 286 285 285 285 284 284 284 283 283 282 283 283 284 285 285 285 286 286 286 285 285 285 284 284 284 284
299 298 295 291 290 290 290 290 289 289 288 288 288 286 286 286 286 286 286 285 285 284 284 284 283 283 283 283 283 283 284 284 285 285 285 285 285 284 284 284 284 284 284
299 298 295 291 290 290 290 290 290 289 288 288 288 287 286 286 286 286 286 285 285 284 284 283 283 283 282 282 282 282 282 283 284 284 284 284 284 285 284 284 283 284 283
300 299 297 293 291 290 290 290 290 290 288 288 288 287 286 286 286 286 285 285 285 285 284 283 283 282 282 282 282 282 282 282 282 283 283 284 284 284 284 283 283 283 283
300 300 299 297 292 290 289 290 289 290 289 288 288 287 287 286 286 286 285 285 285 285 284 283 283 283 282 282 282 282 282 282 282 282 283 283 284 284 284 283 283 283 283
300 301 300 299 296 292 290 290 289 289 290 289 288 288 287 287 286 285 285 285 285 284 284 283 283 283 283 282 282 282 281 281 281 282 282 283 284 284 283 283 283 283 283
300 300 300 299 298 295 292 291 290 289 289 289 288 288 287 287 286 285 285 285 285 285 284 283 283 283 284 284 284 284 283 282 282 283 283 284 284 284 283 283 283 283 283
300 299 299 299 299 297 296 294 292 290 289 289 290 289 287 287 287 285 285 285 285 285 284 283 283 284 285 285 285 285 285 284 284 283 283 284 283 283 282 283 283 283 283

GFSGL_850_thetae_081.txt.gz
Theta_e
313 312 312 312 312 312 312 312 312 312 312 314 316 319 320 321 321 321 321 319 315 311 311 311 311 310 311 310 310 311 311 311 312 311 310 308 307 305 303 301 300 300 301
311 311 310 310 311 311 311 311 311 311 311 312 312 313 313 312 311 310 309 309 310 310 310 310 310 309 310 310 310 310 310 310 310 309 308 307 305 303 302 301 301 299 300
309 309 309 309 309 309 309 309 310 310 310 310 310 310 310 309 309 309 309 309 309 310 309 309 309 309 309 309 307 306 306 307 306 305 304 303 302 301 300 299 298 298 297
308 307 308 308 308 308 308 308 308 308 309 309 309 309 309 309 309 309 309 309 309 309 309 308 307 307 306 304 304 303 303 303 303 302 302 301 300 298 298 297 292 290 289
307 307 307 307 308 308 308 308 308 308 308 308 308 308 308 308 308 308 308 308 308 308 306 305 304 303 301 301 301 301 300 301 300 300 300 299 297 292 289 289 288 288 288
307 306 306 306 306 306 306 306 306 307 307 307 307 306 306 306 307 306 304 305 305 303 302 302 302 301 300 299 299 299 298 298 298 297 294 289 288 288 287 287 287 287 286
306 305 305 305 306 306 305 306 306 306 305 304 304 303 303 302 301 302 302 302 301 300 300 300 299 299 297 296 294 291 289 288 287 287 287 287 286 286 286 286 285 285 286
305 305 304 305 305 305 305 304 304 303 303 302 302 302 301 301 301 300 299 296 293 292 291 290 289 288 288 287 287 287 287 287 286 286 286 286 286 285 285 284 284 286 287
304 304 304 304 304 304 304 302 301 301 301 301 301 300 299 295 290 290 289 289 289 289 288 288 287 287 286 286 285 285 285 285 285 285 285 284 284 284 286 286 287 287 287
303 303 303 304 303 303 302 301 301 300 300 299 296 292 290 290 289 289 288 288 288 287 287 287 286 285 285 284 284 284 284 284 284 284 284 284 285 286 286 286 286 286 286
303 303 303 303 302 301 301 300 299 299 296 291 290 290 289 289 288 288 287 287 287 287 286 286 285 285 284 284 284 284 284 284 284 284 284 285 286 286 286 286 286 287 287
302 302 302 302 301 300 299 298 298 294 290 290 289 289 288 288 288 288 287 287 286 286 286 285 285 284 284 284 283 283 283 284 284 285 286 286 286 286 286 287 287 287 287
301 301 301 300 299 299 298 298 292 290 290 289 289 288 288 288 288 287 287 287 286 286 285 285 284 284 284 284 283 283 284 285 285 286 286 286 286 286 287 287 287 287 287
301 301 300 299 299 298 297 293 290 290 289 289 288 288 288 287 287 287 287 286 286 285 285 284 284 284 283 283 283 283 284 285 285 286 286 286 287 287 287 287 287 287 288
300 300 299 299 298 298 294 291 290 289 289 288 288 288 287 287 287 287 287 286 286 286 285 285 284 284 284 283 283 284 285 285 285 286 286 287 287 287 287 287 287 287 287
300 300 299 299 298 295 291 290 289 289 289 289 288 287 287 287 287 287 286 286 286 286 285 285 284 284 283 283 283 283 285 285 286 286 286 287 287 287 287 287 286 286 286
299 299 299 299 298 292 291 290 289 289 289 289 288 287 287 287 287 287 286 286 286 285 285 285 284 283 283 283 283 283 285 285 286 286 286 287 287 287 286 286 285 285 285
299 297 299 299 297 291 291 290 290 289 289 288 288 288 287 287 287 287 286 286 286 286 285 285 284 284 284 283 283 283 284 285 285 285 286 286 286 286 286 286 285 285 285
299 298 298 298 295 291 291 290 290 289 289 289 289 288 287 286 287 287 286 286 286 285 285 285 285 285 284 284 283 283 283 284 284 285 285 285 285 285 285 285 284 284 284
299 298 298 298 295 291 291 290 290 290 289 289 289 288 287 287 287 286 286 286 286 285 285 285 285 285 284 283 283 283 283 283 283 283 284 284 284 284 284 284 284 284 284
299 298 298 297 296 292 290 290 291 291 290 289 289 288 287 287 286 286 286 286 286 286 285 285 285 284 284 283 283 283 282 282 282 282 282 282 283 283 283 284 284 284 284
300 299 298 298 297 294 291 290 290 290 291 290 289 288 287 287 287 286 286 286 285 285 285 285 285 284 284 283 283 283 283 282 282 281 281 281 282 282 283 283 284 284 283
301 300 300 299 298 297 292 290 290 290 290 290 290 289 288 288 288 287 286 285 285 285 285 285 285 284 284 283 283 283 283 282 281 281 281 281 281 281 282 283 284 284 283
301 300 300 300 299 299 298 294 291 290 290 290 290 289 288 288 287 287 286 285 285 285 285 285 285 285 284 284 284 284 284 283 283 282 282 282 282 282 282 283 283 283 283
301 301 300 300 299 299 299 298 295 291 290 290 289 289 289 288 287 287 287 286 286 285 285 285 285 285 284 284 285 285 285 285 284 284 284 283 283 283 283 283 283 283 283
300 300 300 299 299 299 299 299 298 293 293 293 290 289 289 288 289 290 288 290 286 285 285 285 285 284 284 284 285 285 285 285 285 284 284 284 284 284 284 283 283 282 282

GFSGL_850_thetae_084.txt.gz
Theta_e
313 313 313 313 313 312 312 312 312 312 312 312 314 318 323 323 322 322 322 321 319 318 315 312 310 311 311 310 310 309 310 310 310 310 309 309 309 307 308 307 305 304 303
312 311 311 311 311 311 311 311 312 312 312 312 312 313 314 316 317 317 317 315 312 310 309 309 309 309 309 309 309 309 309 309 309 308 307 306 305 305 305 305 305 302 301
310 310 309 309 309 309 309 310 310 310 310 310 311 310 310 310 310 309 309 309 309 309 309 309 309 309 308 308 307 306 305 307 306 305 304 304 303 302 302 302 302 301 300
309 308 308 308 308 308 308 308 308 308 308 308 309 309 309 308 308 308 308 309 309 309 308 308 307 307 307 307 305 304 304 303 302 301 302 302 301 300 300 299 298 296 292
308 308 308 307 307 307 308 308 308 308 308 308 308 308 308 308 308 308 308 308 308 308 307 305 305 307 306 303 302 301 301 300 300 300 300 299 299 297 294 291 289 288 288
308 307 307 307 307 306 306 306 306 307 307 307 307 307 307 307 307 307 306 306 306 305 304 304 304 303 301 300 299 299 298 298 298 298 296 294 290 288 288 287 287 287 287
307 307 306 306 306 306 305 305 306 306 306 306 305 305 305 304 304 303 303 302 302 302 302 302 301 298 295 293 290 288 288 288 288 288 287 287 287 286 286 286 286 285 285
306 306 305 305 305 305 303 302 303 304 304 303 302 302 302 300 300 301 301 299 296 293 291 290 289 288 288 288 287 287 287 286 286 286 286 286 286 285 285 285 285 284 286
305 305 304 304 304 303 302 302 302 301 300 300 300 300 300 300 295 291 290 290 290 289 289 288 287 287 287 286 286 286 285 285 285 285 285 284 284 284 285 286 287 287 287
304 304 303 303 304 303 302 301 300 299 299 299 299 298 293 290 289 289 289 288 288 288 288 287 287 286 286 285 285 285 285 285 284 284 284 284 284 285 286 286 286 286 287
303 303 302 302 303 302 301 300 299 298 298 297 293 290 289 289 288 288 287 288 288 288 287 287 287 286 285 285 285 285 285 284 284 284 284 285 286 286 286 286 286 287 287
302 302 301 301 301 301 300 299 298 298 296 290 289 289 289 288 288 288 287 287 287 287 287 287 287 286 285 285 285 285 285 284 285 285 286 286 286 286 286 286 286 287 287
302 301 301 300 300 299 299 298 297 295 290 290 289 289 288 288 288 287 288 287 287 287 287 286 286 286 285 285 285 284 284 284 285 286 286 286 287 287 287 287 287 287 287
301 301 300 300 299 298 298 297 296 291 290 289 289 288 288 288 287 288 288 287 287 287 287 286 286 286 285 285 285 284 284 285 285 286 286 286 287 287 287 287 288 288 288
300 300 300 299 298 298 298 297 292 290 289 288 288 288 288 287 287 287 287 287 287 287 287 286 286 286 285 285 284 284 284 284 285 286 286 286 287 287 287 287 287 287 288
299 299 300 299 299 298 298 295 290 289 289 288 288 288 288 287 287 287 287 287 287 288 287 286 286 286 285 285 284 284 284 284 285 286 286 286 286 286 286 287 286 286 287
299 299 299 299 299 298 297 293 290 289 289 289 288 288 287 287 287 287 287 287 287 287 287 287 286 286 286 285 284 284 283 283 284 285 286 286 286 286 286 286 286 285 286
298 298 298 299 299 298 296 291 290 290 289 289 289 288 288 287 287 287 287 287 287 287 287 286 286 286 286 285 285 284 284 283 284 284 284 285 285 285 286 286 285 285 285
299 297 298 298 298 298 295 291 290 290 290 289 288 288 288 287 287 287 287 287 287 287 286 286 286 286 285 285 285 284 284 284 283 283 283 283 283 284 284 285 284 284 284
300 299 298 297 297 297 294 290 290 290 290 289 289 289 288 288 288 287 287 287 287 286 286 286 286 286 286 285 285 284 284 283 283 282 282 282 282 282 282 283 283 284 284
301 300 299 297 298 297 296 292 291 290 290 290 290 289 289 288 288 288 287 287 287 286 286 286 286 286 286 285 285 284 284 283 283 282 282 281 281 281 281 281 282 282 283
301 300 299 298 298 298 298 295 291 290 290 290 290 290 289 288 288 288 288 287 286 286 286 286 286 286 286 285 285 285 284 284 283 282 282 282 281 281 281 281 281 281 282
301 300 300 299 299 298 298 297 295 292 290 290 290 290 290 290 289 288 288 287 286 286 286 286 286 286 286 285 285 284 284 284 283 283 283 283 282 282 281 281 281 281 282
302 301 300 300 300 300 299 299 298 297 293 291 290 290 290 290 290 289 288 288 287 287 286 286 285 286 286 285 285 284 284 284 285 285 284 285 284 284 283 282 282 282 282
301 301 301 300 299 300 300 299 299 299 298 295 291 290 290 289 289 289 289 287 287 287 288 290 288 285 285 285 285 284 283 284 285 285 285 285 285 284 284 283 283 283 283
299 300 300 300 299 299 299 300 300 299 299 299 298 293 291 292 290 289 289 287 287 290 291 293 286 285 285 285 284 284 284 284 284 284 285 285 286 285 285 284 284 283 283

GFSGL_850_thetae_087.txt.gz
Theta_e
312 312 312 312 312 312 312 312 312 312 312 312 312 313 319 322 323 322 324 322 320 321 321 320 315 314 311 311 311 310 310 309 309 309 308 308 308 308 308 307 305 304 304
313 313 313 312 312 312 312 312 312 312 312 312 312 313 315 317 319 320 320 320 321 320 319 315 310 309 309 309 309 309 309 309 309 308 306 305 305 305 305 304 303 303 302
311 311 311 311 310 310 309 310 310 310 310 311 311 311 311 312 313 313 313 313 311 310 309 309 309 309 309 309 308 308 306 306 307 306 305 304 304 303 303 302 302 302 302
310 309 309 309 308 308 308 308 308 308 308 308 309 309 309 309 309 309 309 309 309 309 309 309 309 308 308 307 306 305 305 304 304 303 302 302 302 302 301 300 300 299 298
310 310 308 308 308 308 308 308 308 307 308 308 308 308 308 308 308 308 308 308 308 308 308 308 307 306 306 304 303 304 303 303 302 301 300 299 299 298 296 294 291 290 289
309 309 308 308 307 307 307 307 307 307 307 307 307 307 307 307 308 308 307 307 307 307 306 305 304 304 302 301 302 302 301 298 297 296 295 293 291 289 288 288 287 287 287
308 307 307 307 306 306 306 306 306 306 305 305 306 306 306 306 306 306 306 305 304 304 303 303 302 301 299 294 291 290 289 289 289 288 288 288 287 287 287 287 286 286 285
307 307 306 306 305 305 305 304 303 303 304 304 304 303 303 302 302 302 302 302 302 301 298 294 291 290 290 289 289 288 288 287 287 287 286 286 286 286 286 285 285 285 286
306 306 305 304 304 304 304 302 302 302 302 302 301 301 300 300 299 300 298 294 291 290 290 289 289 289 288 288 288 287 287 286 286 286 285 285 285 285 285 286 287 287 287
306 305 304 304 304 304 303 301 300 298 298 299 300 299 299 296 290 289 290 289 289 289 289 288 288 288 287 287 287 286 286 285 285 285 285 285 285 285 286 287 287 287 287
304 304 303 303 303 302 301 300 298 297 296 297 298 297 291 289 289 288 288 288 288 288 288 288 288 287 287 286 286 286 285 285 285 285 285 286 286 287 287 287 287 287 287
303 303 302 302 301 301 300 299 297 296 296 297 294 290 289 288 288 288 288 288 288 288 288 287 287 287 286 286 286 286 285 285 285 286 286 287 287 287 287 287 287 287 287
303 302 302 301 301 300 299 298 296 296 297 294 289 289 288 288 288 288 288 288 287 287 287 287 287 287 286 285 286 285 285 285 285 286 287 287 287 287 287 287 288 288 288
302 302 301 301 300 300 298 297 297 297 295 289 289 288 288 288 288 288 288 288 287 287 287 287 287 286 286 286 286 286 285 285 286 286 287 287 287 287 287 287 288 288 288
301 301 300 300 299 299 298 298 297 296 291 290 289 288 288 288 288 288 287 287 287 287 287 287 287 286 286 286 286 285 285 285 285 286 286 287 287 287 287 287 287 288 288
300 300 300 300 299 298 297 297 296 292 289 289 288 288 288 287 287 287 287 287 287 287 287 287 287 286 286 286 286 286 285 285 284 285 286 286 286 286 286 287 287 287 287
300 299 299 299 299 298 298 297 296 291 289 289 289 288 288 287 287 287 287 287 287 287 287 287 287 287 286 286 286 285 285 285 285 284 285 285 285 285 286 286 286 286 286
299 298 298 298 299 299 298 298 296 291 290 290 289 289 288 288 287 287 287 287 287 287 287 287 287 287 286 286 286 286 285 285 285 284 284 284 283 283 284 284 285 285 285
300 298 298 298 299 298 298 298 296 291 290 289 289 289 289 288 287 287 287 288 287 287 287 287 287 287 286 286 286 286 285 285 284 284 283 283 282 282 282 282 283 284 284
300 300 298 298 298 298 298 298 296 291 290 290 289 289 288 288 288 288 287 287 287 287 287 287 287 287 287 286 286 286 285 285 284 284 283 283 282 282 282 281 281 282 282
301 300 300 299 298 297 298 298 297 292 291 290 291 290 289 288 289 288 288 287 287 287 287 287 287 286 286 286 286 286 286 285 284 284 283 283 282 282 281 281 281 281 281
302 300 300 300 299 298 298 298 298 296 292 291 291 290 289 289 289 289 288 288 288 287 287 287 287 286 286 286 286 286 286 285 284 284 284 284 283 283 282 282 281 281 281
302 301 300 300 300 299 298 298 298 298 297 293 291 290 290 290 290 290 290 289 288 288 287 287 287 286 286 285 286 286 286 285 284 284 285 285 285 284 284 284 283 283 283
301 301 301 300 300 299 299 299 299 298 298 297 296 293 291 290 290 290 290 290 288 288 287 287 287 286 286 286 285 286 286 285 285 284 284 285 285 284 284 284 284 284 283
300 300 300 300 300 300 300 299 299 299 299 299 299 298 296 292 290 290 289 289 289 288 287 287 287 287 291 292 287 285 285 285 285 284 284 284 285 285 285 285 284 284 284
298 298 298 298 298 298 298 299 299 299 299 299 299 299 299 298 297 293 291 290 289 289 289 288 287 291 293 290 285 285 285 286 285 283 284 284 284 285 285 285 284 283 283

GFSGL_850_thetae_090.txt.gz
Theta_e
313 312 312 312 311 311 311 311 311 311 311 311 311 311 311 312 316 321 322 323 324 323 326 323 321 320 319 315 313 311 311 311 310 309 308 308 308 308 308 307 307 306 305
312 312 312 312 312 312 313 313 313 313 312 312 312 312 313 314 318 320 321 322 322 322 320 320 319 318 313 310 309 309 309 309 309 308 307 307 306 306 306 305 305 305 304
312 312 312 312 311 311 311 311 311 311 311 311 311 311 312 313 315 317 317 318 319 319 319 318 315 310 309 309 309 308 308 307 307 307 307 306 306 305 304 304 304 303 302
311 311 311 310 310 310 309 308 308 309 309 309 309 310 310 310 311 311 312 313 312 311 310 309 309 308 308 308 307 307 306 306 305 305 304 304 303 302 302 302 301 301 299
310 310 310 309 309 309 308 308 308 308 308 308 308 308 308 308 308 308 308 308 308 308 308 308 308 307 307 306 306 305 305 304 303 303 302 301 300 300 299 298 295 293 290
310 309 309 309 309 308 307 307 307 307 307 307 307 307 307 307 307 307 307 307 308 307 307 307 306 306 306 305 305 304 303 302 300 299 297 296 294 292 290 289 288 288 288
309 309 308 308 307 307 307 306 306 306 305 306 306 306 306 306 307 307 306 307 307 306 305 305 304 304 303 302 297 293 291 290 290 289 289 288 288 288 288 287 287 286 286
309 308 308 307 307 306 306 305 305 304 303 303 305 305 305 305 304 305 305 304 304 303 303 302 301 296 292 290 289 289 289 289 288 288 288 287 287 287 286 286 286 286 286
308 308 307 306 306 305 305 305 303 302 302 302 303 303 302 301 301 301 302 302 301 300 296 291 290 290 289 288 288 288 288 288 287 287 287 287 286 286 286 286 288 288 288
308 307 306 305 305 304 304 303 301 301 300 299 299 299 299 299 299 299 299 294 291 290 290 289 289 289 288 288 288 287 287 287 287 287 287 286 286 286 287 288 287 288 288
307 306 305 304 304 303 302 302 300 300 299 297 296 297 298 296 291 289 289 289 289 289 289 289 289 288 288 287 287 287 287 286 286 286 286 286 287 287 287 287 287 287 287
305 304 304 303 302 302 302 301 299 298 297 296 295 296 293 289 289 288 288 287 288 288 288 288 288 288 287 287 287 287 286 286 286 286 286 287 287 287 287 288 288 288 288
304 303 303 302 302 301 301 300 299 297 296 296 296 293 289 289 288 288 288 287 287 287 288 288 288 287 287 287 287 286 286 286 286 286 287 287 287 287 288 288 288 288 288
303 302 302 302 301 301 300 299 298 297 296 295 295 290 289 288 288 288 288 287 287 287 287 287 287 287 287 287 286 286 286 286 286 286 286 287 287 287 288 288 288 288 288
302 302 301 301 301 300 300 299 298 297 297 297 293 289 289 288 288 288 288 288 287 287 287 287 287 287 287 287 287 286 286 286 286 286 286 286 287 287 287 287 287 287 288
302 301 301 301 300 300 299 298 297 296 296 295 289 289 288 288 287 288 287 287 287 287 287 287 287 287 287 287 287 286 286 286 285 285 285 285 286 286 286 286 287 287 287
301 301 300 299 299 299 299 298 297 297 296 290 289 289 288 288 287 287 287 286 286 286 287 287 287 287 287 287 287 286 286 286 285 285 285 285 285 285 285 285 286 286 286
301 300 299 299 299 298 298 298 297 297 296 292 290 289 288 288 287 287 286 286 287 287 287 287 287 287 287 287 286 286 286 286 286 285 285 284 284 283 283 283 283 284 284
301 301 300 298 297 297 297 297 297 297 296 292 290 289 289 288 288 287 286 286 287 287 287 287 287 287 286 286 286 286 286 286 286 285 285 284 284 283 283 283 282 282 282
302 300 300 299 297 297 297 297 297 297 297 294 290 289 289 288 288 288 287 287 287 287 287 287 287 286 286 286 286 286 286 286 286 285 285 284 284 283 283 282 282 282 282
302 301 300 300 299 298 297 297 297 298 298 296 292 290 289 289 289 288 288 288 288 288 287 287 286 286 286 286 286 286 286 286 286 285 285 284 284 283 283 282 282 282 282
302 301 300 300 300 299 298 298 297 298 298 298 294 291 290 289 289 289 289 289 289 289 288 287 286 286 286 286 286 286 286 286 286 285 285 284 284 284 283 283 283 283 283
302 301 301 300 300 300 298 298 298 297 297 298 297 295 291 290 290 290 290 290 290 289 288 288 287 287 286 286 286 286 286 286 286 285 285 284 284 283 284 284 284 284 284
300 300 300 300 299 299 299 299 298 298 298 298 298 298 297 294 291 290 290 290 290 290 289 288 288 288 287 286 286 286 286 287 285 285 285 285 284 283 284 284 284 284 284
299 299 299 299 299 298 298 298 298 298 298 298 298 298 298 298 298 296 293 291 290 290 290 290 289 288 287 288 286 286 290 292 285 284 285 285 284 283 283 284 284 284 284
297 296 296 296 297 297 297 297 297 297 297 298 297 297 298 298 298 298 298 297 293 291 290 290 291 291 289 290 286 290 293 287 284 284 285 286 284 283 283 283 284 284 284

GFSGL_850_thetae_093.txt.gz
Theta_e
315 314 313 313 313 312 312 311 311 311 311 311 311 311 311 311 312 313 316 316 320 323 323 324 319 323 323 321 320 318 315 313 313 313 311 310 307 308 308 308 307 307 307
313 313 312 312 312 312 312 312 312 312 312 312 312 312 312 313 313 314 316 321 323 322 322 321 320 321 320 319 316 311 310 310 310 309 308 307 307 306 306 306 305 305 305
312 312 312 312 312 312 312 312 312 312 312 311 311 311 312 312 313 314 316 318 319 320 320 319 318 318 318 313 309 309 308 308 308 307 306 306 306 305 305 304 304 304 303
312 312 312 312 311 311 311 310 310 309 309 309 309 309 310 310 311 312 315 316 317 316 316 317 317 314 309 308 308 308 307 307 307 307 306 305 304 303 303 303 302 301 301
312 311 311 311 310 310 310 310 309 308 308 308 308 308 308 308 309 309 310 310 311 311 310 309 308 308 308 308 307 307 306 304 304 304 304 303 302 301 300 300 299 297 293
311 311 311 310 310 310 310 309 309 308 307 307 307 307 307 307 308 307 308 308 308 308 308 308 308 308 307 307 306 305 304 303 303 302 301 299 297 296 295 293 291 289 289
310 310 310 310 309 309 309 308 308 307 307 306 306 306 307 307 307 307 307 307 307 307 307 307 306 306 305 304 303 303 302 298 295 292 291 291 290 290 289 289 288 288 287
310 310 310 309 309 308 308 307 307 306 306 305 305 305 305 305 306 306 306 306 305 305 305 304 303 303 302 300 295 291 290 290 290 289 289 289 289 288 288 287 287 287 287
311 310 309 308 308 307 307 306 305 305 305 302 302 302 303 304 303 303 304 303 303 302 302 301 302 297 292 290 290 290 290 289 289 288 288 287 287 287 287 287 288 288 289
311 310 309 308 307 306 306 305 304 304 303 302 301 300 301 300 300 300 300 300 300 300 299 293 290 290 289 289 289 289 289 288 288 288 287 287 287 287 287 288 289 289 289
310 309 308 307 306 305 304 304 303 303 302 301 300 299 298 298 298 298 298 296 293 289 289 289 289 289 288 288 288 288 288 288 287 287 287 287 287 288 288 289 289 289 289
309 308 307 305 304 304 303 302 302 301 301 299 298 297 296 297 297 292 289 289 289 288 288 288 288 288 288 288 287 287 287 287 287 287 287 287 288 288 289 289 288 289 289
308 307 305 304 304 303 302 302 302 301 299 298 297 296 296 295 290 289 288 287 287 288 287 287 288 288 288 287 287 287 287 286 287 287 287 287 288 288 288 288 288 288 288
306 305 304 303 303 302 302 302 301 301 299 298 296 296 296 293 289 288 287 287 287 287 287 287 288 287 287 287 287 287 287 287 287 287 287 288 288 288 288 288 288 288 288
304 303 303 302 302 302 301 301 301 300 299 297 296 296 295 290 289 288 288 288 287 287 287 287 287 287 287 287 287 287 287 287 287 287 287 287 287 287 288 288 288 287 287
304 303 302 302 301 301 301 300 300 299 297 296 295 295 294 289 288 287 287 287 287 287 287 287 287 287 287 287 287 287 287 287 287 287 286 286 286 286 286 287 287 286 286
304 302 302 301 300 300 300 300 299 298 296 295 295 295 290 289 288 287 287 287 286 286 286 287 287 287 287 287 287 287 287 287 287 286 286 286 285 285 285 285 285 285 285
303 302 301 301 300 299 299 298 298 297 296 296 297 295 289 289 288 287 287 286 286 286 287 287 287 287 287 287 287 287 286 287 287 286 286 286 285 285 285 284 284 284 284
303 302 301 301 300 299 297 296 297 296 296 296 296 295 290 289 288 288 287 287 287 287 287 287 288 287 287 287 287 286 286 286 286 286 286 286 285 285 284 284 283 283 283
304 302 302 300 300 299 298 297 297 296 296 296 297 298 291 289 289 289 288 288 288 288 288 288 288 287 287 287 286 286 286 286 286 286 286 286 285 285 285 284 283 283 283
303 302 301 301 301 300 299 298 297 297 297 297 298 298 295 290 289 289 289 289 289 288 288 288 287 287 287 287 286 286 286 286 286 286 286 286 285 285 285 284 284 283 283
302 302 301 300 301 300 299 298 298 297 297 297 298 298 298 294 291 290 290 289 289 289 289 288 288 288 287 286 286 286 286 286 286 286 286 286 285 285 285 284 284 284 284
300 300 300 300 300 299 299 299 298 298 297 297 297 297 297 297 295 291 290 290 290 290 289 289 289 289 288 287 287 286 286 286 286 285 285 286 286 285 285 284 284 284 284
299 299 300 300 300 299 299 299 299 298 298 297 297 297 296 297 297 297 293 291 290 290 290 290 290 290 289 288 287 287 286 286 285 285 285 289 288 284 285 285 284 283 283
297 297 298 298 298 298 297 297 298 298 298 297 297 297 297 297 297 297 298 298 297 294 292 290 290 290 290 290 288 287 288 286 285 285 288 293 285 284 284 285 283 283 283
294 295 296 296 296 295 295 295 295 296 296 296 296 296 297 296 297 297 297 297 297 297 298 297 294 291 289 289 289 288 290 289 288 286 292 289 284 284 285 285 283 282 282

GFSGL_850_thetae_096.txt.gz
Theta_e
318 318 317 315 316 318 318 316 314 313 312 312 311 311 311 311 311 311 312 312 315 317 322 325 318 323 322 322 321 322 320 319 315 315 314 311 309 308 307 308 307 307 307
318 319 319 317 314 313 312 312 312 311 311 311 312 312 312 312 312 312 313 317 320 320 320 320 320 320 321 321 320 320 319 313 311 310 309 309 307 305 306 306 305 306 305
317 319 318 314 312 312 312 312 312 312 312 312 312 312 312 312 312 312 313 315 317 318 318 320 319 318 319 318 317 317 309 309 309 309 308 306 305 304 305 305 304 303 303
312 313 312 312 312 312 312 312 311 311 311 310 309 309 309 309 310 310 311 313 315 315 316 316 316 315 315 315 314 308 308 308 308 307 307 306 306 305 304 304 302 302 301
312 312 312 312 312 311 311 310 310 310 310 309 309 308 308 308 308 308 309 310 311 313 313 313 313 313 313 309 308 308 307 307 306 306 306 305 304 303 302 301 300 300 298
312 312 311 311 310 310 310 310 310 310 309 309 308 307 307 307 307 307 307 308 308 308 309 309 308 308 307 307 307 306 306 305 305 305 304 303 302 300 299 298 296 293 290
311 311 311 310 310 310 310 309 309 309 308 307 307 307 306 306 307 307 307 306 307 307 307 307 306 306 306 305 305 305 304 304 302 301 300 296 295 293 292 290 289 289 288
311 311 310 310 310 309 309 309 308 308 307 307 306 306 306 305 305 306 306 306 306 306 305 305 305 305 304 304 303 302 300 297 294 292 291 291 290 290 290 289 288 288 288
312 311 310 310 310 309 309 308 308 307 306 306 305 304 303 303 304 304 304 302 302 303 303 303 303 302 301 301 296 291 290 290 289 289 289 289 289 289 288 288 288 288 289
311 311 310 310 309 309 308 307 306 306 305 305 304 302 301 301 301 300 301 300 301 301 301 301 300 299 294 290 289 289 289 289 289 289 289 289 288 288 288 288 288 289 289
311 310 309 309 308 308 307 306 305 304 304 303 302 301 300 299 299 298 297 299 299 299 298 297 292 289 289 289 288 288 289 288 288 288 289 288 288 288 288 289 289 289 289
310 309 308 308 307 307 306 305 304 303 303 302 301 300 299 298 297 297 297 296 296 291 289 289 288 289 288 287 287 288 288 287 287 288 288 288 289 289 289 289 289 289 289
309 308 307 306 306 305 304 303 303 302 302 301 300 299 298 297 296 297 294 289 288 288 288 288 288 288 287 287 287 287 287 287 287 288 288 288 288 289 289 289 289 289 289
308 307 306 305 305 304 303 303 302 301 301 301 300 299 297 297 296 292 289 288 287 287 287 287 287 287 287 287 287 287 287 287 287 287 288 288 288 288 288 288 289 289 289
306 305 305 304 303 303 302 302 301 301 300 299 298 297 296 297 296 291 288 287 287 286 286 286 287 287 287 287 287 287 287 287 288 288 288 287 287 287 288 288 288 288 288
304 304 304 304 303 302 302 301 301 300 300 299 297 296 295 295 293 288 287 287 287 287 287 287 287 287 287 287 287 287 288 288 288 287 287 287 287 287 287 287 287 287 287
304 304 304 303 303 302 301 300 300 299 299 298 297 296 295 295 293 288 287 287 286 286 287 287 287 287 287 287 287 287 288 287 287 287 287 286 286 286 286 286 286 286 286
303 303 304 303 302 302 301 300 298 297 297 297 297 295 295 295 292 288 288 287 287 287 287 287 287 287 287 287 287 288 287 287 287 287 287 287 286 286 286 286 285 285 285
304 303 303 302 301 301 301 299 298 296 296 297 297 296 296 296 293 289 288 287 287 287 288 288 288 287 288 287 287 287 287 287 287 286 286 286 286 286 286 286 285 285 285
302 303 302 302 301 301 300 299 298 297 296 296 296 297 297 296 293 290 289 288 288 288 288 288 288 288 288 288 287 287 287 287 287 287 286 286 286 286 286 286 285 285 284
301 301 301 301 301 301 300 299 299 298 297 297 297 297 297 296 296 292 290 289 289 289 289 289 288 288 287 287 287 287 287 287 286 286 286 286 286 286 286 285 285 285 284
299 300 300 300 300 300 300 299 299 298 298 298 297 297 296 296 297 297 296 292 290 289 289 289 289 289 288 288 287 287 287 286 286 286 286 286 285 285 286 286 285 285 284
298 298 299 299 299 299 299 299 299 298 298 298 298 297 297 297 297 297 298 298 295 291 290 290 289 289 289 289 288 288 287 287 287 286 286 285 285 285 286 287 285 284 284
297 297 297 298 298 298 298 298 298 298 298 298 297 297 297 297 297 297 297 297 298 297 293 291 290 290 290 290 289 289 289 288 287 287 286 285 285 285 287 289 287 284 284
291 294 295 295 295 295 295 295 295 296 296 296 296 296 297 296 296 297 297 296 296 297 297 297 296 293 290 290 290 290 290 289 287 286 285 286 285 284 288 292 286 284 284
287 287 288 289 292 293 293 292 292 292 292 293 293 294 294 294 295 295 296 296 296 296 296 296 297 297 297 296 293 290 289 289 288 286 288 289 284 286 289 291 285 286 284

GFSGL_850_thetae_099.txt.gz
Theta_e
317 316 316 319 321 322 323 322 321 321 320 319 317 313 312 311 311 311 311 311 311 311 313 318 322 320 324 323 322 320 320 320 321 318 317 314 312 310 308 308 308 307 307
316 315 316 316 317 317 316 314 314 312 312 311 311 311 311 311 312 312 312 312 312 312 314 315 318 320 318 318 320 322 320 320 319 315 313 312 310 308 305 305 305 306 305
316 315 316 315 315 317 317 317 314 312 312 312 312 312 312 311 311 311 312 312 313 314 315 317 317 319 318 318 319 318 318 317 314 310 309 307 307 306 304 303 303 304 304
315 315 315 314 314 316 315 313 312 312 311 310 310 310 309 309 309 309 310 310 311 313 315 315 316 316 316 316 316 315 315 312 308 308 308 307 305 304 303 303 303 302 302
313 312 312 312 312 312 312 312 311 310 310 310 310 310 309 309 308 308 308 308 309 309 312 311 312 312 312 312 312 313 310 307 307 307 307 306 304 304 304 303 301 301 300
311 311 311 311 312 312 311 310 310 310 310 310 309 309 309 309 308 307 307 307 307 308 308 309 310 310 311 311 311 307 307 307 307 306 306 305 304 303 302 301 299 298 295
311 311 311 311 311 310 310 310 310 309 309 309 309 309 308 308 308 307 306 306 306 306 307 307 307 307 307 307 306 306 306 306 304 304 303 303 302 300 298 296 295 293 290
311 311 310 310 310 310 310 309 309 309 309 308 308 308 307 307 307 307 306 305 305 305 305 305 306 306 305 305 305 304 302 303 303 303 301 298 294 293 292 290 289 289 289
311 310 310 310 310 310 309 309 309 308 308 307 307 306 306 305 305 305 305 304 302 302 302 303 303 304 303 303 303 301 301 300 297 292 291 290 290 289 289 289 289 289 289
311 311 310 310 309 309 309 308 307 307 306 306 305 305 304 304 301 303 302 300 300 301 301 301 302 301 300 300 300 296 290 290 290 289 289 289 289 288 288 288 288 288 289
311 310 310 309 309 308 308 307 306 305 305 304 304 303 303 302 300 299 299 298 298 299 299 300 299 298 296 292 290 289 289 289 289 288 289 288 288 288 288 288 289 290 290
310 309 309 308 308 308 307 306 305 304 304 303 303 302 301 300 299 297 296 297 297 297 297 296 293 290 288 288 288 288 288 288 288 288 288 288 288 288 288 289 290 290 290
309 309 308 308 308 307 306 305 304 303 303 302 302 301 299 299 298 297 296 297 295 292 289 288 288 288 288 287 287 287 287 287 288 288 287 288 288 288 289 289 289 289 289
308 308 308 307 306 305 304 303 303 302 302 301 301 300 299 298 297 296 296 292 289 288 287 287 287 287 287 287 286 286 287 287 287 287 287 288 288 289 289 289 289 289 289
307 306 305 305 305 304 303 303 302 302 301 301 301 300 299 297 297 296 295 289 288 286 286 286 286 287 287 287 286 286 287 287 286 287 287 288 288 288 288 288 288 288 288
305 305 305 304 304 303 303 302 302 301 300 300 299 299 298 297 296 295 293 288 287 287 287 287 287 287 287 287 287 287 287 287 287 287 287 287 287 287 287 287 287 287 287
303 303 303 304 303 302 302 302 302 301 299 298 298 297 296 296 295 295 292 288 287 287 287 287 287 287 287 287 287 287 287 287 287 287 287 287 287 287 287 287 287 287 287
302 302 302 302 302 302 302 301 300 300 299 298 297 296 296 295 294 295 291 287 287 287 287 288 287 287 287 287 287 287 287 287 287 287 287 286 287 287 287 287 286 286 286
302 302 301 301 301 301 301 300 300 300 299 298 297 296 296 295 294 293 292 288 288 288 287 288 288 287 287 287 287 287 287 287 287 287 287 286 287 287 287 287 286 286 285
299 300 300 301 301 301 301 300 299 299 299 298 297 297 296 295 294 294 294 291 289 289 288 288 288 287 287 287 287 287 287 287 287 287 287 287 287 287 287 287 286 286 285
297 298 299 300 300 300 300 300 299 299 299 299 299 298 296 295 295 295 296 296 292 290 290 289 289 288 288 287 287 287 287 287 287 287 287 287 286 286 286 286 286 286 286
297 298 298 299 299 299 299 299 298 298 298 298 299 298 297 296 296 296 296 296 297 294 291 290 289 289 289 288 288 287 287 287 287 287 287 287 286 286 286 286 286 286 286
296 297 297 298 298 297 297 297 297 297 297 297 298 297 297 297 297 297 297 297 297 297 297 296 294 290 290 289 289 288 288 288 288 287 286 286 286 286 286 286 285 285 286
288 291 294 296 296 296 296 296 296 296 295 295 295 296 296 296 296 297 297 296 296 296 296 297 297 297 293 291 290 289 289 289 288 288 287 286 286 286 288 285 285 285 287
287 287 287 287 288 291 292 293 293 293 293 293 293 293 294 294 294 295 296 296 296 296 296 296 296 296 296 296 294 291 290 289 289 288 288 287 286 286 288 286 285 284 287
286 286 286 286 286 287 287 287 287 288 288 289 290 290 291 291 292 292 293 293 294 294 294 295 295 295 295 295 296 296 296 293 289 288 289 288 287 286 285 285 287 285 287

GFSGL_850_thetae_102.txt.gz
Theta_e
328 327 325 325 323 322 322 322 322 323 322 323 324 324 323 322 317 313 311 311 311 311 311 311 312 317 320 322 322 323 322 321 323 320 320 319 317 315 311 309 308 307 307
320 319 319 320 320 321 323 322 318 318 316 314 314 313 312 311 311 311 311 311 312 312 312 312 312 315 317 319 319 320 320 321 318 320 319 317 315 312 309 307 305 305 304
317 316 316 316 317 316 316 315 315 314 315 312 311 311 311 311 311 311 311 311 311 311 312 312 314 315 317 317 316 319 318 319 319 317 315 313 311 309 307 305 303 302 303
316 316 315 315 315 315 314 314 313 313 313 312 312 311 310 310 310 310 309 309 309 309 310 313 313 315 317 317 317 316 316 316 315 315 311 307 307 306 305 304 303 302 302
315 315 315 315 315 315 314 312 311 311 311 311 311 310 310 310 310 310 309 308 308 308 308 309 310 312 313 313 314 314 313 312 313 311 307 306 306 305 303 303 302 302 301
314 314 314 314 313 311 311 311 310 310 310 310 310 310 310 309 309 309 309 308 307 307 307 307 307 309 309 310 310 310 310 311 308 306 306 306 306 304 303 303 302 301 299
311 311 311 311 311 311 310 310 310 310 310 310 310 309 309 308 308 308 307 307 307 306 306 306 306 307 307 307 308 308 308 307 306 305 305 305 304 304 303 302 301 299 297
311 311 311 311 310 310 310 309 309 310 310 309 309 308 308 307 307 307 306 306 306 305 304 304 304 304 305 305 304 304 304 304 305 304 303 303 302 300 299 297 296 294 292
311 311 310 310 309 309 309 309 309 309 309 308 307 307 306 305 305 305 305 304 304 302 301 301 301 302 302 302 302 302 302 302 301 302 302 301 299 294 293 291 290 290 289
311 310 310 310 309 309 309 309 309 308 307 307 306 306 305 305 304 304 304 303 302 301 300 300 301 301 301 301 301 299 299 298 297 293 292 290 290 290 289 289 288 288 288
310 310 310 309 309 308 308 308 308 307 306 306 305 304 304 304 302 301 302 299 299 299 299 299 300 300 299 299 298 297 292 290 289 289 289 288 289 288 288 288 288 288 288
310 310 309 309 308 308 308 308 307 306 306 305 304 304 303 301 300 298 297 297 297 298 298 298 297 297 296 293 289 288 288 288 288 288 288 288 287 288 287 288 288 289 290
309 309 308 308 308 308 307 307 306 304 304 304 303 303 301 299 299 298 298 297 297 297 295 294 292 289 288 288 288 287 286 287 287 288 288 287 287 287 288 288 289 289 290
308 307 307 307 307 306 306 305 304 304 303 303 302 302 301 300 299 298 297 296 295 296 290 288 287 287 287 287 287 286 286 286 286 287 286 286 287 287 288 289 289 289 289
307 306 306 306 305 304 304 303 303 303 302 302 302 301 300 300 299 297 296 295 294 289 287 287 286 286 287 287 287 286 286 286 286 286 286 287 287 287 288 288 288 288 288
305 305 304 304 303 303 303 303 303 303 303 302 301 300 300 299 297 296 295 295 293 288 288 287 287 286 286 286 286 286 286 286 286 286 286 287 287 287 287 287 287 288 287
304 303 303 303 302 302 302 302 303 302 302 302 301 299 298 297 296 295 294 294 290 288 288 288 287 287 287 286 286 286 287 286 286 286 286 287 287 287 286 287 287 287 286
302 302 302 302 301 301 301 301 301 301 301 301 299 298 297 296 295 295 294 294 290 288 289 290 288 287 287 287 286 286 287 286 286 286 287 287 287 286 286 287 287 287 286
299 299 301 301 301 301 300 300 300 300 300 300 299 298 297 296 295 293 293 293 293 293 290 288 288 288 287 287 287 286 286 286 286 286 286 286 286 286 286 287 286 286 285
298 297 297 300 300 300 300 300 300 300 300 299 299 299 297 296 296 295 294 294 293 294 292 289 289 288 287 287 287 287 286 286 287 287 287 286 286 286 286 287 286 285 286
297 297 297 298 299 299 299 299 299 299 299 299 299 298 297 297 297 296 295 295 295 295 295 293 290 289 288 288 287 287 287 287 287 287 287 287 286 286 286 286 286 285 285
296 296 297 297 298 298 299 299 298 298 298 298 298 298 297 296 297 297 296 296 295 295 296 296 295 292 290 289 288 288 287 287 287 287 287 287 286 286 286 286 285 285 285
289 291 294 296 296 297 297 297 297 297 297 297 297 296 296 296 296 296 296 296 296 295 295 295 295 296 296 295 291 289 288 288 288 287 287 286 286 286 286 286 285 285 285
287 287 287 287 289 292 294 295 295 294 294 295 295 295 295 295 295 295 295 295 296 296 296 295 295 295 295 296 297 295 291 289 289 288 288 287 287 286 286 285 285 285 289
286 286 286 286 286 287 287 287 288 288 289 289 290 291 291 291 292 293 293 293 293 294 294 295 295 295 295 295 294 295 296 295 290 289 288 288 288 287 287 286 285 285 290
286 286 286 286 286 286 286 286 286 286 286 286 286 287 286 287 288 289 289 290 290 290 292 292 293 293 293 293 294 294 294 294 294 294 291 288 288 288 287 287 286 286 288

GFSGL_850_thetae_105.txt.gz
Theta_e
326 326 328 330 329 325 324 324 323 321 321 321 322 322 322 322 323 322 319 314 312 311 311 311 311 311 311 312 322 320 322 324 323 323 320 320 319 318 316 314 312 308 307
323 325 328 327 324 323 322 322 322 322 323 322 318 316 314 313 312 311 311 311 311 312 312 312 312 313 312 317 317 319 320 320 320 320 319 318 318 317 314 312 309 307 304
321 323 326 325 325 325 323 321 323 323 319 315 313 312 312 312 311 311 311 310 310 310 310 310 311 311 313 314 317 317 317 318 317 318 318 317 316 314 312 309 307 304 303
318 318 317 317 317 318 319 319 317 314 313 313 312 311 311 310 310 310 310 310 310 309 309 308 309 310 310 314 315 315 316 317 316 315 315 315 313 311 309 307 305 303 302
315 315 315 315 315 315 314 313 314 314 313 311 310 310 310 310 310 310 310 309 309 308 308 308 308 308 309 310 312 313 314 314 313 313 312 312 310 307 306 305 304 302 301
315 315 315 314 314 314 314 314 313 311 311 310 310 309 309 309 310 309 309 308 308 308 307 307 307 306 306 307 308 310 310 311 310 310 310 309 306 305 305 304 303 302 301
314 314 314 314 314 313 311 311 310 310 309 309 309 309 309 309 309 309 308 308 307 307 306 306 306 305 304 305 305 306 307 308 308 308 306 306 305 305 304 302 302 302 301
311 311 311 311 310 310 310 310 309 309 309 309 309 309 309 308 308 308 308 307 306 305 305 304 301 301 302 302 302 304 304 305 304 304 304 304 303 303 303 302 302 301 299
311 311 310 310 310 310 309 309 309 309 309 309 309 308 308 308 307 307 306 306 305 304 303 301 301 300 300 300 300 301 301 301 302 303 302 302 302 301 300 299 298 297 295
311 310 310 310 309 309 309 308 308 308 308 308 308 307 307 307 305 305 305 304 303 303 300 300 300 300 300 300 300 300 300 300 300 301 300 300 300 299 295 294 292 291 290
310 310 310 309 309 309 308 308 308 308 308 308 307 306 305 305 304 304 302 302 300 300 299 299 299 298 298 297 298 298 297 296 293 291 290 290 290 290 290 289 289 288 288
310 310 309 309 309 308 308 308 307 307 307 306 305 305 304 304 303 299 299 298 298 298 298 297 297 297 297 296 296 293 291 290 289 288 288 288 288 288 288 288 287 287 287
309 309 309 309 308 308 307 307 307 306 306 305 305 305 304 303 302 300 300 299 298 298 297 296 296 294 292 291 289 288 287 287 287 287 287 287 287 286 286 287 287 288 289
309 308 308 307 307 307 307 306 306 305 305 304 304 304 303 303 302 301 300 299 298 297 296 295 291 288 288 288 287 287 286 286 286 286 287 286 286 286 287 287 288 289 289
307 307 307 307 306 306 305 305 304 304 303 304 304 303 303 303 301 300 299 298 297 296 295 292 288 287 287 287 287 287 286 286 286 286 286 286 286 286 287 287 288 288 288
305 305 305 305 305 304 304 303 304 304 303 303 304 304 303 302 300 298 297 296 296 295 294 291 289 288 287 286 286 286 286 286 286 285 285 286 286 286 287 287 287 288 288
304 304 304 303 303 303 303 303 302 302 303 303 303 303 302 302 299 297 296 296 295 294 293 292 290 291 288 287 286 286 286 286 285 285 286 286 286 286 286 287 287 287 287
301 301 302 302 302 302 302 301 301 301 302 303 301 301 301 300 298 296 295 295 294 294 293 292 290 289 288 287 287 286 286 286 285 286 286 286 286 286 286 286 287 287 287
299 299 299 299 299 300 300 301 301 300 301 301 301 300 300 300 298 296 294 293 294 294 293 293 292 290 288 288 287 287 286 286 285 285 286 286 286 286 286 286 286 286 286
298 298 298 298 297 298 299 300 300 300 300 300 300 300 300 299 299 297 296 294 294 294 294 294 294 293 289 288 287 287 286 286 286 286 286 286 286 286 286 286 286 286 286
297 297 297 297 297 297 298 298 299 298 299 299 299 299 298 298 298 297 297 297 296 295 295 294 295 295 293 291 289 288 287 287 286 286 286 286 286 286 286 286 286 285 286
293 294 295 296 296 296 296 297 297 297 297 297 298 298 297 297 297 297 297 297 296 296 295 295 295 296 295 295 294 291 289 288 288 287 287 287 287 287 286 286 285 285 285
287 287 287 288 290 294 295 295 295 295 295 295 295 295 295 295 295 295 295 295 295 295 295 295 295 295 296 296 296 296 295 291 289 288 288 287 287 286 286 286 286 286 285
286 286 286 286 286 287 287 288 290 292 292 292 292 292 292 292 292 292 292 292 293 293 293 294 294 295 295 295 295 295 296 297 296 292 289 288 288 287 287 286 286 286 285
286 286 286 286 286 286 286 286 286 286 287 287 287 286 287 287 288 289 289 289 290 290 290 291 292 292 293 293 293 294 294 294 294 295 295 292 289 288 287 287 287 286 286
288 287 287 286 286 286 286 286 286 286 286 286 286 286 285 284 284 285 284 285 286 287 288 289 289 289 290 291 291 291 292 292 292 292 292 292 292 291 289 288 288 287 287

GFSGL_850_thetae_108.txt.gz
Theta_e
324 323 325 325 326 328 329 327 326 325 323 321 321 321 321 322 321 320 319 316 313 311 311 311 311 311 312 312 312 313 313 320 319 322 320 320 320 319 318 318 316 314 313
323 324 323 326 328 328 328 325 324 323 321 321 321 321 317 314 312 311 311 311 311 311 311 311 310 310 311 312 312 318 318 317 318 318 318 318 318 318 316 315 314 313 311
323 322 322 327 328 327 324 322 322 322 321 322 322 315 313 312 311 311 311 310 310 310 310 310 310 309 309 309 310 312 315 317 316 317 318 317 317 317 315 314 312 310 307
321 321 322 325 325 324 324 324 322 321 322 317 314 313 312 311 310 310 310 310 310 310 309 309 309 308 308 308 309 311 314 314 315 315 315 316 314 314 313 312 310 308 305
318 318 318 318 319 319 318 318 318 314 313 313 313 312 311 310 310 310 310 310 309 309 308 308 308 307 307 307 308 309 310 312 313 312 313 312 312 312 311 311 307 305 304
316 315 315 315 315 314 313 313 313 314 314 313 310 310 310 310 310 310 309 309 308 308 308 307 307 306 306 306 304 305 306 308 309 310 310 310 310 309 308 306 305 304 302
315 314 314 314 314 313 313 314 314 312 310 310 310 309 309 309 309 309 308 308 308 308 307 307 305 304 304 303 302 304 303 304 306 307 307 308 308 307 304 304 304 303 302
314 314 313 313 313 313 312 311 310 310 309 309 309 309 309 309 309 308 308 307 307 306 306 305 304 303 301 301 300 300 301 302 302 303 304 305 304 303 302 302 302 301 300
311 311 311 310 310 310 310 309 309 309 309 309 309 309 309 308 307 307 307 306 306 305 304 304 303 301 300 301 300 300 300 300 300 301 301 301 301 302 302 302 300 300 300
310 310 310 309 309 309 309 308 308 308 309 309 309 309 308 307 307 306 306 305 304 304 303 302 301 299 299 300 300 299 299 299 299 300 300 300 300 301 300 300 299 299 298
309 309 309 309 309 308 308 308 309 309 309 309 309 308 307 306 305 305 304 303 301 300 299 300 299 298 299 298 299 298 298 297 296 295 294 294 295 297 297 296 295 294 292
309 309 308 308 308 308 308 308 308 308 308 308 307 307 306 306 305 304 302 300 299 299 299 298 298 298 298 298 297 296 295 294 293 292 290 288 288 289 289 289 289 289 288
309 309 309 309 308 308 308 308 308 308 308 307 307 307 306 306 305 304 302 302 300 300 299 297 297 297 296 296 294 292 289 288 287 287 287 287 287 287 287 287 287 287 287
309 309 308 308 308 308 308 308 307 307 306 305 305 305 305 305 304 303 302 301 300 300 299 298 296 295 291 290 289 288 288 287 287 286 286 286 286 286 286 286 286 287 287
308 308 307 307 306 306 306 306 306 306 305 305 305 305 305 304 302 303 302 300 299 298 297 297 296 293 289 287 288 287 287 287 286 286 286 286 286 286 286 286 286 287 288
305 305 305 306 306 306 306 305 305 304 303 304 305 304 304 304 303 302 302 300 298 297 296 296 296 293 289 287 287 286 286 286 286 286 285 285 286 286 286 286 286 287 288
302 303 304 304 304 303 303 303 303 302 303 303 303 303 303 303 302 302 300 298 297 296 295 294 295 294 289 290 289 287 286 285 285 286 285 285 285 285 285 286 286 287 287
300 300 300 300 301 301 301 301 301 302 302 301 301 301 302 301 301 301 300 298 296 294 294 294 295 294 290 289 288 287 287 286 286 286 286 286 285 285 285 286 286 286 287
299 299 299 299 298 298 298 298 299 299 300 301 301 300 300 300 300 301 298 297 295 293 294 294 294 294 293 290 289 288 287 287 286 286 285 285 286 286 286 286 286 286 286
298 298 298 298 297 297 297 297 297 298 297 299 299 300 300 299 300 300 299 298 296 294 294 294 293 294 294 293 292 288 288 287 287 286 286 286 286 286 286 286 286 286 286
295 295 296 296 296 296 296 296 297 297 297 297 298 298 298 298 298 298 298 298 297 296 295 295 294 294 294 294 294 292 291 289 288 287 287 286 286 286 286 286 286 286 285
287 287 288 290 291 294 295 295 296 296 296 296 296 297 296 296 296 296 296 296 296 295 295 294 295 295 295 294 295 295 295 295 292 290 289 288 287 286 286 286 286 286 286
286 286 286 286 286 286 287 289 293 293 293 294 294 294 294 293 293 293 293 293 293 293 293 293 293 294 295 295 294 294 295 295 296 295 293 290 288 288 287 286 286 286 286
286 286 286 286 286 286 286 286 286 286 286 287 289 290 290 291 291 291 291 291 291 290 290 291 291 292 292 292 293 293 293 293 293 294 294 294 294 291 288 287 287 286 286
288 288 287 287 286 286 286 286 286 286 286 286 286 286 286 286 286 285 285 285 286 287 288 289 289 289 289 290 290 291 291 292 292 292 292 292 292 292 292 290 288 287 287
287 287 287 287 286 286 285 285 285 285 285 285 285 285 285 285 285 285 285 285 285 285 284 284 285 286 287 287 288 287 288 289 289 290 290 290 290 290 290 290 290 290 288

GFSGL_850_thetae_111.txt.gz
Theta_e
326 326 325 326 326 327 328 328 326 326 325 323 321 321 320 320 320 318 317 315 313 311 311 311 311 311 311 311 311 312 312 313 316 317 320 317 320 318 318 319 317 315 315
324 324 324 324 326 327 328 327 326 325 324 321 321 321 321 317 314 313 313 312 311 311 311 310 310 310 310 310 310 310 310 314 315 316 316 317 317 318 317 317 315 315 313
324 324 324 323 326 327 328 327 325 324 322 321 321 322 317 313 313 313 312 311 310 310 310 311 310 310 309 309 309 309 309 310 314 315 315 315 316 317 316 316 315 312 311
324 323 322 323 326 327 326 323 322 322 322 321 322 316 313 313 313 311 311 310 310 310 310 309 309 309 309 309 308 308 308 309 312 313 313 314 314 314 315 314 312 311 310
322 323 321 323 324 324 324 324 323 322 320 319 314 313 313 312 311 311 310 310 310 309 309 309 309 309 308 308 307 307 307 308 309 310 311 311 312 312 313 312 311 309 307
318 318 319 319 319 319 319 318 318 317 315 313 313 311 310 310 310 310 310 310 309 309 309 309 308 307 306 305 305 305 304 304 305 307 309 309 309 309 309 310 309 307 305
316 315 315 315 315 315 314 314 313 312 312 312 310 309 310 310 310 310 310 309 309 308 308 308 307 306 305 304 303 301 301 302 303 304 305 306 306 307 306 306 305 304 304
314 314 314 314 314 313 312 312 312 312 310 309 309 310 309 310 310 309 309 308 307 307 307 306 306 305 303 303 303 301 300 299 300 300 301 303 304 304 304 303 303 303 302
313 313 313 313 313 313 313 312 310 309 309 309 309 309 309 309 309 308 307 307 307 306 305 305 304 304 303 303 301 300 300 300 300 300 300 300 301 302 302 302 301 301 301
310 310 310 310 310 309 309 309 308 308 308 308 309 309 309 308 307 307 306 306 305 304 303 303 302 301 298 299 299 300 299 299 300 300 300 300 301 301 301 301 300 300 299
309 309 309 308 308 308 308 308 308 308 308 308 308 309 308 307 306 306 305 305 304 302 301 300 299 299 298 298 299 299 299 299 298 298 296 296 296 298 299 299 299 298 298
310 310 309 309 308 308 308 307 307 307 307 308 308 308 306 306 306 305 305 304 303 302 301 299 298 297 297 297 298 298 297 296 295 294 294 292 289 289 290 292 294 294 294
309 309 308 308 308 308 307 307 308 308 308 307 307 306 305 305 305 305 305 304 303 303 302 301 299 298 297 296 295 294 292 291 289 288 287 287 287 287 287 288 288 289 289
309 308 308 308 308 308 308 307 307 306 306 306 306 305 305 305 304 304 304 303 302 302 301 300 299 298 296 293 290 290 289 288 288 287 286 286 286 287 287 286 286 286 287
307 307 307 306 306 306 306 306 306 306 306 305 304 304 305 305 305 304 304 303 302 301 300 298 296 295 295 293 289 287 288 287 287 287 286 286 286 286 286 286 286 286 286
304 305 305 305 304 306 306 305 305 304 304 303 303 304 303 304 304 303 303 303 302 299 298 296 295 294 294 292 289 287 287 286 286 286 286 286 286 286 286 286 286 286 286
302 302 302 302 303 302 302 302 302 302 302 302 303 303 303 303 303 302 302 300 299 297 296 294 293 293 294 293 289 289 288 287 286 286 286 286 285 285 285 286 286 286 286
300 300 300 300 300 300 300 300 300 300 301 301 301 301 301 301 301 301 300 300 299 297 295 294 294 294 293 293 290 289 288 287 287 286 286 286 286 285 286 286 286 286 286
298 298 298 298 298 298 298 298 297 297 298 299 299 299 300 299 300 300 299 299 297 296 295 295 294 293 294 294 293 290 289 288 287 287 286 286 286 286 286 286 286 286 286
296 297 297 297 297 297 297 297 297 296 297 297 298 298 298 298 299 299 298 299 298 297 295 295 295 294 293 293 293 293 292 289 288 287 287 286 286 286 285 285 286 286 286
288 289 290 292 293 294 294 295 296 296 296 296 296 296 296 296 297 297 297 297 297 297 297 296 296 295 293 293 294 294 294 292 290 290 289 288 287 286 286 286 286 286 285
286 286 286 286 286 287 287 291 294 294 295 295 295 295 295 295 295 295 295 295 295 295 295 295 295 295 295 295 294 294 294 294 293 294 294 293 290 289 287 286 286 286 286
286 286 286 286 286 286 286 286 286 287 289 292 292 292 293 293 293 293 292 292 292 293 293 292 292 292 293 293 294 293 293 293 293 293 293 293 293 293 290 288 287 287 286
286 287 287 287 286 286 286 286 286 286 286 286 285 286 286 287 288 287 288 288 289 290 290 290 290 290 290 290 291 291 291 291 291 292 292 292 292 293 293 293 291 288 287
288 287 287 287 286 286 286 286 285 285 285 285 285 285 286 285 285 285 285 285 285 285 285 285 285 286 287 288 288 288 289 289 289 289 290 290 290 290 290 290 291 292 291
286 286 286 286 286 286 286 286 285 285 285 285 285 285 285 285 285 285 285 285 285 285 285 285 285 284 285 285 285 286 286 286 287 287 287 288 288 289 289 289 289 289 289

GFSGL_850_thetae_114.txt.gz
Theta_e
327 326 326 325 325 324 325 328 324 327 327 328 329 324 322 321 320 320 321 321 321 320 316 312 311 311 311 311 311 311 311 312 313 314 316 314 317 317 318 318 317 318 317
326 327 327 326 327 327 327 327 327 327 326 325 322 321 320 320 320 318 316 313 312 311 311 311 310 310 311 311 310 310 310 310 310 314 314 315 314 315 316 316 316 316 314
325 326 326 326 326 326 327 327 326 325 324 323 321 320 320 320 316 313 312 312 311 311 310 311 311 311 310 310 310 309 309 309 310 310 311 313 314 314 315 316 315 315 313
324 324 323 322 324 325 327 326 325 325 324 321 321 320 321 314 313 313 312 311 311 311 311 311 310 310 310 309 309 309 308 308 308 309 311 312 312 312 313 313 313 313 312
323 323 323 322 323 324 326 326 324 323 322 321 321 320 314 313 313 312 311 310 310 310 310 310 310 310 309 309 308 307 306 306 306 306 308 309 310 311 312 312 311 309 308
323 323 322 323 324 325 324 323 322 322 321 320 318 314 313 313 312 310 310 310 310 309 309 310 310 309 308 307 306 306 304 304 303 304 304 305 307 308 309 309 309 308 307
321 322 323 323 323 323 323 322 321 320 318 315 312 312 312 310 309 309 309 310 309 309 309 309 308 307 306 305 305 304 303 303 302 301 302 303 304 305 305 306 306 307 306
315 316 316 317 317 316 316 316 315 313 312 312 311 310 309 309 309 309 309 309 308 308 308 308 306 306 305 305 304 303 303 301 301 300 301 301 302 303 303 304 304 303 303
314 313 313 313 313 313 312 312 311 311 311 310 309 309 309 310 309 309 307 307 307 307 307 306 305 304 304 304 304 302 301 301 300 300 300 300 300 301 302 302 302 302 302
312 313 313 312 311 311 311 311 311 309 308 308 308 309 309 309 308 307 306 306 306 306 305 304 303 302 301 301 299 299 299 299 300 300 300 300 300 301 301 301 301 301 301
310 310 310 310 310 309 309 308 308 307 307 307 307 308 308 307 307 306 306 305 305 304 303 302 300 299 299 298 298 299 298 299 299 298 298 298 297 298 299 299 299 299 299
309 309 309 309 309 308 308 307 307 307 307 308 308 308 308 307 306 306 306 305 305 304 303 302 301 300 299 298 297 297 298 298 297 295 295 295 294 292 290 292 296 298 298
308 307 307 307 307 307 307 307 307 307 307 307 307 307 307 306 305 304 304 304 303 303 303 302 301 301 300 298 296 295 295 294 292 290 289 289 288 289 289 288 288 290 292
307 307 306 306 306 305 305 305 305 305 306 306 306 306 305 305 304 305 305 304 303 302 302 301 301 299 297 296 295 292 290 290 289 288 288 287 287 287 287 287 287 287 287
307 308 307 307 306 305 305 304 304 304 304 305 305 305 304 304 304 305 304 303 303 302 301 301 300 298 296 295 295 292 289 288 288 287 287 287 287 287 286 287 286 286 286
304 305 305 305 305 305 304 304 304 305 304 304 304 304 304 305 304 304 303 303 303 301 301 299 297 296 295 294 294 293 289 288 287 286 286 286 286 286 286 286 286 286 286
300 300 301 301 302 302 303 304 303 303 302 303 303 302 302 303 303 302 302 302 302 300 299 298 296 295 295 294 293 293 289 290 288 287 286 286 286 286 285 286 286 286 286
298 298 298 299 299 299 300 300 300 300 300 301 301 301 301 301 301 301 301 300 300 300 298 297 296 295 294 294 293 293 290 289 289 287 287 286 286 286 286 285 286 286 286
296 296 297 297 297 297 298 297 297 297 297 297 297 298 299 299 299 300 300 300 300 300 299 298 296 295 294 294 293 293 292 290 289 288 287 287 286 286 285 286 286 286 285
293 293 294 295 295 295 296 296 296 296 296 296 297 297 297 298 298 299 299 298 298 298 298 297 296 295 295 294 293 293 292 293 291 290 288 287 287 287 286 286 285 285 286
290 288 287 287 287 288 290 293 294 294 294 295 296 296 296 296 296 297 296 296 297 297 297 297 297 296 295 295 294 293 293 293 293 293 290 288 288 288 287 286 286 286 285
286 287 287 286 286 286 286 286 287 290 293 293 294 294 294 294 294 295 295 295 295 295 295 294 294 294 294 294 294 294 294 293 293 293 292 291 291 291 291 290 288 287 286
289 288 287 287 286 286 286 286 286 286 286 287 289 291 291 291 292 292 292 292 292 292 292 292 292 292 292 292 292 292 292 293 292 292 292 291 292 292 292 292 292 290 288
286 288 288 287 287 287 287 286 286 285 285 285 285 285 285 286 287 287 288 288 288 289 289 289 289 289 288 289 289 289 290 290 290 290 290 290 291 291 291 291 292 293 293
288 288 287 286 286 286 286 286 285 285 285 285 285 285 285 285 285 285 285 285 285 285 285 285 285 285 286 285 286 287 287 288 289 288 288 288 289 289 289 289 290 290 290
288 289 288 288 286 286 287 286 285 285 285 284 284 285 284 284 284 284 285 285 285 285 285 285 285 285 285 285 285 285 285 286 286 286 286 286 287 287 287 288 288 288 288

GFSGL_850_thetae_117.txt.gz
Theta_e
329 328 325 324 325 324 324 324 328 327 326 325 323 324 324 323 325 327 325 321 321 321 322 321 321 317 311 311 311 311 311 312 315 315 313 312 311 314 314 316 316 317 316
327 328 327 326 325 324 327 325 324 324 324 322 322 324 325 326 325 325 321 321 321 320 318 315 312 311 311 310 310 310 310 310 310 311 311 311 311 313 313 314 315 314 314
325 325 325 324 326 324 323 324 324 324 323 324 326 326 326 324 324 321 320 318 315 313 313 312 311 310 310 310 310 310 309 309 309 308 309 309 310 311 312 312 313 313 313
324 326 326 325 325 325 324 325 326 326 326 327 326 324 323 322 320 320 316 313 313 312 311 311 310 310 310 310 309 309 310 309 308 307 307 307 306 308 310 311 311 311 312
323 324 324 325 325 325 326 326 326 326 326 325 322 321 320 320 320 315 313 312 312 310 310 310 310 310 309 309 309 309 309 308 306 305 304 305 305 306 307 309 310 311 310
324 324 323 324 325 324 325 325 325 325 324 323 321 320 320 321 315 312 312 311 310 310 310 310 310 310 310 310 308 308 307 305 304 303 303 301 302 303 305 306 308 309 307
323 324 324 323 323 324 325 324 324 323 322 321 321 321 319 315 312 311 310 309 310 310 310 310 310 309 308 308 307 306 306 305 304 303 302 301 301 301 303 304 305 306 306
321 322 322 322 322 323 323 322 322 321 321 320 319 316 313 311 310 309 309 309 309 309 309 308 308 307 307 305 305 304 304 303 303 302 301 301 301 301 301 301 303 303 304
315 317 319 321 321 321 321 321 320 319 317 314 312 311 310 309 309 309 309 309 308 307 307 306 306 305 304 304 304 303 303 303 303 301 301 301 300 300 300 301 301 302 303
312 312 313 313 313 314 314 314 313 312 311 310 310 309 308 308 309 309 308 307 307 306 305 304 304 304 303 302 301 301 301 301 301 301 300 300 299 300 300 300 300 300 300
310 311 311 311 311 311 311 310 310 310 310 309 308 308 308 308 309 308 307 307 306 305 304 304 303 302 302 301 300 300 300 299 300 299 299 299 298 297 297 299 299 299 299
308 308 308 308 309 309 309 309 309 308 307 307 307 307 308 308 309 307 306 305 305 305 304 303 302 302 301 301 300 300 299 298 298 298 297 295 295 295 294 292 292 297 298
307 307 307 307 307 307 306 306 306 306 306 306 307 307 308 308 307 306 305 305 304 304 303 303 302 302 301 301 300 300 299 297 296 294 292 290 289 289 289 289 289 289 291
308 308 306 306 306 306 306 305 304 304 304 304 305 305 305 306 306 305 305 305 304 304 304 303 302 302 301 299 298 297 296 294 291 290 290 288 288 287 287 287 287 287 287
307 307 306 306 306 305 304 304 304 304 304 304 304 304 304 305 305 305 305 305 305 304 303 302 301 301 299 297 297 296 296 294 290 288 288 287 287 287 287 287 287 286 286
302 303 303 304 304 304 304 303 302 301 301 302 303 303 303 303 303 303 304 304 303 303 302 302 300 298 297 296 295 295 294 293 290 288 288 287 286 286 286 286 286 286 286
300 299 299 300 301 301 301 302 302 301 301 300 300 300 300 300 300 300 301 302 301 301 301 300 298 296 295 296 295 294 293 293 290 289 289 287 287 286 286 286 286 286 286
299 300 298 297 298 299 299 299 299 299 300 300 300 300 299 300 300 300 299 299 299 299 300 300 299 297 296 295 295 294 293 293 291 290 289 288 287 286 286 286 286 286 286
296 296 296 295 296 296 297 297 297 297 297 297 297 297 297 298 299 299 299 298 299 300 300 299 298 298 297 295 295 294 293 293 293 291 290 289 288 287 286 286 286 286 286
291 289 288 289 289 291 292 294 294 294 294 295 295 295 296 296 297 298 298 297 297 298 298 297 297 297 297 296 295 294 294 292 293 292 292 290 289 287 287 287 286 286 285
289 290 290 288 287 287 287 287 287 290 292 293 294 294 295 295 296 296 296 296 295 296 296 296 296 296 296 295 295 294 294 294 293 292 292 292 291 289 288 288 287 286 286
288 289 289 289 289 289 288 287 286 286 286 287 291 293 293 293 294 294 294 294 294 294 294 294 294 294 294 294 293 293 293 293 292 292 292 291 290 291 289 290 291 291 289
290 288 287 287 287 287 287 287 287 286 286 285 286 286 288 290 291 291 292 292 292 292 292 292 292 292 292 292 291 291 291 291 291 291 291 291 290 290 290 290 291 291 291
287 287 287 288 288 288 287 287 286 286 286 286 286 285 285 285 285 286 287 288 289 289 289 289 289 289 289 289 289 288 288 289 289 289 289 289 289 290 290 289 290 290 290
287 287 287 287 287 288 288 288 288 288 286 286 285 285 285 285 285 285 285 285 285 285 285 285 285 285 285 285 286 286 285 286 287 287 288 288 288 288 288 288 288 288 288
287 288 288 287 285 284 284 284 285 285 286 285 285 286 286 284 284 284 285 285 285 285 285 285 284 284 285 285 284 284 284 284 284 284 285 286 286 286 286 286 286 286 286